[[{"header":{"parameterUnit":"m.s-1","parameterCategory":1,"la1":30.6,"la2":28.766,"lo1":-90.7593,"lo2":-88.6598,"dy":0.0162,"dx":0.0183,"nx":116,"ny":114,"refTime":"2023-08-24T06:00:00:Z","depth":0,"parameterNumber":2,"parameterNumberName":"U-component_of_WINDS"},"data":[0.0,0.0,0.0,0.0,0.0,0.0,0.0,0.0,0.0,0.0,0.0,0.0,0.0,0.0,0.0,0.0,0.0,0.0,0.0,0.0,0.0,0.0,0.0,0.0,0.0,0.0,0.0,0.0,0.0,0.0,0.0,0.0,0.0,0.0,0.0,0.0,0.0,0.0,0.0,0.0,0.0,0.0,0.0,0.0,0.0,0.0,0.0,0.0,0.0,0.0,0.0,0.0,0.0,0.0,0.0,0.0,0.0,0.0,0.0,0.0,0.0,0.0,0.0,0.0,0.0,0.0,0.0,0.0,0.0,0.0,0.0,0.0,0.0,0.0,0.0,0.0,0.0,0.0,0.0,0.0,0.0,0.0,0.0,0.0,0.0,0.0,0.0,0.0,0.0,0.0,0.0,0.0,0.0,0.0,0.0,0.0,0.0,0.0,0.0,0.0,0.0,0.0,0.0,0.0,0.0,0.0,0.0,0.0,0.0,0.0,0.0,0.0,0.0,0.0,0.0,0.0,0.0,0.0,0.0,0.0,0.0,0.0,0.0,0.0,0.0,0.0,0.0,0.0,0.0,0.0,0.0,0.0,0.0,0.0,0.0,0.0,0.0,0.0,0.0,0.0,0.0,0.0,0.0,0.0,0.0,0.0,0.0,0.0,0.0,0.0,0.0,0.0,0.0,0.0,0.0,0.0,0.0,0.0,0.0,0.0,0.0,0.0,0.0,0.0,0.0,0.0,0.0,0.0,0.0,0.0,0.0,0.0,0.0,0.0,0.0,0.0,0.0,0.0,0.0,0.0,0.0,0.0,0.0,0.0,0.0,0.0,0.0,0.0,0.0,0.0,0.0,0.0,0.0,0.0,0.0,0.0,0.0,0.0,0.0,0.0,0.0,0.0,0.0,0.0,0.0,0.0,0.0,0.0,0.0,0.0,0.0,0.0,0.0,0.0,0.0,0.0,0.0,0.0,0.0,0.0,0.0,0.0,0.0,0.0,0.0,0.0,0.0,0.0,0.0,0.0,0.0,0.0,0.0,0.0,0.0,0.0,0.0,0.0,0.0,0.0,0.0,0.0,0.0,0.0,0.0,0.0,0.0,0.0,0.0,0.0,0.0,0.0,0.0,0.0,0.0,0.0,0.0,0.0,0.0,0.0,0.0,0.0,0.0,0.0,0.0,0.0,0.0,0.0,0.0,0.0,0.0,0.0,0.0,0.0,0.0,0.0,0.0,0.0,0.0,0.0,0.0,0.0,0.0,0.0,0.0,0.0,0.0,0.0,0.0,0.0,0.0,0.0,0.0,0.0,0.0,0.0,0.0,0.0,0.0,0.0,0.0,0.0,0.0,0.0,0.0,0.0,0.0,0.0,0.0,0.0,0.0,0.0,0.0,0.0,0.0,0.0,0.0,0.0,0.0,0.0,0.0,0.0,0.0,0.0,0.0,0.0,0.0,0.0,0.0,0.0,0.0,0.0,0.0,0.0,0.0,0.0,0.0,0.0,0.0,0.0,0.0,0.0,0.0,0.0,0.0,0.0,0.0,0.0,0.0,0.0,0.0,0.0,0.0,0.0,0.0,0.0,0.0,0.0,0.0,0.0,0.0,0.0,0.0,0.0,0.0,0.0,0.0,0.0,0.0,0.0,0.0,0.0,0.0,0.0,0.0,0.0,0.0,0.0,0.0,0.0,0.0,0.0,0.0,0.0,0.0,0.0,0.0,0.0,0.0,0.0,0.0,0.0,0.0,0.0,0.0,0.0,0.0,0.0,0.0,0.0,0.0,0.0,0.0,0.0,0.0,0.0,0.0,0.0,0.0,0.0,0.0,0.0,0.0,0.0,0.0,0.0,0.0,0.0,0.0,0.0,0.0,0.0,0.0,0.0,0.0,0.0,0.0,0.0,0.0,0.0,0.0,0.0,0.0,0.0,0.0,0.0,0.0,0.0,0.0,0.0,0.0,0.0,0.0,0.0,0.0,0.0,0.0,0.0,0.0,0.0,0.0,0.0,0.0,0.0,0.0,0.0,0.0,0.0,0.0,0.0,0.0,0.0,0.0,0.0,0.0,0.0,0.0,0.0,0.0,0.0,0.0,0.0,0.0,0.0,0.0,0.0,0.0,0.0,0.0,0.0,0.0,0.0,0.0,0.0,0.0,0.0,0.0,0.0,0.0,0.0,0.0,0.0,0.0,0.0,0.0,0.0,0.0,0.0,0.0,0.0,0.0,0.0,0.0,0.0,0.0,0.0,0.0,0.0,0.0,0.0,0.0,0.0,0.0,0.0,0.0,0.0,0.0,0.0,0.0,0.0,0.0,0.0,0.0,0.0,0.0,0.0,0.0,0.0,0.0,0.0,0.0,0.0,0.0,0.0,0.0,0.0,0.0,0.0,0.0,0.0,0.0,0.0,0.0,0.0,0.0,0.0,0.0,0.0,0.0,0.0,0.0,0.0,0.0,0.0,0.0,0.0,0.0,0.0,0.0,0.0,0.0,0.0,0.0,0.0,0.0,0.0,0.0,0.0,0.0,0.0,0.0,0.0,0.0,0.0,0.0,0.0,0.0,0.0,0.0,0.0,0.0,0.0,0.0,0.0,0.0,0.0,0.0,0.0,0.0,0.0,0.0,0.0,0.0,0.0,0.0,0.0,0.0,0.0,0.0,0.0,0.0,0.0,0.0,0.0,0.0,0.0,0.0,0.0,0.0,0.0,0.0,0.0,0.0,0.0,0.0,0.0,0.0,0.0,0.0,0.0,0.0,0.0,0.0,0.0,0.0,0.0,0.0,0.0,0.0,0.0,0.0,0.0,0.0,0.0,0.0,0.0,0.0,0.0,0.0,0.0,0.0,0.0,0.0,0.0,0.0,0.0,0.0,0.0,0.0,0.0,0.0,0.0,0.0,0.0,0.0,0.0,0.0,0.0,0.0,0.0,0.0,0.0,0.0,0.0,0.0,0.0,0.0,0.0,0.0,0.0,0.0,0.0,0.0,0.0,0.0,0.0,0.0,0.0,0.0,0.0,0.0,0.0,0.0,0.0,0.0,0.0,0.0,0.0,0.0,0.0,0.0,0.0,0.0,0.0,0.0,0.0,0.0,0.0,0.0,0.0,0.0,0.0,0.0,0.0,0.0,0.0,0.0,0.0,0.0,0.0,0.0,0.0,0.0,0.0,0.0,0.0,0.0,0.0,0.0,0.0,0.0,0.0,0.0,0.0,0.0,0.0,0.0,0.0,0.0,0.0,0.0,0.0,0.0,0.0,0.0,0.0,0.0,0.0,0.0,0.0,0.0,0.0,0.0,0.0,0.0,0.0,0.0,0.0,0.0,0.0,0.0,0.0,0.0,0.0,0.0,0.0,0.0,0.0,0.0,0.0,0.0,0.0,0.0,0.0,0.0,0.0,0.0,0.0,0.0,0.0,0.0,0.0,0.0,0.0,0.0,0.0,0.0,0.0,0.0,0.0,0.0,0.0,0.0,0.0,0.0,0.0,0.0,0.0,0.0,0.0,0.0,0.0,0.0,0.0,0.0,0.0,0.0,0.0,0.0,0.0,0.0,0.0,0.0,0.0,0.0,0.0,0.0,0.0,0.0,0.0,0.0,0.0,0.0,0.0,0.0,0.0,0.0,0.0,0.0,0.0,0.0,0.0,0.0,0.0,0.0,0.0,0.0,0.0,0.0,0.0,0.0,0.0,0.0,0.0,0.0,0.0,0.0,0.0,0.0,0.0,0.0,0.0,0.0,0.0,0.0,0.0,0.0,0.0,0.0,0.0,0.0,0.0,0.0,0.0,0.0,0.0,0.0,0.0,0.0,0.0,0.0,0.0,0.0,0.0,0.0,0.0,0.0,0.0,0.0,0.0,0.0,0.0,0.0,0.0,0.0,0.0,0.0,0.0,0.0,0.0,0.0,0.0,0.0,0.0,0.0,0.0,0.0,0.0,0.0,0.0,0.0,0.0,0.0,0.0,0.0,0.0,0.0,0.0,0.0,0.0,0.0,0.0,0.0,0.0,0.0,0.0,0.0,0.0,0.0,0.0,0.0,0.0,0.0,0.0,0.0,0.0,0.0,0.0,0.0,0.0,0.0,0.0,0.0,0.0,0.0,0.0,0.0,0.0,0.0,0.0,0.0,0.0,0.0,0.0,0.0,0.0,0.0,0.0,0.0,0.0,0.0,0.0,0.0,0.0,0.0,0.0,0.0,0.0,0.0,0.0,0.0,0.0,0.0,0.0,0.0,0.0,0.0,0.0,0.0,0.0,0.0,0.0,0.0,0.0,0.0,0.0,0.0,0.0,0.0,0.0,0.0,0.0,0.0,0.0,0.0,0.0,0.0,0.0,0.0,0.0,0.0,0.0,0.0,0.0,0.0,0.0,0.0,0.0,0.0,0.0,0.0,0.0,0.0,0.0,0.0,0.0,0.0,0.0,0.0,0.0,0.0,0.0,0.0,0.0,0.0,0.0,0.0,0.0,0.0,0.0,0.0,0.0,0.0,0.0,0.0,0.0,0.0,0.0,0.0,0.0,0.0,0.0,0.0,0.0,0.0,0.0,0.0,0.0,0.0,0.0,0.0,0.0,0.0,0.0,0.0,0.0,0.0,0.0,0.0,0.0,0.0,0.0,0.0,0.0,0.0,0.0,0.0,0.0,0.0,0.0,0.0,0.0,0.0,0.0,0.0,0.0,0.0,0.0,0.0,0.0,0.0,0.0,0.0,0.0,0.0,0.0,0.0,0.0,0.0,0.0,0.0,0.0,0.0,0.0,0.0,0.0,0.0,0.0,0.0,0.0,0.0,0.0,0.0,0.0,0.0,0.0,0.0,0.0,0.0,0.0,0.0,0.0,0.0,0.0,0.0,0.0,0.0,0.0,0.0,0.0,0.0,0.0,0.0,0.0,0.0,0.0,0.0,0.0,0.0,0.0,0.0,0.0,0.0,0.0,0.0,0.0,0.0,0.0,0.0,0.0,0.0,0.0,0.0,0.0,0.0,0.0,0.0,0.0,0.0,0.0,0.0,0.0,0.0,0.0,0.0,0.0,0.0,0.0,0.0,0.0,0.0,0.0,0.0,0.0,0.0,0.0,0.0,0.0,0.0,0.0,0.0,0.0,0.0,0.0,0.0,0.0,0.0,0.0,0.0,0.0,0.0,0.0,0.0,0.0,0.0,0.0,0.0,0.0,0.0,0.0,0.0,0.0,0.0,0.0,0.0,0.0,0.0,0.0,0.0,0.0,0.0,0.0,0.0,0.0,0.0,0.0,0.0,0.0,0.0,0.0,0.0,0.0,0.0,0.0,0.0,0.0,0.0,0.0,0.0,0.0,0.0,0.0,0.0,0.0,0.0,0.0,0.0,0.0,0.0,0.0,0.0,0.0,0.0,0.0,0.0,0.0,0.0,0.0,0.0,0.0,0.0,0.0,0.0,0.0,0.0,0.0,0.0,0.0,0.0,0.0,0.0,0.0,0.0,0.0,0.0,0.0,0.0,0.0,0.0,0.0,0.0,0.0,0.0,0.0,0.0,0.0,0.0,0.0,0.0,0.0,0.0,0.0,0.0,0.0,0.0,0.0,0.0,0.0,0.0,0.0,0.0,0.0,0.0,0.0,0.0,0.0,0.0,0.0,0.0,0.0,0.0,0.0,0.0,0.0,0.0,0.0,0.0,0.0,0.0,0.0,0.0,0.0,0.0,0.0,0.0,0.0,0.0,0.0,0.0,0.0,0.0,0.0,0.0,0.0,0.0,0.0,0.0,0.0,0.0,0.0,0.0,0.0,0.0,0.0,0.0,0.0,0.0,0.0,0.0,0.0,0.0,0.0,0.0,0.0,0.0,0.0,0.0,0.0,0.0,0.0,0.0,0.0,0.0,0.0,0.0,0.0,0.0,0.0,0.0,0.0,0.0,0.0,0.0,0.0,0.0,0.0,0.0,0.0,0.0,0.0,0.0,0.0,0.0,0.0,0.0,0.0,0.0,0.0,0.0,0.0,0.0,0.0,0.0,0.0,0.0,0.0,0.0,0.0,0.0,0.0,0.0,0.0,0.0,0.0,0.0,0.0,0.0,0.0,0.0,0.0,0.0,0.0,0.0,0.0,0.0,0.0,0.0,0.0,0.0,0.0,-1.9582,0.0,0.0,0.0,0.0,0.0,0.0,0.0,0.0,0.0,0.0,0.0,0.0,0.0,0.0,0.0,0.0,0.0,0.0,0.0,0.0,0.0,0.0,0.0,0.0,0.0,0.0,0.0,0.0,0.0,0.0,0.0,0.0,0.0,0.0,0.0,0.0,0.0,0.0,0.0,-2.6089,-2.6752,-2.7586,-2.8035,-2.8482,-2.8908,0.0,0.0,0.0,0.0,0.0,0.0,0.0,0.0,0.0,0.0,0.0,0.0,0.0,0.0,0.0,0.0,0.0,0.0,0.0,0.0,0.0,0.0,0.0,0.0,0.0,0.0,0.0,0.0,0.0,0.0,0.0,0.0,0.0,0.0,0.0,0.0,0.0,0.0,0.0,0.0,0.0,0.0,0.0,0.0,0.0,0.0,0.0,0.0,0.0,0.0,0.0,0.0,0.0,0.0,0.0,0.0,0.0,0.0,0.0,0.0,0.0,0.0,0.0,0.0,0.0,0.0,0.0,0.0,0.0,0.0,0.0,-2.0032,0.0,0.0,0.0,0.0,0.0,0.0,0.0,0.0,0.0,0.0,0.0,0.0,0.0,0.0,0.0,0.0,0.0,0.0,0.0,0.0,0.0,0.0,0.0,-2.5297,-2.5341,-2.5397,-2.5386,-2.541,0.0,0.0,0.0,0.0,0.0,0.0,0.0,-2.569,-2.5717,-2.5572,-2.6124,-2.7624,-3.005,-3.034,-3.0494,-3.0432,-2.9255,0.0,0.0,0.0,0.0,0.0,0.0,0.0,0.0,0.0,0.0,0.0,0.0,0.0,0.0,0.0,0.0,0.0,0.0,0.0,0.0,0.0,0.0,0.0,0.0,0.0,0.0,0.0,0.0,0.0,0.0,0.0,0.0,0.0,0.0,0.0,0.0,0.0,0.0,0.0,0.0,0.0,0.0,0.0,0.0,0.0,0.0,0.0,0.0,0.0,0.0,0.0,0.0,0.0,0.0,0.0,0.0,0.0,0.0,0.0,0.0,0.0,0.0,0.0,-2.5238,-2.5764,-2.6711,-2.6711,-2.6293,-2.5383,-2.2496,-2.0429,-1.9162,-1.9658,0.0,0.0,0.0,0.0,0.0,0.0,0.0,0.0,0.0,0.0,0.0,0.0,0.0,0.0,0.0,0.0,0.0,0.0,0.0,0.0,0.0,-2.5303,-2.5322,-2.5398,-2.5354,-2.5365,-2.5495,0.0,0.0,0.0,0.0,0.0,-2.541,-2.615,-2.6216,-2.5512,-2.7917,-3.0008,-3.1805,-3.3323,-3.4023,-3.3925,-3.1476,-3.0954,-3.1874,0.0,0.0,0.0,0.0,0.0,0.0,0.0,0.0,0.0,0.0,0.0,0.0,0.0,0.0,0.0,0.0,0.0,0.0,0.0,0.0,0.0,0.0,0.0,0.0,0.0,0.0,0.0,0.0,0.0,0.0,0.0,0.0,0.0,0.0,0.0,0.0,0.0,0.0,0.0,0.0,0.0,-2.4006,-2.3774,0.0,0.0,0.0,0.0,0.0,0.0,0.0,0.0,0.0,0.0,0.0,0.0,0.0,-2.662,-2.756,-2.7176,-2.7114,-2.7395,-2.7395,-2.7177,-2.6792,-2.6792,-2.6395,-2.5644,-2.5191,0.0,-2.2678,-2.2328,0.0,0.0,0.0,0.0,0.0,0.0,0.0,0.0,0.0,0.0,0.0,0.0,0.0,0.0,0.0,0.0,0.0,0.0,0.0,0.0,0.0,-2.6019,-2.6232,-2.6757,-2.7642,-2.7575,-2.6217,-2.7007,0.0,0.0,0.0,-2.5639,-2.6067,-2.6004,-2.631,-2.7023,-2.9177,-3.1369,-3.3587,-3.4837,-3.5696,-3.6106,-3.492,-3.3821,-3.2733,-3.1381,0.0,0.0,0.0,0.0,0.0,0.0,0.0,0.0,0.0,0.0,0.0,0.0,0.0,0.0,0.0,0.0,0.0,0.0,0.0,0.0,0.0,0.0,0.0,0.0,0.0,0.0,0.0,0.0,0.0,0.0,0.0,0.0,0.0,0.0,0.0,0.0,0.0,0.0,0.0,-2.5061,-2.4791,-2.4663,-2.5502,-2.5777,0.0,0.0,0.0,0.0,0.0,0.0,0.0,0.0,0.0,-2.6994,-2.7663,-2.8307,-2.8906,-2.8576,-2.8659,-2.9147,-2.9147,-2.9194,-2.9273,-2.9273,-2.8849,-2.8105,-2.7758,-2.6757,-2.5259,-2.3811,-2.2542,-2.149,0.0,0.0,0.0,0.0,-1.9416,-1.9405,0.0,0.0,0.0,0.0,0.0,0.0,0.0,0.0,0.0,0.0,0.0,0.0,-2.6802,-2.7121,-2.7678,-2.8775,-2.9602,-2.9365,-2.7673,-2.7962,-2.7431,-2.5717,-2.5686,-2.598,-2.6582,-2.6479,-2.7404,-2.9481,-3.1182,-3.3299,-3.572,-3.6794,-3.7771,-3.8591,-3.8373,-3.6941,-3.4591,-3.2448,-3.1646,-3.1699,0.0,0.0,0.0,0.0,0.0,0.0,0.0,0.0,0.0,0.0,0.0,0.0,0.0,0.0,0.0,0.0,0.0,0.0,0.0,0.0,0.0,0.0,0.0,0.0,0.0,0.0,0.0,0.0,0.0,0.0,0.0,0.0,0.0,0.0,0.0,0.0,0.0,-2.5742,-2.5758,-2.5065,-2.6522,-2.7056,0.0,0.0,0.0,0.0,0.0,0.0,-2.6299,-2.791,-2.8939,-2.918,-2.9563,-3.0039,-3.0608,-3.0305,-3.0563,-3.139,-3.1262,-3.146,-3.1944,-3.1795,-3.1331,-3.0564,-2.9911,-2.88,-2.73,-2.5147,-2.3431,-2.2191,-2.2345,-2.1841,-2.108,-2.1374,-2.1557,-2.1614,0.0,0.0,0.0,0.0,0.0,0.0,0.0,0.0,0.0,0.0,0.0,-2.5792,-2.7629,-2.853,-2.9665,-3.1352,-3.0063,-2.9467,-3.0154,-2.7255,-2.5813,-2.6505,-2.6549,-2.6568,-2.6601,-2.8249,-3.0372,-3.2942,-3.4755,-3.6582,-3.8435,-4.0073,-4.1303,-4.2104,-4.1286,-3.9955,-3.8112,-3.4727,-3.3749,-3.4276,-3.1758,0.0,0.0,0.0,0.0,0.0,0.0,0.0,0.0,0.0,0.0,0.0,0.0,0.0,0.0,0.0,0.0,0.0,0.0,0.0,0.0,0.0,0.0,0.0,0.0,0.0,0.0,0.0,0.0,0.0,0.0,0.0,0.0,0.0,0.0,0.0,0.0,0.0,0.0,-2.4174,-2.6368,0.0,0.0,0.0,0.0,-2.9059,-2.9145,-2.9523,-3.0368,-3.0506,-3.0903,-3.161,-3.1949,-3.278,-3.4141,-3.3757,-3.3882,-3.4556,-3.4121,-3.393,-3.3937,-3.3417,-3.2819,-3.2149,-3.1413,-3.0298,-2.8823,-2.6676,-2.4968,-2.3755,-2.4319,-2.3829,-2.2808,-2.3214,-2.3055,-2.2525,0.0,0.0,0.0,0.0,0.0,0.0,0.0,0.0,-2.4653,-2.4874,-2.5436,-2.6759,-2.9233,-3.0275,-3.1679,-3.3942,-3.3577,-3.266,-3.1327,-3.0096,-2.8832,-2.7486,-2.7448,-2.7964,-2.9082,-3.0809,-3.2999,-3.5716,-3.6927,-3.8713,-4.1053,-4.1659,-4.2402,-4.3222,-4.2907,-4.2435,-4.1612,-3.7608,-3.5438,-3.4477,-3.1857,-3.0946,0.0,0.0,0.0,0.0,0.0,0.0,0.0,0.0,0.0,0.0,0.0,0.0,0.0,0.0,0.0,0.0,0.0,0.0,0.0,0.0,0.0,0.0,0.0,0.0,0.0,0.0,0.0,0.0,0.0,0.0,0.0,0.0,0.0,0.0,0.0,0.0,0.0,-2.9387,-3.0454,0.0,-3.0216,-2.9964,-2.9954,-3.0213,-3.1126,-3.2023,-3.2835,-3.3783,-3.4421,-3.468,-3.4813,-3.4981,-3.5165,-3.5032,-3.4894,-3.4793,-3.4617,-3.4545,-3.4521,-3.4034,-3.3196,-3.2072,-3.1466,-3.0393,-2.9082,-2.8798,-2.7308,-2.5237,-2.5453,-2.4961,-2.4182,-2.4775,-2.4564,-2.3963,0.0,0.0,0.0,0.0,0.0,0.0,0.0,0.0,-2.4653,-2.4874,-2.5908,-2.7686,-3.0534,-3.2115,-3.4,-3.6565,-3.5738,-3.4468,-3.3058,-3.1371,-2.9794,-2.8376,-2.8868,-2.9877,-3.1347,-3.3307,-3.5364,-3.7536,-3.8711,-4.0346,-4.2402,-4.3008,-4.3594,-4.4141,-4.4138,-4.4135,-4.3921,-4.0794,-3.8134,-3.5805,-3.3496,-3.2702,-3.2664,0.0,0.0,0.0,0.0,0.0,0.0,0.0,0.0,0.0,0.0,0.0,0.0,0.0,0.0,0.0,0.0,0.0,0.0,0.0,0.0,0.0,0.0,0.0,0.0,0.0,0.0,0.0,0.0,0.0,0.0,0.0,0.0,0.0,0.0,0.0,-3.1376,-3.217,-3.3312,-3.3728,-3.2978,-3.2492,-3.2317,-3.2559,-3.3749,-3.4783,-3.5597,-3.6542,-3.6956,-3.6715,-3.6697,-3.6431,-3.5854,-3.5832,-3.5661,-3.5305,-3.5144,-3.5052,-3.5045,-3.4407,-3.3582,-3.2676,-3.1914,-3.0907,-2.984,-3.0338,-2.9153,-2.7083,-2.732,-2.6766,-2.589,-2.6329,-2.6156,-2.5633,0.0,0.0,0.0,0.0,0.0,0.0,0.0,-2.4794,-2.4742,-2.4881,-2.6382,-2.8543,-3.1424,-3.4,-3.6538,-3.9092,-3.6206,-3.4584,-3.5404,-3.0756,-2.8357,-2.9184,-3.0841,-3.2216,-3.323,-3.5709,-3.7507,-3.855,-4.0248,-4.1585,-4.2598,-4.4258,-4.5078,-4.5117,-4.5116,-4.5115,-4.5037,-4.4189,-4.1876,-3.863,-3.6813,-3.5564,-3.4588,0.0,0.0,0.0,0.0,0.0,0.0,0.0,0.0,0.0,0.0,0.0,0.0,0.0,0.0,0.0,0.0,0.0,0.0,0.0,0.0,0.0,0.0,0.0,0.0,0.0,0.0,0.0,0.0,0.0,0.0,0.0,0.0,0.0,-2.92,-3.2684,-3.4402,-3.2143,-3.4632,-3.5633,-3.3382,-3.4458,-3.5632,-3.6374,-3.715,-3.7892,-3.8629,-3.8646,-3.8323,-3.7599,-3.7564,-3.7146,-3.6353,-3.6335,-3.6318,-3.6301,-3.5854,-3.5616,-3.5594,-3.461,-3.4134,-3.4061,-3.2857,-3.188,-3.1176,-3.1207,-3.0361,-2.9177,-2.9911,-2.9273,-2.794,-2.7953,-2.7832,-2.7447,0.0,0.0,0.0,0.0,0.0,0.0,0.0,-2.4794,-2.4742,-2.4881,-2.6902,-2.9415,-3.225,-3.4846,-3.7161,-3.913,-3.6757,-3.4988,-3.4584,-3.1525,-3.0383,-3.185,-3.2428,-3.3992,-3.6733,-3.8146,-3.9913,-4.2094,-4.2624,-4.4008,-4.6172,-4.6016,-4.6621,-4.7832,-4.7831,-4.7478,-4.6869,-4.6632,-4.5261,-4.2932,-3.9334,-3.736,-3.6325,0.0,0.0,0.0,0.0,0.0,0.0,0.0,0.0,0.0,0.0,0.0,0.0,0.0,0.0,0.0,0.0,0.0,0.0,0.0,0.0,0.0,0.0,0.0,0.0,0.0,0.0,0.0,0.0,0.0,0.0,0.0,0.0,-3.3623,-3.3513,-3.4931,-3.6501,-3.7819,-3.8546,-3.8911,-3.8842,-3.8126,-3.8109,-3.9202,-3.9158,-3.9439,-4.0239,-3.9698,-3.9301,-3.9094,-3.8577,-3.7944,-3.7185,-3.7163,-3.687,-3.6301,-3.6156,-3.6114,-3.6092,-3.5481,-3.4883,-3.4342,-3.3282,-3.212,-3.0978,-3.1133,-3.0361,-2.9177,-2.9911,-2.9604,-2.8784,-2.8768,-2.8453,-2.7756,0.0,0.0,0.0,0.0,0.0,0.0,0.0,-2.4599,-2.4684,-2.4389,-2.6883,-2.9377,-3.1122,-3.3583,-3.5526,-3.6526,-3.4622,-3.2981,-3.2128,-3.137,-3.1573,-3.2981,-3.445,-3.6187,-3.8202,-3.982,-4.1416,-4.2965,-4.3747,-4.5122,-4.7026,-4.7265,-4.793,-4.8926,-4.9276,-4.8962,-4.814,-4.8139,-4.7355,-4.5847,-4.2971,-4.0879,-3.9101,-3.6151,-3.4959,-3.4665,-3.3378,-3.3325,-3.3463,-3.1035,0.0,0.0,0.0,0.0,0.0,0.0,0.0,0.0,0.0,0.0,0.0,0.0,0.0,0.0,0.0,0.0,0.0,0.0,0.0,0.0,0.0,0.0,0.0,0.0,-3.5504,-3.7239,-3.8208,-3.8361,-3.914,-4.1198,-4.1284,-4.1254,-4.1524,-4.0679,-4.0397,-4.111,-4.0714,-4.0654,-4.1123,-4.0539,-4.0043,-3.9715,-3.9267,-3.8698,-3.7978,-3.765,-3.7271,-3.6801,-3.6456,-3.6301,-3.628,-3.5815,-3.5357,-3.4928,-3.4117,-3.3012,-3.1808,-3.2232,-3.1451,0.0,0.0,0.0,0.0,0.0,-2.8695,-2.7914,0.0,0.0,0.0,0.0,0.0,0.0,0.0,-2.4365,-2.4637,-2.3866,-2.6505,-2.8602,-2.9046,-3.1218,-3.2699,-3.2872,-3.1365,-3.0102,-2.944,-3.0846,-3.2298,-3.3616,-3.6584,-3.8322,-3.8585,-4.0999,-4.2283,-4.2354,-4.4157,-4.5483,-4.638,-4.8102,-4.8945,-4.9082,-4.9941,-4.9862,-4.9041,-4.9058,-4.849,-4.7513,-4.6648,-4.4732,-4.2057,-3.8926,-3.8025,-3.8241,-3.66,-3.5588,-3.4896,-3.3806,0.0,0.0,0.0,0.0,0.0,0.0,0.0,0.0,0.0,0.0,0.0,0.0,0.0,0.0,0.0,0.0,0.0,0.0,0.0,0.0,0.0,0.0,0.0,0.0,-3.8359,-4.0285,-4.2767,-4.2393,-4.2169,-4.294,-4.2955,-4.2749,-4.2318,-4.2218,-4.2218,-4.2259,-4.1842,-4.1561,-4.1494,0.0,0.0,0.0,0.0,-3.9474,-3.8715,-3.8082,-3.7741,-3.7655,-3.6861,-3.6464,-3.6443,-3.5954,-3.5722,-3.57,-3.5144,-3.4244,-3.3233,-3.3828,-3.2933,-3.1107,-3.0441,-2.9753,-2.9098,-2.9098,-2.8719,-2.811,0.0,0.0,0.0,0.0,0.0,0.0,0.0,-2.4495,-2.4997,-2.482,-2.6009,-2.7427,-2.8937,-3.0179,-3.1423,-3.2776,-3.1365,-3.0633,-3.1154,-3.157,-3.3418,-3.7042,-3.7852,-3.8889,-4.0364,-4.2194,-4.3177,-4.3257,-4.5052,-4.6399,-4.7278,-4.8376,-4.9277,-4.998,-5.0801,-5.0703,-4.9959,-4.9941,-4.9042,-4.7517,-4.6654,-4.4738,-4.2258,-4.0885,-3.9185,-3.7428,-3.6373,-3.6781,-3.7477,-3.5131,-3.5012,-3.5382,-3.2893,-3.0535,0.0,0.0,0.0,0.0,0.0,0.0,0.0,0.0,0.0,0.0,0.0,0.0,0.0,0.0,0.0,0.0,0.0,0.0,0.0,-3.9156,-4.0974,-4.29,-4.5268,-4.5455,-4.4993,-4.407,-4.3338,-4.2863,-4.2769,-4.2418,-4.2358,-4.2749,-4.2338,-4.1906,-4.1516,-4.1423,-4.1168,-4.067,-4.067,-4.0308,-3.9491,-3.9444,-3.9126,-3.8542,0.0,0.0,-3.7495,-3.6801,-3.6499,-3.6461,-3.5924,-3.5198,-3.4346,-3.4062,-3.2764,-3.0903,-3.0402,-2.9753,-2.9098,-2.9098,-2.9019,-2.8798,0.0,0.0,0.0,0.0,0.0,0.0,0.0,-2.3913,-2.4454,-2.4454,-2.5581,-2.6609,-2.7149,-2.7986,-2.8654,-2.9058,-2.8327,-2.8777,-3.0956,-3.2315,-3.4795,-3.869,-3.9276,-4.0328,-4.2102,-4.343,-4.4117,-4.415,-4.6438,-4.7761,-4.8177,-4.9119,-5.0234,-5.1465,-5.1875,-5.207,-5.207,-5.164,-5.0703,-4.9394,-4.8103,-4.6032,-4.3552,-4.2255,-4.0689,-3.9089,-3.825,-3.8228,-3.8322,-3.6555,-3.62,-3.6178,-3.4379,-3.2581,-3.0888,0.0,0.0,0.0,0.0,0.0,0.0,0.0,0.0,0.0,0.0,0.0,0.0,0.0,0.0,-3.6306,0.0,0.0,-3.9886,-4.1839,-4.3896,-4.5512,-4.6279,-4.6728,-4.6664,-4.5883,-4.5059,-4.4382,-4.3944,-4.3706,-4.3669,-4.3798,-4.3082,-4.2884,-4.3429,-4.2353,-4.1798,-4.2001,-4.1395,-4.0851,-4.0452,-4.0157,-3.9815,-3.9433,-3.8338,-3.8011,-3.8359,-3.7206,-3.6893,-3.7206,-3.6578,-3.5912,-3.5258,-3.4723,-3.3665,-3.2317,-3.1487,-3.0312,-2.9098,-2.9098,-2.9098,-2.9004,0.0,0.0,0.0,0.0,0.0,0.0,0.0,-2.308,-2.3678,-2.3831,-2.4927,-2.5592,-2.5336,-2.5788,-2.589,-2.5346,-2.5471,-2.7046,-3.0534,-3.2822,-3.5684,-3.9346,-4.0332,-4.1548,-4.3107,-4.4218,-4.4867,-4.5043,-4.762,-4.8842,-4.8821,-4.9763,-5.0996,-5.2441,-5.2617,-5.3183,-5.3945,-5.3066,-5.2109,-5.1035,-4.9511,-4.7226,-4.459,-4.3197,-4.1903,-4.073,-3.9755,-3.8833,-3.7989,-3.7271,-3.665,-3.6029,-3.5254,-3.4232,-3.3,-3.1269,-2.9401,0.0,0.0,0.0,0.0,0.0,0.0,0.0,0.0,0.0,-3.6592,-3.7053,-3.7802,-3.8831,-4.0424,-4.1375,-4.237,-4.3779,-4.5955,-4.7181,-4.6382,-4.7057,-4.7509,-4.7254,-4.6462,-4.5616,-4.4773,-4.4732,-4.4697,-4.4541,-4.3722,-4.3743,-4.4888,-4.3162,-4.2359,-4.2849,-4.1868,-4.1283,-4.1209,-4.064,-4.0349,-4.0331,-3.882,-3.851,-3.9225,-3.7533,-3.7167,-3.7829,-3.7056,-3.6485,-3.6037,-3.5481,-3.4695,-3.3745,-3.2677,-3.1099,-2.9403,-2.919,-2.9098,-2.9019,0.0,0.0,0.0,0.0,0.0,0.0,0.0,0.0,-2.3183,-2.3976,-2.3568,-2.3741,-2.5154,-2.4755,-2.4625,-2.525,-2.6068,-2.7996,-3.1427,-3.2656,-3.5118,-3.9327,-4.0332,-4.1257,-4.2218,-4.3865,-4.5121,-4.5942,-4.7869,-4.8805,-4.8821,-4.9763,-5.0683,-5.1582,-5.2344,-5.3183,-5.3945,-5.3066,-5.1777,-5.0254,-4.9296,-4.6874,-4.3828,-4.3631,-4.2087,-3.9821,-3.8178,-3.7023,-3.6277,-3.618,-3.6549,-3.7035,-3.6862,-3.5622,-3.3901,-3.2169,0.0,-2.8088,-2.8876,-2.9602,0.0,-3.4115,-3.4564,-3.536,0.0,0.0,-4.0114,-4.0758,-4.1542,-4.203,-4.1845,-4.2492,-4.3226,-4.3884,-4.5472,-4.6345,-4.5547,-4.6754,-4.7424,-4.6684,-4.5734,-4.482,-4.4009,-4.3917,-4.3917,-4.39,-4.3791,-4.3621,-4.3378,-4.3105,-4.2675,-4.2048,-4.1913,-4.1622,-4.1192,-4.123,-4.1241,-4.1223,-3.9812,-3.9543,-4.0249,-3.8003,-3.7371,-3.8018,-3.7163,-3.6751,-3.6652,-3.6058,-3.4989,-3.3669,-3.305,-3.1917,-3.0481,-2.9477,-2.9098,-2.9098,0.0,0.0,0.0,0.0,0.0,0.0,0.0,0.0,0.0,-2.3918,-2.3783,-2.4009,-2.5173,-2.5,-2.4928,-2.5269,-2.5688,-2.7615,-3.1543,-3.2612,-3.5242,-4.0042,-4.0603,-4.1886,-4.4194,-4.4584,-4.5434,-4.6796,-4.8179,-4.8608,-4.812,-4.9531,-5.0625,-5.1445,-5.2305,-5.3476,-5.4668,-5.3281,-5.2305,-5.1484,-4.9648,-4.7129,-4.4297,-4.2812,-4.0312,-3.7597,-3.7381,-3.6401,0.0,-3.5245,-3.5475,-3.5738,-3.5678,-3.5139,-3.4156,-3.2324,-3.1028,0.0,-2.9913,0.0,0.0,0.0,-3.7058,-3.9315,-4.197,-4.3028,-4.3658,-4.4278,-4.4687,-4.4944,-4.5067,-4.4939,-4.4853,0.0,-4.6333,-4.6925,-4.5504,-4.6271,-4.6513,-4.5194,-4.4257,-4.3934,-4.4515,-4.4638,-4.4621,-4.4506,-4.4142,-4.4221,-4.4922,-4.3884,-4.336,-4.3535,-4.2812,-4.2221,-4.1796,-4.1839,-4.1744,-4.1498,-3.9999,-3.9726,-4.0414,-3.8078,-3.7183,-3.7444,-3.7071,-3.6928,-3.6908,-3.6635,-3.5888,-3.4765,-3.3844,-3.2822,-3.1675,-3.0125,-2.9579,-2.9512,0.0,0.0,0.0,0.0,0.0,0.0,0.0,0.0,0.0,0.0,-2.3744,-2.4144,-2.5192,-2.5308,-2.5308,-2.5341,-2.5149,-2.6665,-3.05,-3.1569,-3.4257,-3.9191,-3.9843,-4.1661,-4.5045,-4.4652,-4.525,-4.6971,-4.7774,-4.7831,-4.7266,-4.8789,-4.9922,-5.0762,-5.1855,-5.3183,-5.4473,-5.2988,-5.207,-5.1426,-4.8867,-4.6133,-4.334,-4.1016,-3.8105,-3.5332,-3.5722,-3.4763,-3.3335,-3.3568,-3.3805,-3.4019,-3.4216,-3.4263,-3.4027,-3.2873,-3.2522,-3.2347,-3.1632,0.0,0.0,-3.7058,-4.0058,-4.3085,-4.3951,-4.5259,-4.6357,-4.6578,-4.6605,-4.657,-4.6388,-4.6042,-4.5615,-4.5098,-4.6365,-4.6866,-4.5273,-4.5294,-4.5026,-4.3819,-4.276,-4.2656,-4.3984,-4.4419,-4.4552,-4.4404,-4.4149,-4.4493,-4.5616,-4.4323,-4.3802,-4.4322,-4.3451,-4.2772,-4.238,-4.2145,-4.1854,-4.1431,-3.9876,-3.9497,-4.0116,-3.8184,-3.72,-3.7007,-3.7007,-3.7007,-3.7007,-3.7007,-3.6369,-3.5362,-3.4688,-3.3649,-3.2425,-3.137,-3.0589,-2.994,0.0,0.0,0.0,0.0,0.0,0.0,0.0,0.0,0.0,0.0,0.0,0.0,0.0,-2.5308,-2.5341,-2.5394,-2.4626,-2.5265,-2.7947,-2.8921,-3.1333,-3.5665,-3.7406,-3.9875,-4.3305,-4.3416,-4.4338,-4.6137,-4.6228,-4.63,-4.6367,-4.7266,-4.8144,-4.9043,-5.0703,-5.1933,-5.2715,-5.1816,-5.0508,-4.8789,-4.6172,-4.3086,-3.9863,-3.8086,-3.5781,-3.3379,-3.2558,-3.1171,-2.9882,-3.0739,-3.1538,-3.2338,-3.3178,-3.3399,0.0,-3.4218,-3.4337,-3.4199,0.0,0.0,-3.8527,-4.0981,-4.3566,-4.571,-4.6586,-4.7432,-4.7808,-4.7038,-4.6904,-4.6301,-4.4362,-4.4664,-4.4868,-4.3739,-4.4753,-4.5364,-4.4552,-4.3565,-4.289,-4.2835,-4.1441,-4.0791,0.0,-4.2426,-4.2872,-4.2872,-4.3578,-4.4023,-4.4079,-4.4008,-4.3812,-4.346,-4.3388,-4.3195,-4.2791,-4.2012,-4.1463,-4.1112,-3.9502,-3.8949,-3.9301,-3.8441,-3.7672,-3.7007,-3.7007,-3.7007,-3.7007,-3.7007,-3.6111,-3.4793,-3.5494,-3.437,-3.2512,-3.344,-3.23,-3.0293,0.0,0.0,0.0,0.0,0.0,0.0,0.0,0.0,0.0,0.0,0.0,0.0,0.0,0.0,0.0,0.0,-2.4606,-2.4956,-2.7,-2.7959,-2.9596,-3.2203,-3.5027,-3.787,-4.0719,-4.0891,-4.2064,-4.4377,-4.3377,-4.3163,-4.373,-4.4609,-4.5488,-4.6367,-4.7519,-4.8496,-4.9258,-4.8398,-4.7363,-4.6133,-4.4082,-4.1562,-3.8711,-3.582,-3.3476,-3.1543,0.0,-2.9961,-3.0508,-3.08,-3.1074,-3.1249,-3.0976,-3.1267,-3.196,-3.3256,-3.4383,-3.5455,-3.6511,0.0,-4.1871,-4.3885,-4.5823,-4.7644,-4.9086,-4.9183,-4.8721,-4.7875,-4.5932,-4.4002,-4.2741,-4.1831,-4.1462,-4.2025,-4.3916,-4.5178,-4.4726,-4.4701,-4.4106,-4.2459,-4.1642,0.0,0.0,0.0,0.0,-4.276,-4.3039,-4.3448,-4.3968,-4.4005,-4.3939,-4.3793,-4.3793,-4.3352,-4.2409,-4.2118,-4.1541,-4.0616,-3.9313,-3.8482,-3.8082,-3.76,-3.7235,-3.7007,-3.7007,-3.7007,-3.7007,-3.7007,-3.6373,-3.546,-3.5704,-3.4704,-3.3178,-3.3505,-3.3012,-3.2085,0.0,0.0,0.0,0.0,0.0,0.0,0.0,0.0,0.0,0.0,0.0,0.0,0.0,0.0,0.0,0.0,0.0,-2.461,-2.573,-2.662,-2.7735,-2.9143,-3.2203,-3.4946,-3.7198,-3.7335,-3.8345,-4.0324,-3.9025,-3.8651,-3.9199,-4.0078,-4.0781,-4.1387,-4.2871,-4.3867,-4.4355,-4.3789,-4.2871,-4.1601,-3.957,-3.7207,-3.4648,-3.207,-3.0449,0.0,-2.8242,-2.8769,-3.0019,-3.0332,-3.0449,-3.0391,-3.0137,-3.1054,-3.2411,-3.3382,-3.527,-3.7485,-3.9412,-4.2398,-4.5301,-4.6703,-4.8738,-5.0442,-5.0654,-5.0029,-4.8817,-4.674,-4.4355,-4.2008,-3.9923,-3.8911,-3.8777,-3.9998,-4.1734,-4.3323,-4.4334,-4.4222,-4.3766,-4.2991,-4.1958,-4.1194,0.0,0.0,0.0,-4.2742,-4.3076,-4.3448,-4.3968,-4.4005,-4.4005,-4.4005,-4.4005,-4.3487,-4.2412,-4.2152,-4.1289,-3.9826,-3.8923,-3.8241,-3.7773,-3.7431,-3.7261,-3.7206,-3.7145,-3.7066,-3.7007,-3.7007,-3.6531,-3.5827,-3.6127,-3.5302,-3.3985,-3.4565,-3.4296,-3.3496,0.0,0.0,0.0,0.0,0.0,0.0,0.0,0.0,0.0,0.0,0.0,0.0,0.0,0.0,0.0,0.0,0.0,0.0,-2.42,-2.5024,-2.5805,-2.6478,-2.9021,-3.1185,-3.2834,-3.292,-3.3401,-3.4339,-3.3466,-3.3094,-3.3223,-3.4043,-3.4453,-3.4629,-3.7148,-3.8262,-3.8262,-3.8262,-3.7285,-3.5527,-3.3008,-3.0488,-2.8144,-2.7266,-2.6934,-2.6934,-2.6934,-2.7461,-2.8301,-2.9277,-2.9687,0.0,-3.0762,-3.2709,-3.4672,-3.4745,-3.714,-4.0308,-4.2786,-4.5958,-4.8748,-4.9505,-5.2011,-5.3658,-5.1203,-4.9788,-4.7875,-4.3797,-4.2104,-4.0115,0.0,0.0,-3.6834,-3.7834,-3.8588,-4.0225,-4.3587,-4.2552,-4.2233,0.0,0.0,0.0,0.0,0.0,0.0,-4.2831,0.0,-4.3949,-4.402,-4.402,-4.402,-4.402,-4.402,-4.363,-4.2813,-4.2035,-4.0717,-3.8888,-3.838,-3.8198,-3.8307,-3.7981,-3.7756,-3.7614,-3.743,-3.7203,-3.7048,-3.7009,-3.6568,-3.5952,-3.6708,-3.6076,-3.4916,-3.641,-3.6023,-3.4493,0.0,0.0,0.0,0.0,0.0,0.0,0.0,0.0,0.0,0.0,0.0,0.0,0.0,0.0,0.0,0.0,0.0,0.0,-2.4315,-2.503,-2.5027,-2.3993,-2.6442,-2.8037,-2.8429,-2.9116,-2.9909,-3.0806,-2.9972,-2.9921,-3.0566,-3.0801,-3.125,-3.1934,-3.3242,-3.3828,-3.3828,-3.3828,-3.3203,-3.2031,-3.0078,-2.8516,-2.7246,-2.6367,-2.6035,-2.6035,-2.6035,-2.6172,-2.6699,0.0,0.0,0.0,0.0,-3.4082,-3.5988,-3.7776,-4.0739,-4.3977,-4.6348,-4.9501,-5.2149,-5.2297,-5.2037,-5.1393,-5.0038,-4.6651,-4.3319,-4.1535,-3.7969,-3.4834,0.0,0.0,0.0,-3.7614,-3.9807,0.0,-4.5736,-4.6138,0.0,-4.6064,0.0,-4.4499,-4.3816,-4.376,0.0,0.0,-4.3427,-4.3495,-4.4188,-4.4222,-4.4222,-4.4222,-4.4222,-4.3797,-4.2972,-4.1572,-4.0626,-4.0142,-3.9117,-3.864,-3.8666,-3.8326,-3.8145,-3.8112,-3.786,-3.7721,-3.765,-3.7337,-3.7097,-3.6919,-3.6978,-3.6391,-3.5583,-3.5969,-3.5864,-3.5371,0.0,0.0,0.0,0.0,0.0,0.0,0.0,0.0,0.0,0.0,0.0,0.0,0.0,0.0,0.0,0.0,0.0,0.0,0.0,-2.4878,-2.4783,-2.3076,-2.5137,-2.6145,-2.5751,-2.6257,-2.6777,-2.7255,-2.6815,-2.6836,-2.7324,-2.7715,-2.8144,-2.8652,-2.9531,-2.9707,-2.9355,-2.9355,-2.8633,0.0,0.0,-2.5195,-2.4746,-2.4609,-2.4805,-2.5176,-2.5566,0.0,0.0,0.0,0.0,-3.4668,-3.5449,-3.7129,-3.9295,-4.1764,0.0,-4.7042,-4.9453,-5.2034,-5.3844,-5.2986,-5.2063,-5.0741,-4.8354,-4.477,-4.104,-3.79,-3.4973,0.0,0.0,0.0,0.0,0.0,0.0,0.0,-4.4234,-4.5977,-4.681,0.0,-4.6437,0.0,-4.4789,-4.4599,-4.4498,0.0,-4.3818,-4.3707,-4.4266,-4.43,-4.43,-4.43,-4.43,-4.3922,-4.3091,-4.1436,-4.0627,-4.068,-3.9574,-3.9082,-3.9137,-3.8803,-3.8621,-3.8557,-3.8307,-3.8097,-3.7876,-3.7667,-3.7718,-3.7943,-3.7831,-3.772,-3.7596,-3.7242,-3.7061,-3.6877,0.0,0.0,0.0,0.0,0.0,0.0,0.0,0.0,0.0,0.0,0.0,0.0,0.0,0.0,0.0,0.0,0.0,0.0,0.0,0.0,-2.4716,-2.3086,-2.4565,-2.5066,-2.427,-2.4247,-2.4232,-2.4238,-2.4238,-2.4238,-2.4258,-2.5019,-2.5352,-2.5391,-2.6269,-2.623,-2.5527,-2.5527,-2.4687,-2.3262,-2.2285,-2.1973,-2.2148,0.0,-2.3652,-2.4512,-2.5391,0.0,0.0,0.0,-3.4219,-3.6816,-3.8555,-4.0859,-4.3398,-4.5821,-4.7645,-4.9418,-5.1906,-5.3718,-5.4479,-5.2752,-5.197,-5.0546,-4.6422,-4.3169,-3.95,-3.4192,0.0,-3.1564,-2.8763,-2.8874,-3.0239,-3.2902,0.0,-3.7283,-4.1656,-4.4241,-4.5987,-4.6752,-4.682,-4.6377,-4.5246,-4.4856,-4.4726,-4.4751,-4.4467,-4.431,-4.4329,-4.4329,-4.4329,-4.4329,-4.4329,-4.4021,-4.3386,-4.1776,-4.0961,-4.0947,-4.0137,-3.9757,-3.9746,-3.9464,-3.9314,-3.93,-3.8977,-3.8672,-3.8405,-3.8355,-3.8599,-3.9046,-3.9027,-3.9419,-3.9917,-3.922,-3.8766,-3.8452,0.0,0.0,0.0,0.0,0.0,0.0,0.0,0.0,0.0,0.0,-2.1049,-2.0663,0.0,0.0,0.0,0.0,0.0,0.0,0.0,0.0,0.0,-2.3124,-2.4056,-2.4237,-2.3437,-2.3417,-2.3418,-2.3418,-2.3359,-2.3359,-2.3418,-2.3555,-2.3594,-2.3594,-2.4453,-2.4766,-2.4629,-2.4629,-2.4453,-2.4062,-2.2519,-2.2324,-2.2988,-2.3125,0.0,0.0,0.0,0.0,0.0,0.0,-3.5878,-3.9512,-4.1211,-4.3535,-4.5976,-4.7753,-4.8988,-5.034,-5.2879,-5.4255,-5.4733,-5.3685,-5.1293,-4.8258,-4.4633,-3.9656,0.0,0.0,0.0,-2.9133,-2.9988,-3.0206,0.0,-3.461,0.0,0.0,0.0,0.0,-4.6337,0.0,0.0,0.0,0.0,0.0,0.0,0.0,-4.4973,-4.4801,-4.4468,-4.4473,-4.4473,-4.4473,-4.4473,-4.4398,-4.428,-4.3323,-4.2479,-4.1798,-4.1622,-4.1203,-4.0591,-4.0521,-4.087,-4.1405,-4.0491,0.0,-4.1,-4.0604,-4.0402,-4.0274,-4.0167,-4.0074,-3.9971,-3.9846,-3.9362,-3.8825,0.0,0.0,0.0,0.0,0.0,0.0,0.0,-2.0602,-2.0914,-2.1792,-2.1541,-2.1289,-2.1288,-2.1249,-2.1211,0.0,0.0,0.0,0.0,0.0,0.0,0.0,0.0,0.0,-2.3828,-2.3828,-2.3828,-2.3828,0.0,-2.3789,-2.3828,-2.4297,-2.4473,-2.4473,-2.4883,-2.4824,-2.4394,-2.4394,-2.4141,-2.3613,-2.2383,-2.2676,-2.3769,0.0,0.0,0.0,0.0,0.0,0.0,0.0,-3.4666,-3.8476,-4.1971,-4.4569,-4.6719,-4.8845,-5.0071,-5.1274,-5.3847,-5.4807,-5.4775,-5.3412,-4.9484,-4.5165,-4.2156,0.0,0.0,0.0,-2.9635,-2.8882,-2.9236,0.0,0.0,0.0,0.0,0.0,0.0,0.0,0.0,0.0,0.0,0.0,0.0,0.0,0.0,0.0,-4.5213,-4.5015,-4.4681,-4.4565,-4.4501,-4.4501,-4.4501,-4.4501,-4.4501,-4.3707,-4.3088,-4.2675,-4.2211,-4.1798,-4.1423,-4.1423,-4.1629,-4.1972,-4.1461,-4.1409,-4.1688,-4.1456,-4.1449,-4.1574,-4.1525,-4.168,-4.1868,-4.1449,-4.0996,-4.049,0.0,0.0,0.0,0.0,0.0,0.0,0.0,-2.076,-2.1112,-2.1815,-2.1894,-2.1894,-2.1892,-2.1289,-2.0801,0.0,0.0,0.0,0.0,0.0,0.0,0.0,0.0,0.0,0.0,0.0,0.0,0.0,-2.4121,0.0,0.0,0.0,0.0,0.0,-2.5508,-2.5137,-2.4668,-2.4472,-2.4101,0.0,0.0,-2.3066,0.0,0.0,0.0,0.0,0.0,0.0,0.0,0.0,-3.2417,-3.5425,-4.0032,-4.3315,-4.5877,-4.7928,-4.9511,-5.1094,-5.3483,-5.4394,-5.4191,-5.2213,-4.7453,-4.2546,-3.9811,-3.5389,0.0,0.0,-2.8873,-2.8991,-2.8257,0.0,0.0,0.0,0.0,0.0,0.0,0.0,0.0,0.0,0.0,0.0,0.0,0.0,0.0,0.0,-4.5371,-4.5161,-4.4896,-4.4681,-4.456,-4.456,-4.4524,-4.4501,-4.4501,-4.3876,-4.3388,-4.3013,-4.268,-4.2342,-4.2004,-4.2192,-4.2361,-4.253,-4.2342,-4.2299,-4.2296,-4.2296,-4.2504,-4.2847,-4.2847,-4.3188,-4.3621,-4.2991,-4.2558,-4.211,0.0,0.0,0.0,0.0,0.0,0.0,0.0,-2.1268,-2.1815,-2.1892,-2.1893,-2.1894,-2.1893,-2.1836,-2.1465,0.0,0.0,0.0,0.0,0.0,0.0,0.0,0.0,0.0,0.0,0.0,0.0,0.0,0.0,0.0,0.0,0.0,0.0,0.0,0.0,0.0,-2.5525,-2.4744,0.0,0.0,0.0,0.0,0.0,0.0,0.0,0.0,0.0,0.0,0.0,0.0,0.0,-3.0673,-3.3479,-3.8213,-4.2809,-4.3043,0.0,0.0,-5.0175,-5.1777,-5.2324,-4.9843,-4.5838,-4.164,-3.8281,0.0,0.0,-2.9687,-2.8862,-2.8283,-2.8215,-2.7544,-2.7576,0.0,0.0,-3.1107,0.0,0.0,0.0,0.0,0.0,0.0,0.0,0.0,0.0,0.0,-4.5594,-4.5381,-4.5161,-4.4896,-4.477,-4.477,-4.4613,-4.4501,-4.4501,-4.4426,-4.3618,-4.2136,-4.3581,-4.3468,-4.2023,-4.2825,-4.3576,-4.4219,-4.3501,-4.3581,0.0,-4.4229,-4.4138,-4.3949,-4.3949,-4.3865,-4.3695,-4.3621,-4.3104,-4.2551,0.0,0.0,0.0,0.0,0.0,0.0,-2.0605,-2.0898,-2.1308,-2.1835,-2.1894,-2.1894,-2.1894,-2.1894,-2.1543,-2.0684,0.0,0.0,0.0,0.0,0.0,0.0,0.0,0.0,0.0,0.0,-2.3102,-2.3101,-2.3102,0.0,0.0,0.0,0.0,0.0,0.0,0.0,0.0,0.0,0.0,0.0,0.0,0.0,0.0,0.0,0.0,0.0,0.0,0.0,0.0,0.0,0.0,0.0,-2.8553,-3.146,0.0,0.0,-4.2181,-4.5073,-4.7887,-4.986,-5.0641,-4.861,-4.408,-3.947,-3.7068,0.0,-2.9082,-2.8203,-2.7734,-2.7476,-2.7429,-2.6734,-2.6711,-2.8345,-2.7768,0.0,0.0,0.0,0.0,0.0,0.0,0.0,0.0,0.0,0.0,0.0,-4.5794,-4.5718,-4.563,-4.5246,-4.5041,-4.5041,-4.4969,-4.4838,-4.4675,-4.4694,-4.4282,-4.3506,-4.4182,-4.39,-4.2806,-4.3651,-4.3933,-4.3782,-4.3951,-4.4214,0.0,-4.4501,-4.444,-4.4335,-4.4335,-4.4277,-4.4114,-4.3629,-4.3569,-4.3606,0.0,0.0,0.0,0.0,0.0,-2.0605,-2.0605,-2.082,-2.1113,-2.1465,-2.1738,-2.1797,-2.1543,-2.1503,-2.1248,-2.0623,-2.0563,0.0,0.0,0.0,0.0,0.0,0.0,0.0,0.0,0.0,-2.2357,-2.2356,-2.2357,-2.2494,0.0,0.0,0.0,0.0,0.0,0.0,0.0,0.0,0.0,0.0,0.0,0.0,0.0,0.0,0.0,0.0,0.0,0.0,0.0,0.0,0.0,0.0,0.0,0.0,0.0,0.0,-3.8291,-4.1535,-4.4524,-4.6731,-4.7804,-4.6107,-4.1713,-3.7318,0.0,0.0,-2.8045,-2.7186,-2.6992,-2.6914,-2.6599,-2.6089,-2.6064,-2.7212,-2.6404,-2.6619,0.0,0.0,0.0,0.0,0.0,0.0,0.0,0.0,0.0,-4.5905,-4.5911,-4.5795,-4.5556,-4.5224,-4.5016,-4.494,-4.489,-4.4633,-4.4178,-4.4171,-4.3995,-4.3624,-4.3806,-4.3624,-4.3127,-4.3892,-4.3922,-4.3433,-4.4261,-4.4355,0.0,-4.4377,-4.4419,-4.4199,-4.4402,-4.435,-4.412,-4.3782,-4.3857,-4.4013,0.0,0.0,0.0,0.0,0.0,0.0,-2.0605,-2.1328,-2.1582,-2.0723,-2.1367,-2.1562,-2.0703,-2.0559,-2.0508,-2.0508,-2.0508,0.0,0.0,0.0,0.0,0.0,0.0,0.0,0.0,0.0,-2.0635,-2.0639,-2.0635,-2.1066,-2.191,-2.1904,-2.2332,0.0,0.0,0.0,0.0,0.0,0.0,0.0,0.0,0.0,0.0,0.0,0.0,0.0,0.0,0.0,0.0,0.0,0.0,0.0,0.0,0.0,0.0,0.0,-3.3321,-3.7734,-3.9499,-4.1824,-4.3347,-4.1596,-3.8589,-3.5347,0.0,0.0,-2.8043,-2.7184,-2.7009,-2.6735,-2.5876,-2.572,-2.5702,-2.572,-2.5716,0.0,0.0,0.0,0.0,0.0,0.0,0.0,0.0,0.0,0.0,-4.5911,-4.5911,0.0,-4.4742,-4.4717,-4.4582,-4.4314,-4.4113,-4.3599,-4.2728,-4.2728,-4.2315,-4.153,-4.219,-4.2548,-4.2635,-4.3297,-4.3594,-4.3651,-4.4523,-4.3954,0.0,-4.4071,-4.4189,-4.3466,-4.4199,-4.4008,-4.3407,-4.4214,-4.3989,-4.3426,0.0,0.0,0.0,0.0,0.0,0.0,0.0,-2.084,-2.0918,-2.0644,-2.0839,-2.0897,-2.0578,-2.0509,-2.0472,-2.0445,-2.0474,0.0,0.0,0.0,0.0,0.0,0.0,0.0,0.0,0.0,-2.0487,-2.0536,-2.0483,-2.0621,-2.0949,-2.0995,-2.1471,-2.224,-2.1398,0.0,0.0,0.0,0.0,0.0,0.0,0.0,0.0,0.0,0.0,0.0,0.0,0.0,0.0,0.0,0.0,0.0,0.0,0.0,0.0,-2.646,0.0,0.0,-3.4926,-3.6813,-3.8037,-3.693,-3.4909,-3.2684,-3.0691,-2.8702,-2.7034,-2.6217,-2.6031,-2.5979,-2.5734,-2.5698,-2.5895,-2.6482,-2.6581,0.0,0.0,0.0,0.0,0.0,0.0,0.0,0.0,0.0,0.0,-4.5975,-4.5975,-4.562,-4.4805,-4.4766,-4.443,-4.3711,-4.3626,-4.3392,-4.2989,-4.2959,-4.2755,-4.2315,-4.2537,-4.268,-4.2757,-4.354,-4.3567,-4.3138,-4.4454,-4.4064,-4.2547,-4.3538,-4.3459,-4.2735,-4.2963,-4.3253,-4.3473,-4.3076,-4.3484,-4.4199,0.0,0.0,0.0,0.0,0.0,0.0,0.0,-2.0171,-2.0038,-2.0524,-2.0604,-2.0561,-2.0507,-2.0472,-2.0445,-2.0369,-2.0405,0.0,0.0,0.0,0.0,0.0,0.0,0.0,-2.0459,-2.0426,-2.0426,-2.046,-2.0422,-2.042,-2.0453,-2.0487,-2.0773,-2.1272,-2.0724,-2.0784,0.0,0.0,0.0,0.0,0.0,0.0,-2.0902,0.0,0.0,0.0,0.0,0.0,0.0,0.0,0.0,0.0,0.0,0.0,0.0,0.0,-2.6912,-2.9086,0.0,-3.2782,-3.3634,-3.2811,-3.174,-3.039,-2.8398,-2.7332,-2.6565,-2.5736,-2.5586,-2.5606,-2.5658,-2.5671,-2.5871,-2.6415,-2.6515,0.0,0.0,0.0,0.0,0.0,0.0,0.0,0.0,0.0,-4.6118,-4.6046,-4.6041,-4.5536,-4.4365,-4.4307,-4.3747,-4.2502,-4.2773,-4.2728,-4.2273,-4.2267,-4.2188,-4.2009,-4.2002,-4.2167,-4.2502,-4.2983,-4.2919,-4.2524,-4.3809,-4.3379,0.0,-4.325,-4.3137,-4.211,-4.2704,-4.2819,-4.2617,-4.2303,-4.2681,-4.3215,0.0,0.0,0.0,0.0,0.0,0.0,0.0,-1.9214,-1.8924,-2.0244,-2.0436,-2.0451,-2.0494,-2.0425,-2.0378,-2.0307,0.0,0.0,0.0,0.0,0.0,0.0,0.0,0.0,-2.0393,-2.0388,-2.0388,-2.0391,-2.0454,-2.0485,-2.0487,-2.0474,-2.0449,-2.0391,-2.0391,-2.0352,-2.0297,-2.0297,-2.0297,-2.0316,-2.0372,-2.0867,0.0,0.0,0.0,0.0,0.0,0.0,0.0,0.0,0.0,0.0,0.0,0.0,0.0,0.0,0.0,0.0,0.0,-2.9606,0.0,0.0,-2.9013,-2.8388,-2.601,-2.6094,0.0,-2.5647,-2.5537,-2.5611,-2.5677,-2.5687,-2.5763,-2.5941,0.0,0.0,0.0,0.0,0.0,0.0,0.0,0.0,0.0,0.0,-4.6152,-4.6014,-4.6004,-4.5251,-4.3506,-4.3413,-4.2636,-4.0946,-4.1626,-4.1655,-4.0907,-4.0893,-4.0907,-4.0907,-4.0846,-4.1232,-4.202,-4.1943,-4.1914,0.0,-4.276,-4.217,-4.0788,-4.3099,-4.3009,-4.1579,-4.3013,-4.2584,-4.1233,-4.1921,-4.1685,-4.1012,0.0,0.0,0.0,0.0,0.0,0.0,0.0,0.0,0.0,0.0,-1.8838,-1.9369,-2.0318,-2.036,-2.0331,0.0,0.0,0.0,0.0,0.0,0.0,0.0,0.0,0.0,-2.0317,-2.0272,-2.0261,-2.0315,-2.0938,-2.1239,-2.1261,-2.1952,-2.1933,-2.129,-2.129,-2.0928,-2.0297,-2.0297,-2.0297,-2.0352,-2.1022,-2.1395,0.0,0.0,0.0,0.0,-2.2786,-2.2834,0.0,0.0,0.0,0.0,0.0,0.0,0.0,0.0,-2.5141,-2.5281,-2.5981,0.0,-2.6434,-2.6275,-2.6201,-2.601,0.0,-2.5428,-2.5529,-2.5382,0.0,0.0,-2.6452,-2.6065,0.0,0.0,0.0,0.0,0.0,0.0,0.0,0.0,0.0,0.0,0.0,0.0,-4.591,-4.523,-4.5133,-4.4377,-4.2661,-4.2523,-4.2015,-4.0927,-4.0499,-4.0475,-4.0898,-4.0903,-4.0907,-4.0907,-4.0888,-4.1325,-4.214,-4.2144,-4.2133,-4.2167,-4.2937,-4.2306,-4.0835,-4.1965,-4.1809,-4.0843,-4.1212,-4.1508,-4.1709,-4.1778,-4.1675,-4.1446,0.0,0.0,0.0,0.0,0.0,0.0,0.0,0.0,0.0,0.0,0.0,0.0,0.0,0.0,0.0,0.0,0.0,0.0,0.0,0.0,0.0,0.0,0.0,-2.0215,-2.0242,-2.0214,-2.0225,-2.0242,-2.0687,-2.1293,-2.204,-2.2167,-2.2164,-2.2033,-2.1247,-2.0654,-2.0215,-2.0215,-2.0215,-2.0253,-2.0712,0.0,0.0,0.0,0.0,0.0,-2.3799,-2.3793,0.0,-2.3348,-2.3765,-2.4352,0.0,0.0,0.0,0.0,-2.5019,-2.5095,-2.5025,-2.5106,-2.5113,-2.4749,-2.4921,-2.51,-2.4692,0.0,0.0,0.0,0.0,0.0,0.0,0.0,0.0,0.0,0.0,0.0,0.0,0.0,0.0,0.0,0.0,0.0,0.0,-4.4832,-4.5231,-4.437,-4.4279,-4.3675,-4.2378,-4.2269,-4.1662,-4.0396,-3.9929,-3.9917,-4.0344,-4.0344,-4.0344,-4.0344,-4.0713,-4.114,-4.1607,-4.1607,-4.1607,-4.1626,-4.2022,-4.1671,-4.0915,-4.1716,-4.1519,-4.072,-4.1094,-4.1273,-4.1287,-4.1147,-4.083,-4.0383,0.0,0.0,0.0,0.0,0.0,0.0,0.0,0.0,0.0,0.0,0.0,0.0,0.0,0.0,0.0,0.0,0.0,0.0,0.0,0.0,0.0,0.0,-2.018,-2.018,-2.018,-2.0176,-2.0171,-2.0171,-2.057,-2.1474,-2.2856,-2.2243,-2.2113,-2.2323,-2.0771,-2.0084,-2.0084,-2.0084,-2.0084,-2.0103,-2.0236,0.0,0.0,0.0,0.0,0.0,0.0,0.0,0.0,-2.4245,-2.4379,-2.4702,-2.3791,0.0,0.0,0.0,0.0,0.0,-2.4797,-2.4846,-2.4801,-2.4184,-2.4626,-2.4985,-2.4258,0.0,0.0,0.0,0.0,0.0,0.0,0.0,0.0,0.0,0.0,0.0,0.0,0.0,0.0,0.0,0.0,0.0,-4.3322,-4.4161,-4.4358,-4.3471,-4.3415,-4.3027,-4.2151,-4.1989,-4.1225,-3.9741,-3.9449,-3.9297,-3.9303,-3.9438,-3.9565,-3.9701,-4.0388,-4.0713,-4.0713,-4.0713,-4.0635,-4.0519,-4.0519,0.0,-4.0771,-4.151,-4.1412,-4.0876,-4.1579,-4.1357,-4.0636,-4.0516,-3.9844,-3.884,0.0,0.0,0.0,0.0,0.0,0.0,0.0,0.0,0.0,0.0,0.0,0.0,0.0,0.0,0.0,0.0,0.0,0.0,0.0,0.0,0.0,-2.0031,-2.0084,-2.0126,-2.0126,-2.0069,-2.0031,-2.0031,-2.2193,-2.3387,-2.3635,-2.4244,-2.3444,-2.1464,-2.0454,-2.0016,-2.0016,-2.0016,-2.0016,-2.0073,-2.0816,0.0,0.0,0.0,0.0,0.0,0.0,0.0,0.0,-2.4949,-2.4391,-2.3721,-2.3542,0.0,0.0,0.0,0.0,0.0,-2.4546,-2.417,-2.3908,-2.4503,-2.4886,-2.5093,-2.5013,0.0,0.0,0.0,0.0,0.0,0.0,0.0,0.0,0.0,0.0,0.0,0.0,0.0,0.0,0.0,0.0,-4.3127,-4.1642,-4.2951,-4.3522,-4.2653,-4.2523,-4.2125,-4.1248,-4.0505,-3.9989,-3.9716,-3.827,-3.7505,-3.7497,-3.8221,-3.8965,-3.9701,-3.9831,-3.9873,-3.9873,-3.9873,-3.9489,-3.8775,0.0,-3.9198,-3.9893,-4.0033,-4.0393,-4.0908,-4.1024,-4.098,-4.0854,-4.0824,-3.983,-3.8268,0.0,0.0,0.0,0.0,0.0,0.0,0.0,0.0,0.0,0.0,0.0,0.0,0.0,0.0,0.0,0.0,0.0,0.0,0.0,0.0,-2.003,-2.0006,-1.9986,-2.0015,-2.0055,-2.0473,-2.0711,-2.0711,-2.2264,-2.3278,-2.3746,-2.3594,-2.2659,-2.1041,-2.0204,-1.9849,-1.9893,-1.9893,-1.9893,-1.9931,0.0,0.0,0.0,0.0,0.0,0.0,0.0,0.0,0.0,0.0,-2.3093,-2.2723,-2.2576,0.0,0.0,0.0,0.0,0.0,-2.4198,-2.4219,-2.4197,-2.442,-2.445,-2.4536,-2.5031,-2.5144,0.0,0.0,0.0,0.0,0.0,0.0,0.0,0.0,0.0,0.0,0.0,0.0,0.0,0.0,0.0,-4.1972,-4.119,-4.2223,-4.2599,-4.1769,-4.1224,-4.0769,-4.0364,-3.9538,-3.8842,-3.8353,-3.7572,-3.6947,-3.6517,-3.6873,-3.748,-3.83,-3.8766,-3.9006,-3.9006,-3.9003,-3.878,-3.839,-3.84,-3.8642,-3.9046,-3.9002,-3.9211,-3.9539,-3.9557,-3.9548,-3.9489,-3.9023,-3.8363,-3.7504,0.0,0.0,0.0,0.0,0.0,0.0,0.0,0.0,0.0,0.0,0.0,0.0,0.0,0.0,0.0,0.0,0.0,0.0,0.0,-1.9965,-1.9925,-1.9939,-1.9839,-1.9845,-1.9976,-2.0809,-2.114,-2.0956,-2.2098,-2.2886,-2.3308,-2.2499,-2.1564,-2.0522,-1.9892,-1.965,-1.9701,-1.9701,-1.9701,-1.9701,0.0,0.0,0.0,0.0,0.0,0.0,0.0,0.0,0.0,0.0,0.0,0.0,0.0,0.0,0.0,-2.1896,-2.2379,-2.2945,-2.3592,-2.3877,-2.4027,-2.4155,-2.4128,-2.4271,-2.506,-2.541,0.0,0.0,0.0,0.0,0.0,0.0,0.0,0.0,0.0,0.0,0.0,0.0,0.0,0.0,-4.0221,-4.0627,-4.1068,-4.1283,-4.123,-4.0836,-4.0001,-3.9496,-3.9507,-3.8668,-3.7793,-3.6915,-3.6896,-3.6506,-3.5685,-3.5814,-3.6305,-3.7126,-3.7786,-3.8095,-3.8095,-3.81,-3.7996,-3.7819,-3.7815,-3.7954,-3.8194,-3.8146,-3.8249,-3.8415,-3.8424,-3.8416,-3.8319,-3.744,-3.7106,-3.6977,0.0,0.0,0.0,0.0,0.0,0.0,0.0,0.0,0.0,0.0,0.0,0.0,0.0,0.0,0.0,0.0,0.0,0.0,0.0,-1.9828,-1.9713,-1.972,-1.9543,-1.9579,-1.9909,-2.0634,-2.0659,-1.992,-2.2269,-2.3003,-2.2204,-2.2016,-2.1067,-1.9505,-1.9442,-1.9431,-1.9438,-1.9438,-1.9438,-1.9438,-1.9438,0.0,0.0,0.0,0.0,0.0,0.0,0.0,0.0,0.0,0.0,0.0,0.0,0.0,-2.0201,-1.9486,-2.0382,-2.1787,-2.2584,-2.2364,-2.2271,-2.3749,-2.45,-2.504,-2.5543,-2.6381,0.0,-2.8166,0.0,0.0,0.0,0.0,0.0,0.0,0.0,0.0,0.0,0.0,0.0,-4.0684,-3.9444,-3.919,-4.0929,-3.9688,-3.9084,-3.9844,-3.9084,-3.86,-3.8581,-3.7762,-3.6885,-3.6031,-3.5992,-3.5582,-3.4706,-3.5507,-3.6347,-3.7185,-3.7185,-3.7198,-3.7198,-3.7197,-3.6788,-3.6087,-3.6085,-3.6544,-3.7281,-3.7299,-3.7764,-3.8488,-3.8488,-3.8484,-3.839,-3.7517,-3.7147,-3.698,0.0,0.0,0.0,0.0,0.0,0.0,0.0,0.0,0.0,0.0,0.0,0.0,0.0,0.0,0.0,0.0,0.0,0.0,0.0,-1.957,-1.9504,-1.9516,-1.9321,-1.928,-1.9399,-2.0364,-2.0765,-2.0545,-2.1353,-2.1498,-2.0972,-2.0362,-1.9766,-1.915,-1.915,-1.9198,-1.9287,-1.9287,-1.9287,-1.9261,-1.9178,-1.9154,0.0,0.0,0.0,0.0,0.0,0.0,0.0,0.0,-1.9703,-1.9466,-1.9116,-1.92,-1.9426,-1.9633,-2.0137,-2.0796,-2.1608,-2.1743,-2.188,-2.2908,-2.3508,0.0,0.0,-2.5966,-2.7064,-2.7427,-2.8809,0.0,0.0,0.0,0.0,0.0,0.0,0.0,0.0,0.0,-3.8553,-3.8935,-3.8495,-3.8451,-3.917,-3.8641,-3.8398,-3.8729,-3.8,-3.7327,-3.6798,-3.6005,-3.5421,-3.509,-3.509,-3.5187,-3.5402,-3.5733,-3.6063,-3.6384,-3.6378,-3.6345,-3.6346,-3.6357,-3.6184,-3.5891,-3.5898,-3.6112,-3.6444,-3.6417,-3.6587,-3.6877,-3.687,-3.6882,-3.6841,-3.6512,-3.6387,-3.632,0.0,0.0,0.0,0.0,0.0,0.0,0.0,0.0,0.0,0.0,0.0,0.0,0.0,0.0,0.0,0.0,0.0,0.0,-1.9335,-1.9275,-1.9222,-1.9217,-1.903,-1.8928,-1.897,-1.9715,-2.0065,-1.9961,-1.9784,-1.9591,-1.9405,-1.9013,-1.8843,-1.8843,-1.8843,-1.8896,-1.8984,-1.8984,-1.8984,-1.8966,-1.8878,-1.8834,0.0,0.0,0.0,0.0,0.0,0.0,0.0,0.0,-1.8706,-1.8834,-1.8548,-1.8664,-1.8968,-1.9264,-1.9363,-1.9597,-2.0631,-2.0852,-2.1071,0.0,0.0,0.0,-2.4385,-2.6084,-2.7549,-2.7877,-2.9522,0.0,0.0,0.0,0.0,0.0,0.0,0.0,0.0,-3.7071,-3.7154,-3.7736,-3.7209,-3.7134,-3.7989,-3.7576,-3.7259,-3.7284,-3.6561,-3.5747,-3.4869,-3.4346,-3.3952,-3.3695,-3.3975,-3.4299,-3.463,-3.5199,-3.548,-3.548,-3.5772,-3.5908,-3.5892,-3.5897,-3.5908,-3.591,-3.5901,-3.5928,-3.5966,-3.5917,-3.5918,-3.5937,-3.5932,-3.5938,-3.5924,-3.5924,-3.5921,-3.5896,0.0,0.0,0.0,0.0,0.0,0.0,0.0,0.0,0.0,0.0,0.0,0.0,0.0,0.0,0.0,0.0,0.0,0.0,-1.919,-1.9018,-1.8868,-1.8798,-1.8603,-1.8563,-1.8697,-1.8623,-1.8297,-1.7714,-1.7573,-1.7496,-1.7532,-1.8185,-1.8495,-1.8495,-1.8495,-1.8495,-1.8495,-1.8495,-1.8495,-1.8495,-1.8495,-1.8495,-1.8495,0.0,0.0,0.0,0.0,0.0,0.0,0.0,-1.8553,-1.8471,-1.7745,-1.8155,-1.8735,-1.7947,-1.7756,-1.8139,-1.9678,-1.9561,0.0,0.0,0.0,0.0,-2.4775,-2.6995,-2.9135,-3.002,0.0,-3.0631,-2.9776,0.0,0.0,0.0,0.0,0.0,-3.6149,-3.5587,-3.5742,-3.7539,-3.553,-3.5037,-3.7694,-3.6395,-3.5405,-3.5467,-3.467,-3.382,-3.2938,-3.2885,-3.2513,-3.173,-3.2593,-3.2703,-3.1926,-3.3689,-3.4583,-3.4583,-3.546,-3.5889,-3.5908,-3.5908,-3.5908,-3.5908,-3.5908,-3.5892,-3.5901,-3.5901,-3.5936,-3.5991,-3.5991,-3.5991,-3.5991,-3.5991,-3.5955,-3.5898,0.0,0.0,0.0,0.0,0.0,0.0,0.0,0.0,0.0,0.0,0.0,0.0,0.0,0.0,0.0,0.0,0.0,0.0,-1.8707,-1.866,-1.8604,-1.8584,-1.8448,-1.8388,-1.842,-1.775,-1.7764,-1.8467,-1.7826,-1.7773,-1.8286,-1.842,-1.8495,-1.8495,-1.8495,-1.8495,-1.8495,-1.8495,-1.8495,-1.8485,-1.8398,-1.8368,-1.8358,0.0,0.0,0.0,0.0,0.0,0.0,0.0,0.0,0.0,-1.8484,-1.861,-1.8789,-1.853,-1.8494,-1.8726,-1.9746,-1.946,0.0,0.0,0.0,0.0,0.0,-2.5579,0.0,0.0,0.0,-3.0328,-3.0248,0.0,0.0,-3.01,-3.1279,-3.2496,-3.3482,-3.3378,-3.3406,-3.3951,-3.3386,-3.3255,-3.4044,-3.3704,-3.3433,-3.3459,-3.3318,-3.2833,-3.1962,-3.1994,-3.1948,-3.1711,-3.1965,-3.2275,-3.2609,-3.3132,-3.3407,-3.3407,-3.3762,-3.4613,-3.5908,-3.5908,-3.5908,-3.5908,-3.5908,-3.5897,-3.5907,-3.5907,-3.5908,-3.5934,-3.5934,-3.5962,-3.5991,-3.5991,-3.5992,-3.5974,0.0,0.0,0.0,0.0,0.0,0.0,0.0,0.0,0.0,0.0,-1.8798,0.0,0.0,0.0,0.0,0.0,0.0,0.0,0.0,-1.8378,-1.8375,-1.8335,-1.8256,-1.8205,-1.8184,-1.7329,-1.7413,-1.8487,-1.7667,-1.7481,-1.7926,-1.8236,-1.8373,-1.8373,-1.8373,-1.8373,-1.8373,-1.8373,-1.8373,-1.8373,-1.8284,-1.8263,-1.8253,0.0,0.0,0.0,0.0,0.0,0.0,0.0,0.0,0.0,-1.8516,-1.8516,-1.8492,-1.8156,-1.7847,-1.7822,-1.8713,0.0,0.0,0.0,0.0,0.0,0.0,0.0,0.0,0.0,0.0,0.0,-3.0266,-3.0016,0.0,-2.9991,-3.0731,-3.1513,-3.2241,-3.2033,-3.1947,-3.236,-3.2148,-3.2108,-3.2431,-3.2495,-3.2397,-3.2074,-3.213,-3.1782,-3.0908,-3.0949,-3.0983,-3.0983,-3.1065,-3.1338,-3.1825,-3.2216,-3.2417,-3.2436,-3.2836,-3.361,-3.4707,-3.4789,-3.4824,-3.4824,-3.4824,-3.5211,-3.583,-3.5483,-3.5566,-3.587,-3.5519,-3.5403,-3.5405,-3.5073,-3.4977,-3.4977,0.0,0.0,0.0,0.0,0.0,0.0,0.0,0.0,0.0,0.0,-1.8426,-1.8406,0.0,0.0,0.0,0.0,0.0,0.0,0.0,-1.8146,-1.811,-1.802,-1.8031,-1.8037,-1.7961,-1.7303,-1.7275,-1.7928,-1.7229,-1.6921,-1.7024,-1.7814,-1.819,-1.819,-1.819,-1.82,-1.82,-1.82,-1.82,-1.82,-1.82,-1.819,-1.8162,-1.8162,0.0,0.0,0.0,0.0,0.0,0.0,0.0,0.0,-1.8048,-1.8076,-1.8028,-1.7222,-1.647,-1.6149,-1.7273,0.0,0.0,0.0,0.0,0.0,0.0,0.0,0.0,0.0,0.0,0.0,-2.9947,-3.015,-3.0309,-3.033,-3.1002,-3.1592,-3.1802,-3.1203,-3.1082,-3.2013,-3.1463,-3.1302,-3.1982,-3.2039,-3.1707,-3.092,-3.0871,-3.0522,-2.9726,-2.9688,-2.9688,-2.9688,-2.9937,-3.0035,-2.9958,-3.1006,-3.1499,-3.1441,-3.2171,-3.2568,-3.267,-3.3014,-3.3169,-3.3169,-3.3169,-3.4116,-3.5584,-3.4714,-3.4921,-3.5677,-3.4802,-3.4474,-3.4386,-3.3668,-3.3456,-3.3514,0.0,0.0,0.0,0.0,0.0,0.0,0.0,0.0,0.0,0.0,0.0,0.0,0.0,0.0,0.0,0.0,0.0,0.0,0.0,-1.7755,-1.763,-1.7408,-1.7601,-1.7692,-1.7681,-1.7467,-1.7353,-1.7296,-1.7034,-1.7212,-1.7776,-1.7958,-1.8037,-1.8055,-1.8091,-1.8113,-1.8113,-1.819,-1.82,-1.82,-1.82,-1.8108,-1.7966,-1.7966,-1.7966,0.0,0.0,0.0,0.0,0.0,0.0,0.0,-1.7978,-1.7945,-1.7922,-1.774,-1.7195,-1.7021,0.0,-1.8231,0.0,0.0,0.0,0.0,0.0,0.0,0.0,0.0,0.0,0.0,0.0,-2.9238,-2.8899,-2.9063,-2.9245,-2.946,-2.9792,-2.9675,-2.9669,-2.9939,-2.9818,-2.9597,-2.9296,-2.9267,-2.899,-2.8351,-2.8302,-2.8207,-2.8036,-2.8017,-2.8017,-2.8017,-2.8681,-2.8723,-2.8091,-2.9547,-2.9969,-2.9341,-2.9631,-3.0092,-3.075,-3.2262,-3.2952,-3.2952,-3.2952,-3.3566,-3.4489,-3.361,-3.3805,-3.4554,-3.3739,-3.3497,-3.3559,-3.3448,-3.3807,-3.4333,0.0,0.0,0.0,0.0,0.0,0.0,0.0,0.0,0.0,0.0,0.0,0.0,0.0,0.0,0.0,0.0,0.0,0.0,0.0,0.0,-1.7296,-1.715,-1.7264,-1.7313,-1.7313,-1.7288,-1.7187,-1.7052,-1.6969,-1.7232,-1.776,-1.7783,-1.7811,-1.7811,-1.7856,-1.7867,-1.7867,-1.7922,-1.7983,-1.8016,-1.8158,-1.8016,-1.7772,-1.7861,-1.7839,-1.776,-1.776,0.0,0.0,0.0,0.0,0.0,0.0,0.0,-1.7535,-1.716,-1.6792,-1.6671,0.0,0.0,0.0,0.0,0.0,0.0,0.0,0.0,0.0,0.0,0.0,0.0,0.0,-2.7566,-2.7324,-2.7447,-2.7471,-2.7548,-2.7831,-2.7885,-2.7959,-2.8093,-2.8133,-2.8033,-2.7708,-2.768,-2.7593,-2.7363,-2.736,-2.7392,-2.7486,-2.7494,-2.7494,-2.7494,-2.7904,-2.7922,-2.7494,-2.8339,-2.854,-2.8123,-2.8191,-2.8455,-2.8919,-3.0797,-3.1877,-3.2204,-3.1819,-3.2358,-3.3461,-3.2589,-3.2771,-3.3553,-3.2715,-3.2435,-3.2488,-3.2105,-3.2248,-3.2638,0.0,0.0,0.0,0.0,0.0,0.0,0.0,0.0,0.0,0.0,0.0,0.0,0.0,0.0,0.0,0.0,0.0,0.0,0.0,0.0,0.0,-1.7089,-1.6993,-1.693,-1.693,-1.693,-1.6904,-1.6853,-1.6982,-1.7209,-1.7514,-1.7557,-1.7633,-1.7744,-1.7627,-1.7667,-1.7808,-1.768,-1.7692,-1.7755,-1.7972,-1.7833,-1.7491,-1.7687,-1.7653,-1.7531,-1.7537,-1.7577,-1.7589,-1.7566,0.0,0.0,0.0,0.0,-1.7137,-1.6466,-1.6198,-1.6056,0.0,0.0,0.0,0.0,0.0,0.0,0.0,0.0,0.0,0.0,0.0,0.0,0.0,-2.6008,-2.6057,-2.6057,-2.6057,-2.6105,-2.6299,-2.6385,-2.6475,-2.6665,-2.6725,-2.6727,-2.6608,-2.6589,-2.6619,-2.6684,-2.6683,-2.6768,-2.6941,-2.6957,-2.6957,-2.6957,-2.7116,-2.7123,-2.7013,-2.7297,-2.7388,-2.7285,-2.7437,-2.7418,-2.735,-2.919,-3.0393,-3.0993,-3.0469,-3.1108,-3.2469,-3.1587,-3.1775,-3.2571,-3.1686,-3.1401,-3.1367,-3.0653,-3.0525,-3.0717,0.0,0.0,0.0,0.0,0.0,0.0,0.0,0.0,0.0,0.0,0.0,0.0,0.0,0.0,0.0,0.0,0.0,0.0,-1.6735,0.0,0.0,-1.6989,-1.6776,-1.6646,-1.6646,-1.6646,-1.6543,-1.6303,-1.6892,-1.7313,-1.7588,-1.7486,-1.7764,-1.8352,-1.7769,-1.7923,-1.8577,-1.7786,-1.746,-1.746,-1.7479,-1.7296,-1.7014,-1.7146,-1.7199,-1.7171,-1.7296,-1.7455,-1.7577,-1.7392,-1.7344,0.0,0.0,0.0,-1.7117,-1.6994,-1.6564,-1.6268,0.0,0.0,0.0,0.0,0.0,0.0,0.0,0.0,0.0,0.0,0.0,0.0,0.0,-2.5831,-2.5843,-2.5843,-2.5843,-2.5899,-2.6033,-2.6057,-2.6093,-2.6182,-2.6205,-2.5978,-2.5406,-2.5353,-2.5134,-2.4644,-2.466,-2.4687,-2.474,-2.4774,-2.481,-2.481,-2.5554,-2.5668,-2.5076,-2.6502,-2.6959,-2.6387,-2.7134,-2.7096,-2.6425,-2.8135,-2.8966,-2.9118,-2.9698,-3.0503,-3.1347,-3.0465,-3.0708,-3.1527,-3.0706,-3.0426,-3.0477,-3.0425,-3.0881,-3.1534,0.0,0.0,0.0,0.0,0.0,0.0,0.0,0.0,0.0,0.0,0.0,0.0,0.0,0.0,0.0,-1.6291,-1.615,-1.6179,-1.634,-1.6234,-1.6248,-1.6488,-1.6409,-1.6384,-1.6384,-1.6328,-1.6447,-1.6704,-1.7011,-1.7208,-1.7338,-1.7841,-1.8478,-1.9151,-1.8425,-1.8561,-1.9232,-1.8057,-1.7588,-1.7627,-1.7796,-1.7396,-1.6763,-1.691,-1.7171,-1.7436,-1.7489,-1.7813,-1.8157,-1.7687,-1.7516,-1.7438,-1.6975,0.0,0.0,0.0,-1.6661,0.0,-1.6242,0.0,0.0,0.0,0.0,0.0,0.0,0.0,0.0,0.0,0.0,0.0,0.0,-2.4191,-2.4297,-2.4297,-2.442,-2.4534,-2.4587,-2.4629,-2.4676,-2.471,-2.4739,-2.4633,-2.4335,-2.4328,-2.4249,-2.4106,-2.4126,-2.4155,-2.4247,-2.4273,-2.4282,-2.4282,-2.4662,-2.4725,-2.4414,-2.5138,-2.5376,-2.5088,-2.5957,-2.592,-2.5144,-2.6818,-2.7988,-2.8741,-2.9556,-3.0124,-3.0446,-3.0067,-3.0157,-3.0516,-3.0175,-3.0056,-3.008,-3.0115,-3.04,-3.0804,0.0,0.0,0.0,0.0,0.0,0.0,0.0,0.0,0.0,0.0,0.0,0.0,0.0,0.0,0.0,0.0,-1.6498,-1.6466,-1.6342,-1.6341,-1.6279,-1.6081,-1.6109,-1.6153,-1.6153,-1.6095,-1.6403,-1.7075,-1.7257,-1.7441,-1.7624,-1.8765,-1.9577,-2.0064,-1.906,-1.9042,-1.9688,-1.844,-1.7933,-1.8005,-1.8198,-1.7768,-1.7037,-1.7223,-1.7561,-1.791,-1.7939,-1.827,-1.8601,-1.7922,-1.7699,-1.7559,-1.6817,-1.661,0.0,0.0,0.0,0.0,0.0,0.0,0.0,0.0,0.0,0.0,0.0,0.0,0.0,0.0,0.0,0.0,0.0,-2.2578,-2.2935,-2.2947,-2.3121,-2.3283,-2.3383,-2.3448,-2.3505,-2.3562,-2.3629,-2.3645,-2.3645,-2.3645,-2.3711,-2.3863,-2.3884,-2.3947,-2.4032,-2.4061,-2.4071,-2.4071,-2.4071,-2.4099,-2.4146,-2.4174,-2.4201,-2.4201,-2.4857,-2.4838,-2.4256,-2.5726,-2.6935,-2.7934,-2.8779,-2.9154,-2.9173,-2.9425,-2.9404,-2.9233,-2.9441,-2.9509,-2.9517,-2.9561,-2.9758,-3.0034,0.0,0.0,0.0,0.0,0.0,0.0,0.0,0.0,0.0,0.0,0.0,0.0,-1.7709,-1.7768,-1.7737,-1.7708,-1.7708,-1.7498,-1.6985,-1.7014,-1.6753,-1.6041,-1.601,0.0,-1.601,-1.601,-1.6331,-1.7,-1.77,-1.8373,-1.903,-2.0483,-2.1168,-2.1139,-1.9374,-1.9118,-1.992,-1.8903,-1.8453,-1.8453,-1.8484,-1.8346,-1.813,-1.8345,-1.8437,-1.8484,-1.8604,-1.8665,-1.8601,-1.7922,-1.7699,-1.7559,-1.6817,0.0,0.0,0.0,0.0,0.0,0.0,0.0,0.0,0.0,0.0,0.0,0.0,0.0,0.0,0.0,0.0,0.0,0.0,0.0,-2.2462,-2.2529,-2.2542,-2.2691,-2.3065,-2.3114,-2.3217,-2.3464,-2.3517,-2.3517,-2.3517,-2.3517,-2.3499,-2.3539,-2.3585,-2.3618,-2.3629,-2.3689,-2.3732,-2.3732,-2.3732,-2.3821,-2.4016,-2.4146,-2.4201,-2.4201,-2.4256,-2.4238,-2.4219,-2.5153,-2.5597,-2.5727,-2.673,-2.7148,-2.7213,-2.8107,-2.8028,-2.7416,-2.8169,-2.8489,-2.8498,-2.863,-2.9146,-2.9815,0.0,0.0,0.0,0.0,0.0,0.0,0.0,0.0,0.0,0.0,0.0,0.0,0.0,-1.8157,-1.7912,-1.7745,-1.7747,-1.7674,-1.7513,-1.7545,-1.7258,-1.6607,-1.6621,-1.6438,-1.6011,-1.6379,-1.6879,-1.7513,-1.8242,-1.8761,-1.9069,-2.0054,-2.0341,-2.0011,-1.9803,-2.0134,-2.0746,-1.9541,0.0,0.0,0.0,0.0,0.0,0.0,0.0,0.0,0.0,0.0,0.0,-1.8951,0.0,0.0,0.0,0.0,0.0,0.0,0.0,0.0,0.0,0.0,0.0,0.0,0.0,0.0,0.0,0.0,0.0,0.0,0.0,0.0,0.0,0.0,-2.215,-2.2178,-2.2313,-2.2489,-2.2625,-2.2656,-2.2695,-2.2781,-2.2943,-2.3047,-2.3047,-2.3247,-2.336,-2.336,-2.3464,-2.3539,-2.3539,-2.3562,-2.3567,-2.3567,-2.3567,-2.36,-2.3678,-2.3728,-2.3753,-2.3753,-2.3753,-2.3753,-2.3753,-2.4071,-2.4227,-2.4237,-2.4681,-2.561,-2.6832,-2.7177,-2.714,-2.6916,-2.7196,-2.7614,-2.807,-2.8127,-2.8659,-2.9357,0.0,0.0,0.0,0.0,0.0,0.0,0.0,0.0,0.0,-1.7325,0.0,0.0,0.0,0.0,-1.8162,-1.7975,-1.8104,-1.8117,-1.7911,-1.7915,-1.7648,-1.7007,-1.6882,-1.6628,-1.6171,-1.6567,-1.7065,-1.7714,-1.8359,-1.879,-1.9081,-1.9745,-1.9886,-1.9591,-2.002,-2.0516,0.0,0.0,0.0,-1.9595,0.0,0.0,-1.8515,0.0,0.0,0.0,0.0,0.0,0.0,0.0,0.0,0.0,0.0,0.0,0.0,0.0,0.0,0.0,0.0,0.0,0.0,0.0,0.0,0.0,0.0,0.0,0.0,0.0,0.0,0.0,0.0,0.0,0.0,-2.1711,-2.175,-2.1849,-2.2227,-2.2055,-2.2027,-2.2361,-2.256,-2.2669,-2.2669,-2.2867,-2.3035,-2.3126,-2.3211,-2.3283,-2.336,-2.3407,-2.3441,-2.3505,-2.3505,-2.3505,-2.3505,-2.3505,-2.3505,-2.3505,-2.3505,-2.3505,-2.3505,-2.3505,-2.3505,-2.3487,-2.3587,-2.4417,-2.5725,-2.6051,-2.6035,-2.5814,-2.609,-2.6532,-2.7001,-2.7042,-2.7754,-2.8665,0.0,0.0,0.0,0.0,0.0,0.0,0.0,0.0,-1.5565,-1.6915,0.0,0.0,0.0,0.0,0.0,-1.8472,-1.8878,-1.887,-1.8162,-1.8161,-1.7888,-1.7132,-1.6736,-1.6508,-1.6494,-1.6508,-1.685,-1.7492,-1.7985,-1.8538,-1.9207,-1.9726,-2.0008,-2.0098,-2.0098,-2.0168,-2.0287,0.0,-2.0304,-2.0304,0.0,-1.9888,-1.9317,0.0,0.0,0.0,-1.9317,-1.9749,0.0,-1.8471,0.0,0.0,0.0,0.0,0.0,0.0,0.0,0.0,0.0,0.0,0.0,0.0,0.0,0.0,0.0,0.0,0.0,0.0,0.0,0.0,0.0,0.0,0.0,-2.1093,-2.0783,-2.0734,-2.1773,-2.1312,-2.1238,-2.2221,-2.2364,-2.2381,-2.2381,-2.2395,-2.2506,-2.2764,-2.2777,-2.2871,-2.3065,-2.3205,-2.3336,-2.3453,-2.3464,-2.3464,-2.3464,-2.3464,-2.3482,-2.3482,-2.3482,-2.3482,-2.3482,-2.3494,-2.3494,-2.3494,-2.3494,-2.3571,-2.3775,-2.4754,-2.4689,-2.4059,-2.4835,-2.5155,-2.5202,-2.5326,-2.6395,-2.7783,0.0,0.0,0.0,0.0,0.0,0.0,-1.5492,-1.5096,-1.5218,0.0,0.0,0.0,-1.7693,-1.7838,-1.7838,-1.7838,-1.7969,-1.8138,-1.8366,-1.8399,-1.8096,-1.7418,-1.7277,-1.7008,-1.6508,-1.698,-1.7306,-1.7492,-1.813,-1.8692,-1.9207,-1.9053,-1.9365,-2.0008,-1.9764,-1.9854,-2.0168,-2.027,0.0,-2.0273,-1.9765,-1.9749,0.0,0.0,0.0,0.0,0.0,-1.9997,-1.9866,0.0,-1.8822,-1.811,0.0,0.0,0.0,0.0,0.0,0.0,-1.5358,0.0,0.0,0.0,0.0,0.0,0.0,0.0,0.0,0.0,0.0,0.0,0.0,0.0,0.0,0.0,-1.9652,-1.963,-1.9923,-2.025,-2.0574,-2.0842,-2.1481,-2.1882,-2.1882,-2.2108,-2.2289,0.0,-2.2453,-2.2533,-2.2586,-2.2625,-2.2665,-2.2704,-2.2755,-2.2781,-2.2781,-2.2879,-2.2922,-2.2922,-2.2922,-2.2922,-2.2935,-2.3114,-2.3217,-2.3217,-2.3424,-2.351,-2.3567,-2.3856,-2.3842,-2.3652,-2.3878,-2.4338,-2.4841,-2.4887,-2.5889,-2.7234,0.0,0.0,0.0,0.0,0.0,-1.4508,-1.5043,-1.4908,-1.5034,0.0,0.0,0.0,-1.6978,-1.6861,-1.6915,-1.7388,-1.7382,-1.7588,-1.8165,-1.8206,-1.8034,-1.7636,-1.7449,-1.7188,-1.6791,-1.7174,-1.7371,-1.7371,-1.7942,-1.8364,-1.8621,-1.8577,-1.8879,-1.9402,-1.9203,0.0,0.0,0.0,0.0,0.0,-1.9873,0.0,0.0,-1.9291,-1.9333,0.0,0.0,0.0,-1.9235,-1.9096,-1.8452,0.0,0.0,0.0,0.0,0.0,0.0,0.0,0.0,0.0,0.0,0.0,0.0,0.0,-1.4031,-1.3925,-1.3724,0.0,0.0,0.0,0.0,0.0,0.0,0.0,-1.758,-1.8354,-1.902,-1.9172,-1.9449,-2.0103,-2.0659,-2.1138,-2.1509,-2.1705,-2.1866,-2.1984,-2.2068,-2.2164,-2.23,-2.233,-2.2341,-2.2409,-2.2449,-2.2321,-2.2009,-2.2378,-2.2422,-2.2125,-2.2422,-2.2577,-2.2577,-2.2751,-2.2816,-2.2816,-2.298,-2.3042,-2.3042,-2.3042,-2.3218,-2.3505,-2.3505,-2.3732,-2.4027,-2.4027,-2.4997,-2.6322,0.0,0.0,-1.2626,-1.3194,-1.3373,-1.3693,-1.4438,-1.4661,-1.4835,0.0,-1.5414,-1.5774,-1.6245,-1.5866,-1.6009,-1.7016,-1.7003,-1.7165,-1.77,-1.774,-1.774,-1.774,-1.7393,-1.7199,-1.7199,-1.7199,-1.7199,-1.7199,-1.7557,-1.776,-1.7808,-1.8187,-1.8442,-1.8592,-1.8553,0.0,0.0,0.0,0.0,-2.006,-2.017,-1.9849,0.0,0.0,-1.8873,-1.8839,-1.8593,-1.8523,-1.8488,-1.8169,-1.7541,0.0,0.0,0.0,0.0,0.0,-1.5826,0.0,0.0,0.0,0.0,0.0,0.0,0.0,-1.2246,-1.233,-1.2278,-1.0266,0.0,0.0,0.0,0.0,0.0,0.0,0.0,-1.7022,-1.8529,-1.8141,-1.8211,-1.9585,-1.9872,-2.0286,-2.1053,-2.1197,-2.134,-2.1602,-2.1649,-2.1781,-2.2079,-2.2093,-2.215,-2.2272,-2.2286,-2.1976,-2.1322,-2.199,-2.1973,-2.1352,-2.199,-2.23,-2.23,-2.2341,-2.2354,-2.2354,-2.2381,-2.2409,-2.2409,-2.2409,-2.2781,-2.3383,-2.3383,-2.3235,-2.3028,-2.3028,-2.3946,-2.5216,0.0,0.0,-1.2771,-1.2618,-1.3181,-1.3778,-1.421,-1.3934,-1.4085,-1.5199,-1.5859,-1.6075,-1.5709,-1.5996,-1.6297,-1.6532,-1.652,-1.6731,-1.7284,-1.7323,-1.7323,-1.7323,-1.724,-1.7199,-1.7199,-1.7199,-1.7199,-1.7199,-1.7282,-1.7475,-1.7787,-1.7557,-1.7828,-1.85,-1.8246,0.0,0.0,0.0,0.0,-1.8596,-1.9301,0.0,-1.966,-1.9388,-1.9276,-1.9276,-1.9221,-1.9038,-1.8782,-1.8493,-1.8289,-1.8147,0.0,0.0,0.0,0.0,0.0,0.0,0.0,0.0,0.0,0.0,0.0,0.0,-1.425,-1.4251,-1.4155,0.0,0.0,0.0,0.0,0.0,0.0,0.0,0.0,-1.6155,-1.6959,-1.7438,-1.7818,-1.8116,-1.9147,-1.9908,-2.0067,-2.0575,-2.099,-2.1198,-2.1309,-2.1402,-2.1479,-2.1479,-2.1494,-2.1508,-2.1569,-2.1517,-2.1369,-2.1625,-2.167,-2.1538,-2.1687,-2.1753,-2.1768,-2.1984,-2.2082,-2.2096,-2.2317,-2.2409,-2.2409,-2.2409,-2.2489,-2.2608,-2.2608,-2.2569,-2.2546,-2.2546,-2.3185,-2.4119,0.0,-1.2845,-1.3004,-1.2835,-1.3162,-1.3531,-1.376,-1.4022,-1.4489,-1.529,-1.5984,-1.6271,-1.597,-1.5944,-1.6179,-1.6741,-1.6794,-1.6911,-1.7186,-1.7473,-1.7512,-1.7212,-1.7199,-1.7199,-1.7199,-1.7199,-1.7199,-1.7199,-1.7199,-1.7303,-1.7496,-1.7303,-1.7288,-1.7474,-1.7558,-1.7558,0.0,0.0,-1.8259,-1.8275,-1.9082,0.0,-1.9155,-1.9137,-1.9139,-1.912,-1.9003,-1.8851,-1.8621,-1.8204,-1.8245,0.0,0.0,-1.8287,-1.7941,0.0,-1.7051,-1.6697,0.0,0.0,0.0,-1.5827,0.0,0.0,0.0,-1.3381,-1.2941,-1.2132,-1.1987,0.0,0.0,0.0,0.0,0.0,0.0,0.0,-1.5608,-1.6297,-1.6952,-1.7348,-1.8136,-1.8821,-1.926,-1.9909,-2.0495,-2.0926,-2.1006,-2.1087,-2.1183,-2.1198,-2.123,-2.1293,-2.134,-2.1193,-2.0836,-2.124,-2.1271,-2.096,-2.1287,-2.145,-2.145,-2.1586,-2.1661,-2.166,-2.1792,-2.1849,-2.1849,-2.1849,-2.1849,-2.1893,-2.2258,-2.2313,-2.2206,-2.2206,-2.2722,-2.3493,-1.3034,0.0,-1.328,-1.3369,-1.33,-1.3296,-1.3504,-1.4283,-1.5057,-1.564,-1.6205,-1.6598,-1.6702,-1.6179,-1.6232,-1.7277,-1.7264,-1.729,-1.7512,-1.7774,-1.7761,-1.7382,-1.7264,-1.7199,-1.7199,-1.7199,-1.7199,-1.7199,-1.7199,-1.7199,-1.7199,-1.7199,-1.6963,-1.6558,-1.6898,-1.6859,0.0,0.0,0.0,-1.8054,0.0,-1.8903,-1.8602,-1.8749,-1.8817,-1.8798,-1.8581,-1.8478,-1.8369,-1.7922,-1.8053,-1.84,-1.8439,-1.8439,0.0,0.0,0.0,0.0,0.0,0.0,0.0,0.0,0.0,-1.487,0.0,0.0,0.0,-1.0818,0.0,0.0,0.0,0.0,0.0,0.0,0.0,0.0,0.0,-1.502,0.0,-1.6848,-1.7069,-1.7491,-1.8451,-1.9171,-1.986,-2.0516,-2.0597,-2.0696,-2.086,-2.0877,-2.0926,-2.1039,-2.1039,-2.0767,-2.0239,-2.0767,-2.0767,-2.0239,-2.0767,-2.1039,-2.1023,-2.1119,-2.1167,-2.1167,-2.1167,-2.1167,-2.1167,-2.1071,-2.1039,-2.1103,-2.189,-2.2051,-2.1868,-2.1868,-2.2278,-2.2872,-1.2747,-1.3087,0.0,-1.399,-1.3634,-1.3459,-1.3948,-1.4158,-1.491,-1.6684,-1.7027,-1.7303,-1.7852,-1.7369,0.0,0.0,0.0,0.0,-1.8649,0.0,-1.7512,-1.797,-1.7486,-1.7199,-1.7199,-1.7199,-1.7199,-1.7199,-1.7199,-1.7199,-1.7199,-1.7199,-1.716,-1.7094,-1.6676,0.0,0.0,0.0,-1.6783,0.0,-1.7731,-1.8403,0.0,-1.8611,-1.8556,-1.8537,-1.8517,-1.84,-1.8248,0.0,-1.8206,-1.8003,0.0,-1.8242,-1.8115,-1.7632,0.0,0.0,0.0,0.0,0.0,0.0,-1.6347,0.0,0.0,0.0,-1.5149,-1.3938,0.0,0.0,0.0,0.0,0.0,0.0,0.0,0.0,-1.3544,-1.3822,-1.4642,-1.6287,-1.6099,-1.6263,-1.7451,-1.8333,-1.9082,-1.9692,-1.9899,-2.0022,-2.0039,-2.0039,-2.0039,-2.0056,-2.0056,-2.001,-1.9949,-2.001,-2.001,-1.9949,-2.001,-2.0056,-2.0074,-2.0497,-2.068,-2.068,-2.068,-2.068,-2.0647,-2.0229,-2.0056,-2.016,-2.1071,-2.1418,-2.1387,-2.1387,-2.1466,-2.1707,-1.3065,-1.304,0.0,0.0,-1.3495,-1.3191,-1.404,-1.5109,-1.6342,-1.7779,-1.8393,-1.8806,0.0,0.0,0.0,0.0,0.0,-1.8636,0.0,0.0,0.0,-1.8228,-1.8189,-1.7926,-1.7328,-1.7579,-1.7552,-1.7199,-1.7199,-1.7199,-1.7199,-1.7199,-1.7029,-1.6728,-1.682,0.0,-1.6762,0.0,-1.7036,0.0,0.0,0.0,0.0,-1.8189,-1.8143,-1.8143,-1.8143,-1.8103,-1.8043,0.0,-1.8043,0.0,0.0,0.0,0.0,0.0,0.0,0.0,0.0,0.0,0.0,0.0,0.0,0.0,-1.5665,0.0,-1.5089,0.0,0.0,0.0,0.0,0.0,0.0,0.0,-1.3292,0.0,0.0,0.0,-1.3448,0.0,0.0,0.0,-1.6773,-1.7533,-1.8221,-1.8903,-1.9361,-1.966,-1.9785,-1.9755,-1.9776,-1.9899,-1.9899,-1.9899,-1.9899,-1.9899,-1.9899,-1.9899,-1.9899,-1.9899,-1.9917,-2.0091,-2.0177,-2.0177,-2.0177,-2.0177,-2.0193,-1.9987,-1.9899,-1.9952,-2.0331,-2.0531,-2.0629,-2.0812,-2.0812,-2.0778,-1.3389,0.0,0.0,0.0,-1.347,-1.3255,-1.4497,-1.6071,-1.7566,-1.8734,-1.9242,0.0,-2.0009,-2.0035,0.0,0.0,-1.9878,-1.9706,0.0,0.0,-1.858,0.0,0.0,0.0,0.0,-1.7587,-1.7483,-1.6926,-1.6926,-1.6926,-1.6926,-1.6926,-1.672,-1.636,0.0,-1.669,-1.6502,0.0,-1.7158,-1.7413,-1.7413,-1.7488,-1.7604,-1.7821,-1.7902,-1.7902,-1.7902,-1.7862,-1.7788,-1.7754,-1.7652,0.0,-1.7522,0.0,0.0,0.0,0.0,0.0,-1.701,0.0,0.0,0.0,0.0,0.0,0.0,0.0,0.0,0.0,0.0,0.0,0.0,0.0,0.0,0.0,0.0,-1.2885,0.0,0.0,0.0,0.0,0.0,0.0,0.0,-1.6585,-1.7241,-1.8103,-1.863,-1.9038,-1.9347,-1.9332,-1.9358,-1.9522,-1.9522,-1.9522,-1.9522,-1.9522,-1.9522,-1.9522,-1.9522,-1.9522,-1.9522,-1.9651,-1.9704,-1.9704,-1.9704,-1.9704,-1.9704,-1.9576,-1.9522,-1.9522,-1.9522,-1.9591,-1.9764,-2.0243,-2.0278,-2.0158,-1.351,-1.3582,0.0,0.0,0.0,-1.4038,-1.568,-1.6816,-1.7979,-1.9367,0.0,0.0,0.0,0.0,0.0,0.0,0.0,-2.066,-2.062,0.0,-1.8252,0.0,0.0,-1.7432,0.0,0.0,-1.6716,-1.6244,-1.6244,-1.6244,-1.6244,-1.6244,-1.6231,-1.6194,-1.5957,-1.616,-1.668,-1.6502,-1.6735,-1.722,-1.722,-1.7018,-1.6829,0.0,-1.7902,-1.7902,-1.7902,0.0,0.0,-1.7366,-1.7055,-1.6723,-1.6586,0.0,0.0,0.0,0.0,0.0,0.0,0.0,0.0,-1.6222,0.0,0.0,0.0,0.0,-1.583,0.0,0.0,0.0,0.0,0.0,0.0,0.0,0.0,0.0,0.0,0.0,0.0,0.0,0.0,0.0,0.0,-1.5434,-1.6066,-1.726,-1.7548,-1.7918,-1.8509,-1.8537,-1.8537,-1.8542,-1.8542,-1.8542,-1.8542,-1.8542,-1.8542,-1.8542,-1.8542,-1.8542,-1.8562,-1.9016,-1.9225,-1.9225,-1.9225,-1.9225,-1.9188,-1.8741,-1.8542,-1.8542,-1.8542,-1.8634,-1.8831,-1.963,-1.9917,-1.9917,0.0,0.0,0.0,0.0,0.0,-1.3574,-1.5172,-1.6705,-1.8276,0.0,0.0,0.0,0.0,-2.3539,-2.3461,0.0,0.0,-2.1914,-2.09,-1.994,0.0,0.0,0.0,-1.8411,0.0,0.0,0.0,0.0,-1.6159,-1.5944,-1.5944,-1.5944,-1.5944,-1.5932,0.0,-1.6188,0.0,0.0,0.0,0.0,0.0,-1.647,-1.6414,0.0,-1.6968,-1.6757,-1.6757,-1.6727,-1.6629,-1.6586,-1.6479,-1.6362,-1.6318,-1.6371,-1.6436,-1.6253,-1.634,-1.6436,-1.6253,-1.6013,-1.579,-1.579,0.0,0.0,0.0,0.0,0.0,0.0,0.0,0.0,0.0,0.0,0.0,0.0,0.0,0.0,0.0,0.0,0.0,0.0,0.0,0.0,0.0,0.0,-1.53,-1.5805,-1.6734,-1.7468,-1.788,-1.8157,-1.8361,-1.8498,-1.8498,-1.8498,-1.8498,-1.8498,-1.8498,-1.8498,-1.8498,-1.8498,-1.8517,-1.8644,-1.8741,-1.8741,-1.8741,-1.8741,-1.8721,-1.8576,-1.8498,-1.854,-1.8947,-1.8675,-1.822,-1.9118,-1.9582,-1.9778,-1.3597,0.0,0.0,0.0,0.0,-1.4452,-1.545,-1.7482,0.0,0.0,-2.1693,0.0,-2.4259,0.0,-2.454,0.0,-2.359,-2.2671,-2.129,-2.0513,0.0,-1.8694,-1.9018,0.0,0.0,0.0,0.0,0.0,0.0,-1.5463,-1.5299,-1.5378,-1.54,-1.5423,0.0,-1.5991,-1.6001,0.0,-1.6392,0.0,0.0,-1.61,0.0,0.0,-1.625,-1.62,-1.62,-1.62,-1.6178,-1.6035,-1.5991,-1.5969,-1.5859,-1.5903,-1.5957,-1.5836,-1.5903,-1.5957,-1.5836,-1.5625,-1.5412,-1.5412,-1.5255,0.0,-1.5367,0.0,-1.5153,0.0,0.0,0.0,0.0,0.0,0.0,0.0,0.0,0.0,0.0,-1.2258,0.0,0.0,0.0,0.0,0.0,0.0,-1.4415,-1.4726,-1.5758,-1.6602,-1.7041,-1.7589,-1.7882,-1.7888,-1.8055,-1.8075,-1.7962,-1.8016,-1.8049,-1.8049,-1.8049,-1.8049,-1.8049,-1.8049,-1.8049,-1.8049,-1.8049,-1.8049,-1.8043,-1.8248,-1.8324,-1.8378,-1.8959,-1.8754,-1.8256,-1.9047,-1.936,-1.9376,0.0,0.0,0.0,0.0,-1.5525,0.0,0.0,0.0,-2.0693,0.0,-2.1967,-2.3225,-2.3418,-2.3876,-2.4202,-2.4202,-2.3756,-2.2978,-2.1823,-2.0876,0.0,0.0,-1.8725,-1.8128,-1.6492,0.0,0.0,0.0,0.0,-1.4851,-1.4417,-1.4604,-1.4685,-1.4708,-1.53,0.0,-1.5591,-1.6013,-1.6178,-1.6178,-1.6144,-1.5913,-1.5568,-1.5568,-1.5802,-1.6156,-1.6156,-1.6156,-1.6078,-1.5702,-1.5568,-1.5524,-1.5198,-1.5345,-1.5537,-1.5233,-1.538,-1.5572,-1.5245,-1.5142,-1.512,-1.5119,-1.5108,-1.5108,0.0,0.0,-1.5108,0.0,0.0,0.0,0.0,0.0,0.0,0.0,0.0,0.0,0.0,0.0,0.0,0.0,0.0,0.0,0.0,-1.3057,-1.3413,-1.3995,-1.4675,-1.5351,0.0,-1.682,-1.7113,-1.6807,-1.7222,-1.7318,-1.6993,-1.7123,-1.7178,-1.7178,-1.7199,-1.7199,-1.7199,-1.7199,-1.7199,-1.7199,-1.7199,-1.7199,-1.7217,-1.7748,-1.7982,-1.8048,-1.8601,-1.8825,-1.8897,-1.9409,-1.9256,-1.8796,-1.4128,-1.4687,-1.5194,0.0,-1.566,-1.5783,0.0,0.0,0.0,0.0,-2.239,-2.421,-2.5136,-2.5357,-2.5443,-2.5443,-2.4918,0.0,0.0,0.0,0.0,-1.8841,-1.886,-1.8354,-1.7166,-1.6987,0.0,-1.5802,0.0,0.0,-1.4615,-1.4322,-1.4291,-1.4489,0.0,0.0,-1.5244,-1.5591,-1.5758,-1.5724,-1.5491,-1.5311,-1.5221,0.0,-1.5289,-1.5379,-1.5379,-1.5379,-1.5356,-1.5255,-1.5221,-1.5221,-1.5131,-1.543,-1.5823,-1.5728,-1.5994,-1.6249,-1.582,-1.5705,-1.5613,-1.5211,-1.5108,-1.5108,-1.5108,-1.5108,0.0,0.0,0.0,0.0,0.0,0.0,0.0,0.0,0.0,0.0,0.0,0.0,0.0,-1.2048,0.0,0.0,0.0,-1.2585,-1.2857,-1.311,-1.4169,0.0,-1.5338,-1.6217,-1.674,-1.6807,-1.6925,-1.6946,-1.6862,-1.6896,-1.6896,-1.6896,-1.6993,-1.7047,-1.7047,-1.7144,-1.7144,-1.7047,-1.7047,-1.6993,-1.6934,-1.7483,-1.7705,-1.7795,-1.8734,-1.9216,-1.9409,-1.9599,-1.93,-1.8848,-1.4614,0.0,0.0,-1.6022,0.0,0.0,-1.6518,-1.8082,0.0,-2.0421,-2.2377,0.0,-2.4439,-2.4883,-2.517,-2.517,-2.4442,0.0,-2.2815,0.0,0.0,-1.9327,-1.9241,-1.8552,-1.7082,-1.6864,0.0,-1.5709,0.0,0.0,-1.4513,-1.4161,-1.4091,-1.4244,0.0,-1.4697,0.0,-1.5244,-1.539,-1.5367,-1.5176,-1.5108,0.0,-1.5372,-1.5315,-1.5142,-1.5372,-1.5303,-1.5108,-1.5108,-1.5108,-1.5108,-1.5108,-1.5475,-1.5911,-1.5911,-1.622,-1.6495,-1.6026,-1.59,-1.5774,-1.5234,-1.5108,-1.5108,-1.5108,-1.5108,-1.5108,-1.5108,-1.4949,-1.471,-1.444,0.0,0.0,0.0,0.0,0.0,0.0,0.0,0.0,0.0,-1.1635,0.0,0.0,-1.2018,-1.2407,-1.249,-1.3567,0.0,0.0,-1.5498,-1.6086,-1.6061,-1.6492,-1.6526,-1.616,-1.6404,-1.6426,-1.6235,-1.6312,-1.6333,-1.6346,-1.6411,-1.6526,-1.665,-1.665,-1.6742,-1.6921,-1.7465,-1.7687,-1.7773,-1.8597,-1.9024,-1.9176,-1.9205,-1.9046,-1.8833,-1.5256,0.0,0.0,0.0,0.0,0.0,0.0,-1.9107,0.0,-2.0702,0.0,-2.3153,-2.2903,-2.3603,-2.4097,-2.4097,0.0,-2.2684,-2.2615,-2.1788,-2.0822,-1.9734,-1.9659,-1.8702,-1.6685,-1.6565,0.0,0.0,0.0,0.0,-1.448,-1.4244,-1.4153,0.0,0.0,0.0,0.0,-1.5051,-1.512,-1.5119,-1.5188,-1.52,-1.5269,-1.5797,-1.5705,-1.536,-1.5762,-1.5567,-1.5108,-1.5108,-1.5108,-1.5119,-1.5188,-1.5579,-1.6015,-1.6084,-1.6415,-1.6679,-1.6223,-1.605,-1.5877,-1.5337,-1.5154,-1.5108,-1.5108,-1.5108,-1.5108,-1.5108,-1.472,-1.4396,-1.4373,0.0,0.0,0.0,0.0,0.0,0.0,0.0,0.0,0.0,0.0,0.0,0.0,0.0,0.0,0.0,0.0,0.0,0.0,0.0,-1.539,-1.5108,-1.5949,-1.6054,-1.5394,-1.5823,-1.5881,-1.5552,-1.5504,-1.5468,-1.5468,-1.5562,-1.5821,-1.6185,-1.6256,-1.6536,-1.6981,-1.7522,-1.7779,-1.7885,-1.8384,-1.856,-1.856,-1.856,-1.8652,-1.8718,0.0,0.0,0.0,0.0,0.0,-1.8865,-1.9872,-2.0694,-2.1237,-2.1402,-2.2931,-2.3996,-2.3925,-2.3682,-2.3545,-2.3545,-2.3029,0.0,0.0,0.0,0.0,-1.9757,-1.944,-1.8537,-1.689,-1.6401,-1.6074,0.0,0.0,0.0,-1.5442,-1.5029,-1.4928,0.0,0.0,0.0,-1.5274,-1.5322,0.0,-1.5142,-1.5579,-1.5751,-1.5809,-1.6302,-1.6415,-1.63,-1.6015,-1.5567,-1.5108,-1.5108,-1.5108,-1.5188,-1.5625,-1.6084,-1.6552,-1.7002,-1.7473,-1.7733,-1.7243,-1.6807,-1.6346,-1.5878,-1.5441,-1.5108,-1.5108,-1.5108,-1.5108,-1.5108,-1.472,-1.4373,-1.4246,-1.3345,0.0,0.0,0.0,0.0,0.0,0.0,0.0,0.0,0.0,-1.0711,0.0,0.0,0.0,0.0,0.0,0.0,0.0,0.0,-1.5153,-1.5108,-1.5268,-1.551,-1.5786,-1.5464,-1.5464,-1.5833,-1.5487,-1.5345,-1.5346,-1.5846,-1.6092,-1.6138,-1.652,-1.6678,-1.6708,-1.724,-1.7701,-1.8066,-1.8321,-1.8449,-1.8449,-1.8449,-1.8449,-1.8476,0.0,0.0,0.0,0.0,0.0,0.0,0.0,-2.1662,-2.2255,-2.1891,-2.2693,-2.3313,-2.3407,-2.3507,-2.3504,-2.3395,-2.2388,-2.1745,-2.163,-2.1238,-2.0413,-1.9246,-1.9029,-1.8242,-1.6733,-1.631,-1.6067,-1.5992,0.0,0.0,-1.568,-1.5214,0.0,0.0,0.0,-1.5178,0.0,0.0,-1.5091,-1.5432,-1.5626,-1.5846,-1.6117,-1.6768,-1.6853,-1.6598,-1.6658,-1.6336,-1.5796,-1.5292,-1.5108,-1.52,-1.5716,-1.6221,-1.6701,-1.7258,-1.7737,-1.8008,-1.7545,-1.7223,-1.6887,-1.6382,-1.6072,-1.5793,-1.548,-1.5196,-1.496,-1.4852,-1.4042,-1.3341,-1.3294,-1.2851,-1.2584,0.0,0.0,0.0,0.0,0.0,0.0,0.0,0.0,0.0,0.0,0.0,0.0,0.0,0.0,0.0,0.0,0.0,-1.4743,-1.4743,-1.4978,-1.496,-1.471,-1.4971,-1.5236,-1.5482,-1.5565,-1.5729,-1.5983,-1.6274,-1.6553,-1.6794,-1.7023,-1.7034,-1.6919,-1.6857,-1.7153,-1.7611,-1.739,-1.7678,-1.822,-1.7897,-1.7991,-1.8247,0.0,-2.0166,0.0,0.0,-2.1321,-2.1683,-2.1321,-2.2147,-2.2676,-2.2231,-2.2383,-2.259,-2.2763,-2.314,-2.327,-2.3047,-2.1696,-2.094,-2.1119,-2.0478,-1.9725,-1.8884,-1.8779,-1.8129,-1.6743,-1.6351,-1.6145,0.0,0.0,0.0,-1.5825,-1.5463,0.0,0.0,0.0,0.0,0.0,-1.4933,-1.5105,-1.5705,-1.5772,-1.602,-1.6434,-1.719,-1.7237,-1.6928,-1.7136,-1.7014,-1.6621,-1.5668,-1.536,-1.5487,-1.5808,-1.6313,-1.6839,-1.7292,-1.7737,-1.802,-1.7645,-1.7345,-1.7058,-1.6672,-1.6365,-1.6058,-1.5614,-1.5085,-1.4658,-1.4517,-1.3338,-1.234,-1.2252,-1.2276,-1.2448,0.0,0.0,0.0,0.0,0.0,0.0,0.0,0.0,0.0,-0.9831,0.0,0.0,0.0,0.0,0.0,-1.2742,0.0,-1.4017,-1.4233,-1.4506,-1.4411,-1.39,-1.4712,-1.5195,-1.5392,-1.5841,-1.6231,-1.6598,-1.6713,-1.7002,-1.7407,-1.7379,-1.7227,-1.6978,-1.65,-1.6585,-1.695,-1.6472,-1.6877,-1.765,-1.7185,-1.7296,-1.7717,0.0,0.0,0.0,0.0,0.0,-2.1797,-2.1745,-2.1845,-2.2008,-2.2323,-2.2717,-2.2951,-2.2981,-2.259,-2.2196,-2.1796,-2.119,-2.0642,-2.026,-2.0161,-1.9878,-1.9375,-1.9028,-1.8412,-1.7443,-1.672,-1.6368,0.0,0.0,-1.5856,-1.634,-1.6299,0.0,0.0,-1.605,-1.5924,-1.5414,-1.5717,-1.5796,-1.576,-1.648,-1.68,-1.689,-1.747,-1.7802,-1.7836,-1.6935,-1.689,-1.7194,-1.6367,-1.6262,-1.6392,-1.6026,-1.6554,-1.7338,-1.7384,-1.7737,-1.81,-1.8054,-1.7194,-1.6337,-1.6486,-1.5648,-1.4809,-1.4867,-1.4466,-1.4073,-1.4073,-1.3081,-1.212,-1.181,-1.1569,-1.1469,-1.1619,0.0,0.0,0.0,0.0,0.0,0.0,0.0,0.0,0.0,-1.0188,0.0,0.0,-1.0903,0.0,0.0,-1.2483,-1.2796,-1.3661,-1.3353,-1.3729,-1.4862,-1.5035,-1.5534,-1.6372,-1.6483,-1.6552,-1.6621,-1.7094,-1.7361,-1.7392,-1.7262,-1.6907,-1.6397,-1.633,-1.633,-1.6397,-1.6312,-1.6368,-1.6454,-1.6415,-1.6415,-1.6482,0.0,0.0,0.0,0.0,0.0,-2.2221,-2.2221,-2.2221,-2.2195,-2.2067,-2.2881,-2.3474,-2.3433,-2.2788,-2.2168,-2.1658,-2.0488,-1.9796,-1.9802,-1.9616,-1.9284,-1.8818,-1.8669,-1.8145,-1.7216,-1.69,-1.6643,0.0,0.0,0.0,0.0,-1.6413,-1.6309,-1.6122,-1.6011,-1.5991,-1.5959,-1.5572,-1.5689,-1.6134,-1.6353,-1.6591,-1.6873,-1.7263,-1.7479,-1.7501,-1.7082,-1.7071,-1.7184,-1.659,-1.6494,-1.6564,-1.6369,-1.6681,-1.7096,-1.7096,-1.7124,-1.7168,-1.7279,-1.6654,-1.6022,-1.62,-1.5797,-1.5247,-1.4919,-1.4282,-1.3784,-1.3857,-1.3109,-1.2248,-1.1588,-1.1452,-1.1418,-1.1377,0.0,0.0,0.0,0.0,0.0,0.0,0.0,0.0,0.0,0.0,0.0,0.0,0.0,0.0,0.0,-1.2237,-1.2602,-1.3228,-1.3071,-1.3254,-1.3781,-1.4136,-1.4698,-1.5482,-1.5828,-1.6133,-1.6429,-1.665,-1.6737,-1.672,-1.6285,-1.5968,-1.5719,-1.5381,-1.5439,-1.5719,-1.5352,-1.5661,-1.6255,-1.5882,-1.5997,-1.6312,-2.336,-2.3122,-2.3049,-2.3505,-2.3101,-2.2697,-2.2697,-2.247,-2.2221,-2.2035,-2.2953,-2.343,-2.3004,-2.244,-2.1802,-2.1137,-1.9986,-1.9354,-1.945,-1.9241,-1.8953,-1.8631,-1.8611,0.0,-1.742,-1.7275,-1.6996,-1.657,-1.6446,0.0,0.0,-1.6413,-1.633,-1.6195,-1.598,-1.6029,-1.6174,-1.5628,-1.5784,-1.6381,-1.6335,-1.6492,-1.6807,-1.7004,-1.7145,-1.72,-1.6881,-1.6853,-1.6901,-1.6375,-1.6251,-1.6373,-1.6325,-1.6543,-1.6769,-1.6627,-1.6447,-1.634,-1.6482,-1.6016,-1.5526,-1.5689,-1.5468,-1.5099,-1.4717,-1.4033,-1.3451,-1.34,-1.2842,-1.2183,-1.1559,-1.1446,-1.1418,-1.1326,-1.1396,0.0,0.0,-1.1148,0.0,0.0,-1.0642,-1.0479,-1.0613,-1.0614,0.0,0.0,0.0,0.0,0.0,-1.1776,-1.2073,-1.2739,-1.2637,-1.2765,-1.3119,-1.3735,-1.4319,-1.4903,-1.5513,-1.5983,-1.6312,-1.6244,-1.613,-1.594,-1.5459,-1.5147,-1.4951,-1.4586,-1.4704,-1.504,-1.4654,-1.502,-1.5719,-1.5294,-1.5381,-1.5709,-2.3815,-2.3909,-2.4002,-2.4404,-2.3774,-2.3184,-2.3184,-2.2397,-2.1973,-2.2428,-2.2894,-2.2666,-2.128,-2.1124,-2.0762,-1.992,-1.9793,-1.9596,-1.9129,-1.9108,-1.9108,0.0,0.0,-1.888,-1.8403,-1.7915,-1.7471,-1.6977,0.0,0.0,-1.6413,-1.6413,-1.6164,-1.5739,-1.6205,-1.6153,-1.5732,-1.6205,-1.6392,-1.6431,-1.6705,-1.6779,-1.6818,-1.6818,-1.7015,-1.7166,-1.6105,-1.6056,-1.6397,-1.5661,-1.5594,-1.5796,-1.5722,-1.6074,-1.6416,-1.5955,-1.581,-1.5815,-1.5815,-1.5255,-1.4757,-1.4875,-1.4371,-1.386,-1.398,-1.3591,-1.3061,-1.253,-1.2098,-1.1815,-1.1815,-1.1524,-1.1301,-1.1301,-1.1593,0.0,0.0,-1.1567,0.0,-1.1336,-1.1293,-1.1057,-1.0446,-1.0395,0.0,0.0,0.0,0.0,0.0,-1.0931,-1.0906,-1.2175,-1.1822,-1.2184,-1.3396,-1.4185,-1.4782,-1.5196,-1.593,-1.6301,-1.6312,-1.6159,-1.5796,-1.5196,-1.5011,-1.4569,-1.404,-1.4228,-1.4306,-1.4336,-1.4446,-1.4506,-1.4515,-1.4506,-1.4417,-1.4327,-2.4302,-2.4333,-2.4281,-2.4115,-2.3588,-2.308,-2.277,-2.2201,-2.1859,-2.2004,-2.2428,-2.2304,-2.1238,-2.1683,-2.1559,0.0,-1.9969,-1.9596,0.0,-1.9108,-1.9108,-1.9108,-1.9108,-1.888,-1.8424,-1.8247,-1.7802,-1.7017,-1.6872,-1.6674,-1.6413,-1.6413,-1.633,-1.6195,-1.634,-1.6148,-1.5741,-1.6197,-1.6202,-1.5943,-1.6019,-1.6048,-1.6019,-1.5652,-1.5565,-1.5613,-1.5284,-1.5274,-1.5371,-1.5147,-1.5118,-1.5187,-1.5173,-1.5443,-1.5658,-1.5115,-1.4849,-1.4736,-1.4874,-1.4392,-1.3923,-1.4112,-1.3872,-1.3601,-1.3662,-1.3545,-1.3218,-1.2554,-1.2509,-1.2458,-1.1909,-1.1712,-1.1635,-1.1635,-1.1541,0.0,-1.1618,0.0,-1.1413,-1.131,-1.1301,-1.1065,-1.0454,-1.0403,0.0,0.0,0.0,0.0,0.0,-1.1404,-1.1636,-1.2301,-1.2493,-1.2893,-1.3675,-1.3942,-1.4173,-1.4389,-1.4617,-1.4726,-1.4726,-1.4697,-1.4558,-1.4389,-1.4321,-1.4181,-1.401,-1.4079,-1.4109,-1.4109,-1.413,-1.4169,-1.4169,-1.4169,-1.4139,-1.4109,-2.4497,-2.4497,-2.4404,-2.4178,-2.3753,-2.3287,-2.2832,-2.2366,-2.2004,-2.1828,-2.2211,-2.2273,-2.1694,-2.2304,-2.2056,-2.0327,-1.9958,-1.9596,-1.9139,-1.9108,-1.9108,-1.9108,-1.9108,-1.8963,-1.8673,-1.8497,-1.8102,-1.7513,-1.6991,-1.6506,-1.6057,-1.5916,-1.5846,-1.5846,-1.5846,-1.5662,-1.543,-1.572,-1.5672,-1.54,-1.54,-1.54,-1.5371,-1.504,-1.4893,-1.4893,-1.4686,-1.4563,-1.4452,-1.4394,-1.4289,-1.4227,-1.4335,-1.4529,-1.465,-1.4495,-1.4209,-1.3971,-1.4082,-1.3812,-1.3541,-1.367,-1.3601,-1.3511,-1.3511,-1.3511,-1.3374,-1.2903,-1.2894,-1.2783,-1.2139,-1.202,-1.1977,-1.1814,-1.1756,-1.173,-1.1798,0.0,-1.149,0.0,0.0,-1.0905,-1.0376,-1.0095,-1.0019,0.0,0.0,0.0,-1.1155,-1.1735,-1.2149,-1.2381,-1.2803,-1.321,-1.367,-1.3761,-1.383,-1.392,-1.398,-1.401,-1.401,-1.395,-1.392,-1.392,-1.3851,-1.3821,-1.3821,-1.389,-1.392,-1.392,-1.398,-1.401,-1.401,-1.401,-1.398,-1.392,-2.4497,-2.4497,-2.4487,-2.4456,-2.4126,-2.367,-2.3215,-2.277,-2.2335,-2.1869,-2.2242,-2.2532,-2.2501,-2.2915,-2.2304,-2.0135,-1.9938,-1.971,-1.9181,-1.915,-1.9139,-1.9108,-1.9065,-1.9031,-1.9031,-1.8585,-1.8316,-1.8285,-1.6918,-1.6004,-1.5487,-1.5081,-1.4893,-1.4893,-1.4893,-1.4893,-1.4863,-1.4893,-1.4893,-1.4863,-1.4863,-1.4863,-1.4863,-1.4834,-1.4804,-1.4745,-1.4309,-1.3947,-1.3658,-1.354,-1.3288,-1.3103,-1.3399,-1.3511,-1.3601,-1.401,-1.3851,-1.3511,-1.3511,-1.3511,-1.3511,-1.3511,-1.3511,-1.3511,-1.3511,-1.3511,-1.3511,-1.3511,-1.3245,-1.2923,-1.25,-1.2432,-1.2312,-1.1917,-1.2086,-1.2172,-1.1813,-1.1709,-1.1682,-1.1682,0.0,-1.0616,-1.0193,-0.9584,-0.9124,0.0,0.0,0.0,-1.0887,-1.1911,-1.2455,-1.2432,-1.2837,-1.3177,-1.3502,-1.37,-1.3778,-1.3804,-1.399,-1.402,-1.3994,-1.39,-1.3822,-1.3769,-1.3606,-1.3536,-1.3511,-1.3726,-1.3795,-1.3799,-1.3946,-1.4024,-1.3985,-1.3989,-1.3907,-1.3834,-2.4497,-2.4497,-2.4394,-2.4095,-2.366,-2.3194,-2.2729,-2.2563,-2.2335,-2.1869,-2.2511,-2.2894,-2.2532,-2.2915,-2.2687,-2.1435,-2.1321,-2.0834,-1.971,-1.9627,-1.9471,-1.9119,-1.8707,-1.8506,-1.8506,-1.7924,-1.7475,-1.7189,-1.6162,-1.5619,-1.5487,-1.5081,-1.4893,-1.4893,-1.4893,-1.4686,-1.4398,-1.4745,-1.4686,-1.4369,-1.4369,-1.4369,-1.4339,-1.3962,-1.3833,-1.3812,-1.3722,-1.3601,-1.354,-1.3507,-1.3451,-1.3399,-1.3476,-1.3511,-1.3511,-1.3631,-1.3601,-1.3511,-1.3511,-1.3511,-1.3511,-1.3511,-1.3511,-1.3511,-1.3511,-1.3511,-1.3511,-1.3511,-1.3442,-1.3271,-1.2932,-1.2872,-1.2743,-1.2321,-1.1728,-1.1301,-1.1193,-1.0748,-1.0443,0.0,-1.0468,-1.0314,-0.9788,-0.9595,-0.9482,-0.9409,0.0,-1.0079,-1.0519,-1.2045,-1.2904,-1.286,-1.3194,-1.3425,-1.3511,-1.3541,-1.3726,-1.4027,-1.436,-1.4374,-1.4098,-1.4368,-1.4147,-1.3588,-1.3858,-1.3785,-1.3536,-1.3867,-1.3846,-1.3606,-1.3937,-1.4089,-1.4046,-1.3744,-1.3791,-1.3984,-2.4497,-2.4497,-2.4425,-2.4219,-2.3971,-2.366,-2.3194,-2.3132,-2.2956,-2.2501,-2.2687,-2.2853,-2.2811,-2.3039,-2.2904,-2.218,-2.1921,-2.1199,-1.9778,-1.9479,-1.9152,-1.8626,-1.813,-1.7896,-1.7896,-1.7588,-1.7167,-1.6705,-1.5914,-1.5381,-1.5138,-1.4731,-1.4541,-1.4541,-1.4541,-1.4398,-1.4175,-1.4222,-1.4112,-1.3881,-1.3881,-1.3881,-1.3851,-1.3601,-1.3511,-1.3511,-1.3511,-1.3399,-1.3288,-1.3459,-1.3399,-1.3297,-1.3459,-1.3511,-1.3511,-1.3511,-1.3511,-1.3511,-1.3511,-1.3511,-1.3511,-1.3511,-1.3511,-1.3511,-1.3511,-1.3511,-1.3511,-1.3511,-1.3511,-1.3399,-1.3048,-1.3146,-1.304,-1.2483,-1.1779,-1.1264,-1.1193,-1.0506,-1.0117,-1.0414,-1.0306,-1.0118,-0.986,-0.9534,-0.9311,-0.9214,-0.9485,-0.9868,-1.0414,-1.149,-1.2226,-1.2522,-1.3342,-1.3776,-1.3776,-1.3956,-1.4153,-1.4367,-1.4614,-1.4605,-1.4367,-1.459,-1.4453,-1.4067,-1.4444,-1.4393,-1.4067,-1.4273,-1.4238,-1.405,-1.4084,-1.4307,-1.4564,-1.4187,-1.4179,-1.4307,-2.4497,-2.4411,-2.4348,-2.4276,-2.4223,-2.4069,-2.3544,-2.3617,-2.3546,-2.2961,-2.2574,-2.2522,-2.2941,-2.2992,-2.2788,-2.24,-2.1951,-2.1126,-1.9707,-1.9193,-1.8653,-1.8022,-1.7586,-1.7335,-1.727,-1.721,-1.6934,-1.6473,-1.5752,-1.5183,-1.4752,-1.4247,-1.4067,-1.4179,-1.4059,-1.4042,-1.4067,-1.3673,-1.3511,-1.3511,-1.3511,-1.3511,-1.3511,-1.3511,-1.3511,-1.3511,-1.3511,-1.3314,-1.3138,-1.3408,-1.3305,-1.3146,-1.3408,-1.3511,-1.3511,-1.3511,-1.3511,-1.3511,-1.3511,-1.3511,-1.3511,-1.3511,-1.3511,-1.3511,-1.3511,-1.3511,-1.3511,-1.3511,-1.3511,-1.3417,-1.3146,-1.3305,-1.325,-1.2473,-1.1886,-1.1437,-1.1177,-1.0375,-1.0045,-1.0632,-1.0231,-0.9923,-1.0001,-0.9525,-0.9125,-0.8903,-0.9131,-0.963,-1.0444,-1.0824,-1.1316,-1.1881,-1.3143,-1.3884,-1.4011,-1.4531,-1.4769,-1.4769,-1.4829,-1.4821,-1.4769,-1.4829,-1.4828,-1.4701,-1.506,-1.5009,-1.4692,-1.4804,-1.4786,-1.4667,-1.4435,-1.4744,-1.5257,-1.4838,-1.4828,-1.4855,-2.4497,-2.4024,-2.3514,-2.3135,-2.3066,-2.2705,-2.1697,-2.235,-2.2597,-2.155,-2.1671,-2.1853,-2.192,-2.193,-2.1901,-2.1834,-2.1502,-2.0963,-2.0145,-1.9484,-1.8796,-1.805,-1.7512,-1.707,-1.6716,-1.6281,-1.6008,-1.5938,-1.5178,-1.4937,-1.5112,-1.4076,-1.3956,-1.4596,-1.3896,-1.3785,-1.4067,-1.3673,-1.3511,-1.3511,-1.3511,-1.3511,-1.3511,-1.3511,-1.3511,-1.3511,-1.3511,-1.3476,-1.3434,-1.3485,-1.3468,-1.3434,-1.3485,-1.3511,-1.3511,-1.3511,-1.3511,-1.3511,-1.3511,-1.3511,-1.3511,-1.3511,-1.3511,-1.3511,-1.3511,-1.3511,-1.3511,-1.3511,-1.3511,-1.3494,-1.3434,-1.3468,-1.3186,-1.2209,-1.1565,-1.088,-0.999,-0.9426,-0.9156,-0.9358,-0.9387,-0.947,-0.9577,-0.9713,-0.9763,-0.9727,-0.9961,-1.0198,-1.0303,-1.1222,-1.1639,-1.1417,-1.2164,-1.2925,-1.3588,-1.4597,-1.5129,-1.5137,-1.5471,-1.5454,-1.5137,-1.5471,-1.5283,-1.4701,-1.506,-1.5009,-1.4768,-1.5369,-1.5257,-1.4777,-1.5317,-1.5608,-1.5625,-1.4941,-1.5317,-1.5899,-2.3377,-2.3343,-2.3144,-2.2688,-2.239,-2.2106,-2.183,-2.2265,-2.2409,-2.1864,-2.1755,-2.1683,-2.1683,-2.1683,-2.1547,-2.1102,-2.081,-2.0369,-1.9598,-1.9047,-1.8455,-1.7744,-1.7066,-1.6525,-1.6184,-1.5938,-1.5805,-1.5805,-1.524,-1.5052,-1.5163,-1.4478,-1.4435,-1.4932,-1.417,-1.4042,-1.4384,-1.399,-1.3708,-1.3528,-1.3742,-1.3699,-1.3511,-1.3511,-1.3511,-1.3511,-1.3511,-1.3511,-1.3511,-1.3511,-1.3511,-1.3511,-1.3511,-1.3511,-1.3511,-1.3511,-1.3511,-1.3511,-1.3511,-1.3511,-1.3511,-1.3511,-1.3511,-1.3511,-1.3511,-1.323,-1.2948,-1.2948,-1.2665,-1.2412,-1.2412,-1.2358,-1.2096,-1.1406,-1.0719,-1.013,-0.9628,-0.9211,-0.9024,-0.9233,-0.9406,-0.9529,-0.9602,-0.9808,-0.9947,-0.9947,-1.0288,-1.0509,-1.0509,-1.1009,-1.124,-1.1031,-1.1962,-1.2883,-1.3828,-1.4404,-1.4983,-1.5531,-1.5263,-1.507,-1.487,-1.466,-1.4387,-1.4103,-1.4877,-1.5004,-1.4699,-1.5476,-1.56,-1.5326,-1.5668,-1.6045,-1.6336,-1.5823,-1.5801,-1.5861,-2.2394,-2.257,-2.257,-2.2217,-2.1872,-2.1695,-2.1872,-2.205,-2.2094,-2.1917,-2.1595,-2.1348,-2.1348,-2.1348,-2.1108,-2.05,-2.0177,-1.9704,-1.9074,-1.8567,-1.806,-1.7514,-1.6739,-1.6171,-1.5934,-1.5848,-1.5805,-1.5805,-1.5403,-1.5266,-1.5343,-1.4889,-1.4923,-1.5309,-1.447,-1.4316,-1.4658,-1.4264,-1.3922,-1.3673,-1.3973,-1.3913,-1.3639,-1.3545,-1.3511,-1.348,-1.342,-1.342,-1.348,-1.342,-1.345,-1.3511,-1.3511,-1.3511,-1.348,-1.342,-1.3449,-1.3548,-1.3617,-1.3579,-1.3554,-1.3733,-1.3648,-1.3528,-1.3622,-1.3044,-1.2512,-1.2512,-1.1981,-1.1507,-1.158,-1.1442,-1.1155,-1.0759,-1.0201,-0.9712,-0.9506,-0.9259,-0.9207,-0.944,-0.9564,-0.9671,-0.9706,-0.9898,-1.0038,-1.0038,-1.0414,-1.0694,-1.0723,-1.0801,-1.0822,-1.088,-1.1876,-1.2756,-1.352,-1.3825,-1.4389,-1.5185,-1.4584,-1.4325,-1.4365,-1.3704,-1.3418,-1.3469,-1.431,-1.4491,-1.4286,-1.5116,-1.5394,-1.5336,-1.5677,-1.6094,-1.6447,-1.6116,-1.5844,-1.5407,-2.2394,-2.1917,-2.1526,-2.149,-2.1445,-2.1221,-2.0555,-2.1042,-2.1221,-2.0555,-2.0439,-2.0376,-2.0376,-2.0376,-2.0359,-2.0307,-1.9687,-1.923,-1.9178,-1.8441,-1.7874,-1.7523,-1.6739,-1.6283,-1.6257,-1.5968,-1.5805,-1.5805,-1.5403,-1.5403,-1.5745,-1.5018,-1.5069,-1.5711,-1.4598,-1.4316,-1.4658,-1.4264,-1.4084,-1.4059,-1.4084,-1.4076,-1.4016,-1.3648,-1.3511,-1.345,-1.3164,-1.3246,-1.345,-1.3133,-1.3246,-1.3511,-1.3511,-1.3511,-1.345,-1.3133,-1.3304,-1.3663,-1.3956,-1.3785,-1.3682,-1.4418,-1.405,-1.3605,-1.3973,-1.3256,-1.2512,-1.2512,-1.1981,-1.158,-1.1829,-1.157,-1.1178,-1.0784,-1.0515,-1.0108,-0.9497,-0.9423,-0.9528,-0.9678,-0.9596,-0.9572,-0.9671,-0.9946,-1.0083,-1.0083,-1.0347,-1.0636,-1.0883,-1.0873,-1.0987,-1.1169,-1.1575,-1.1786,-1.1896,-1.2638,-1.3116,-1.3384,-1.3346,-1.3425,-1.3673,-1.3373,-1.3233,-1.3226,-1.3123,-1.3069,-1.3105,-1.4022,-1.4199,-1.3992,-1.5292,-1.5602,-1.5293,-1.4964,-1.4895,-1.472,-2.1078,-2.0907,-2.0736,-2.0736,-2.0736,-2.06,-2.0337,-2.0555,-2.06,-2.0337,-2.0292,-2.0292,-2.0292,-2.0292,-2.0062,-1.9555,-1.9025,-1.8554,-1.7989,-1.7499,-1.7299,-1.7483,-1.697,-1.6584,-1.6381,-1.5985,-1.5805,-1.5805,-1.5651,-1.5503,-1.5417,-1.4881,-1.4695,-1.478,-1.3844,-1.3533,-1.3696,-1.3778,-1.3655,-1.3444,-1.3696,-1.3785,-1.368,-1.3112,-1.3003,-1.3164,-1.2797,-1.2904,-1.3184,-1.3035,-1.3211,-1.3485,-1.3485,-1.3485,-1.3485,-1.3365,-1.3429,-1.3606,-1.3998,-1.4154,-1.4316,-1.4607,-1.4145,-1.3549,-1.355,-1.2544,-1.1593,-1.1418,-1.087,-1.0407,-1.052,-1.0356,-1.0117,-0.9999,-0.9793,-0.9576,-0.9307,-0.9428,-0.9586,-0.9622,-0.9854,-1.0002,-1.0072,-1.0401,-1.0617,-1.0617,-1.0954,-1.1152,-1.1101,-1.0976,-1.0861,-1.0829,-1.0971,-1.1366,-1.2131,-1.2318,-1.2757,-1.3452,-1.294,-1.2766,-1.2837,-1.2215,-1.1889,-1.1806,-1.2189,-1.2265,-1.2224,-1.3065,-1.3338,-1.3266,-1.4022,-1.4224,-1.4066,-1.3954,-1.3769,-1.3428,-2.0292,-2.0292,-2.0292,-2.0292,-2.0292,-2.0292,-2.0292,-2.0292,-2.0292,-2.0292,-2.0292,-2.0292,-2.0292,-2.0292,-1.9957,-1.9104,-1.8731,-1.8145,-1.7278,-1.6887,-1.6871,-1.7219,-1.686,-1.6589,-1.633,-1.5853,-1.5574,-1.5574,-1.5457,-1.5284,-1.5018,-1.4746,-1.4493,-1.4295,-1.363,-1.3361,-1.3434,-1.3648,-1.3616,-1.336,-1.3656,-1.3677,-1.3461,-1.2877,-1.2812,-1.2967,-1.2617,-1.2782,-1.3145,-1.3048,-1.3204,-1.35,-1.35,-1.3433,-1.339,-1.3626,-1.359,-1.3635,-1.4111,-1.4453,-1.4655,-1.4655,-1.4115,-1.351,-1.3245,-1.2193,-1.1136,-1.0788,-1.0182,-0.9729,-0.9808,-0.9663,-0.9558,-0.9708,-0.9545,-0.9459,-0.9534,-0.976,-0.9911,-0.9911,-1.0202,-1.0401,-1.0401,-1.0621,-1.0794,-1.0794,-1.1105,-1.1243,-1.1154,-1.1062,-1.0941,-1.0817,-1.0823,-1.1219,-1.2062,-1.1779,-1.2012,-1.2781,-1.2218,-1.1978,-1.2021,-1.1421,-1.102,-1.0824,-1.1274,-1.1353,-1.1186,-1.1916,-1.2241,-1.2298,-1.2858,-1.2979,-1.2873,-1.2855,-1.257,-1.2069,-2.0292,-2.0292,-2.0292,-2.0292,-2.0292,-2.0292,-2.0292,-2.0292,-2.0292,-2.0292,-2.0292,-2.0292,-2.0292,-2.0292,-1.9966,-1.9165,-1.874,-1.8145,-1.7355,-1.6921,-1.6689,-1.6689,-1.6397,-1.6206,-1.6206,-1.5493,-1.5099,-1.5099,-1.4787,-1.4613,-1.4605,-1.4605,-1.4605,-1.4581,-1.4233,-1.4074,-1.4109,-1.4074,-1.4074,-1.4074,-1.4074,-1.3902,-1.3553,-1.3146,-1.3012,-1.2948,-1.2626,-1.2939,-1.3441,-1.3099,-1.3207,-1.3508,-1.3508,-1.3274,-1.3141,-1.3876,-1.3874,-1.3735,-1.4403,-1.4605,-1.4605,-1.4605,-1.4055,-1.346,-1.3254,-1.2386,-1.1416,-1.0833,-1.0153,-0.9791,-1.0035,-0.9781,-0.9674,-1.0146,-1.004,-1.0013,-1.0261,-1.0453,-1.0597,-1.0597,-1.0597,-1.0597,-1.0597,-1.0603,-1.0603,-1.0603,-1.0603,-1.0699,-1.0977,-1.1177,-1.1305,-1.1305,-1.1305,-1.1305,-1.1305,-1.0839,-1.0756,-1.0988,-1.0988,-1.1112,-1.13,-1.1095,-1.0859,-1.0581,-1.0401,-1.0153,-0.996,-1.0556,-1.0818,-1.0887,-1.1872,-1.2027,-1.1701,-1.1701,-1.1329,-1.0741,-2.0292,-2.0292,-2.0292,-2.0292,-2.0292,-2.0292,-2.0292,-2.0292,-2.0292,-2.0292,-2.0292,-2.0292,-2.0292,-2.0019,-1.9559,-1.8959,-1.8261,-1.7407,-1.6407,-1.5985,-1.5797,-1.5797,-1.6034,-1.6206,-1.6206,-1.573,-1.5462,-1.5462,-1.536,-1.502,-1.4511,-1.4511,-1.4156,-1.3467,-1.3362,-1.3189,-1.2987,-1.3219,-1.3317,-1.3317,-1.3317,-1.3396,-1.3481,-1.2874,-1.2813,-1.2946,-1.2606,-1.2788,-1.314,-1.3036,-1.3227,-1.3491,-1.3491,-1.3576,-1.3703,-1.367,-1.3463,-1.3239,-1.3221,-1.338,-1.3725,-1.4408,-1.4081,-1.3381,-1.2727,-1.1924,-1.111,-1.0287,-1.0146,-1.0144,-1.0215,-1.0269,-1.03,-1.048,-1.0423,-1.041,-1.0485,-1.0554,-1.0597,-1.0597,-1.0783,-1.088,-1.088,-1.0994,-1.1096,-1.1096,-1.1096,-1.1128,-1.1193,-1.1268,-1.1305,-1.1305,-1.1305,-1.1305,-1.1305,-1.1166,-1.1128,-1.1198,-1.1198,-1.1236,-1.1305,-1.123,-1.1112,-1.0875,-1.081,-1.0643,-1.0372,-1.044,-1.0451,-1.0467,-1.0581,-1.055,-1.0449,-1.0447,-1.0317,-1.0154,-2.0292,-2.0147,-2.0011,-2.0011,-1.9837,-1.97,-1.97,-1.97,-1.97,-1.97,-1.97,-1.97,-1.97,-1.9463,-1.9039,-1.84,-1.7461,-1.6624,-1.5943,-1.5571,-1.5389,-1.5389,-1.5725,-1.5896,-1.5896,-1.5525,-1.5317,-1.5317,-1.5226,-1.4866,-1.4298,-1.4298,-1.3911,-1.3199,-1.3199,-1.3089,-1.2921,-1.3119,-1.3199,-1.3199,-1.3199,-1.3232,-1.3267,-1.2858,-1.2812,-1.2971,-1.2932,-1.3119,-1.3411,-1.3543,-1.3718,-1.3879,-1.3879,-1.4011,-1.409,-1.3622,-1.3352,-1.311,-1.2661,-1.2671,-1.295,-1.3601,-1.3623,-1.3307,-1.2541,-1.1822,-1.1119,-1.0324,-1.0326,-1.0428,-1.0428,-1.0501,-1.0624,-1.0756,-1.0772,-1.081,-1.0866,-1.0876,-1.0876,-1.0876,-1.1,-1.1128,-1.1128,-1.1219,-1.1305,-1.1305,-1.1305,-1.1305,-1.1305,-1.1305,-1.1305,-1.1305,-1.1305,-1.1305,-1.1305,-1.1305,-1.1305,-1.1305,-1.1305,-1.1305,-1.1305,-1.1305,-1.1171,-1.0982,-1.0982,-1.0848,-1.0576,-1.039,-1.0293,-1.0266,-1.0019,-0.9884,-0.9884,-0.9884,-0.9981,-1.0067,-2.0155,-1.9828,-1.9554,-1.9554,-1.9096,-1.8781,-1.8781,-1.8781,-1.8781,-1.8781,-1.8781,-1.8781,-1.8781,-1.8781,-1.8425,-1.7697,-1.661,-1.6001,-1.6001,-1.5672,-1.5447,-1.5469,-1.5418,-1.5396,-1.5433,-1.5112,-1.4944,-1.4944,-1.4692,-1.4416,-1.4026,-1.4026,-1.385,-1.3536,-1.3536,-1.3558,-1.3579,-1.3579,-1.3565,-1.3536,-1.3536,-1.336,-1.3097,-1.3097,-1.3111,-1.3177,-1.3477,-1.3777,-1.407,-1.4408,-1.4511,-1.4511,-1.4511,-1.4487,-1.4305,-1.362,-1.3344,-1.3127,-1.2473,-1.2332,-1.2344,-1.2344,-1.2836,-1.3154,-1.2546,-1.1942,-1.1312,-1.0713,-1.0613,-1.063,-1.063,-1.0646,-1.0726,-1.0982,-1.102,-1.1095,-1.1278,-1.1305,-1.1305,-1.1305,-1.1305,-1.1305,-1.1305,-1.1305,-1.1305,-1.1305,-1.1305,-1.1305,-1.1305,-1.1305,-1.1305,-1.1305,-1.1305,-1.1305,-1.1305,-1.1305,-1.1305,-1.1305,-1.1305,-1.1305,-1.1305,-1.1305,-1.1187,-1.102,-1.102,-1.0896,-1.064,-1.0428,-1.0336,-1.0331,-1.0056,-0.9965,-0.9943,-0.996,-1.011,-1.0326,-1.915,-1.905,-1.8958,-1.8958,-1.8874,-1.8781,-1.8781,-1.8781,-1.8781,-1.8781,-1.8781,-1.8781,-1.8781,-1.8458,-1.8195,-1.8026,-1.719,-1.6697,-1.6697,-1.6126,-1.5921,-1.6155,-1.5694,-1.5506,-1.5804,-1.5447,-1.5279,-1.5279,-1.5214,-1.4926,-1.4401,-1.4401,-1.4225,-1.3879,-1.3879,-1.4056,-1.4298,-1.4298,-1.4114,-1.3879,-1.3879,-1.3836,-1.377,-1.377,-1.3968,-1.4196,-1.4269,-1.4342,-1.4416,-1.4482,-1.4511,-1.4511,-1.4511,-1.427,-1.3964,-1.3517,-1.2899,-1.2214,-1.1808,-1.1903,-1.2105,-1.2105,-1.2337,-1.2463,-1.1843,-1.1594,-1.1312,-1.0713,-1.0783,-1.0907,-1.0907,-1.1026,-1.1171,-1.1219,-1.123,-1.1246,-1.13,-1.1305,-1.1305,-1.1305,-1.1305,-1.1305,-1.1305,-1.1305,-1.1305,-1.1305,-1.1305,-1.1305,-1.1305,-1.1305,-1.1305,-1.1305,-1.1305,-1.1305,-1.1305,-1.1305,-1.1305,-1.1305,-1.1305,-1.1305,-1.1305,-1.1305,-1.1278,-1.123,-1.123,-1.1198,-1.1118,-1.0694,-1.067,-1.0794,-1.0374,-1.032,-1.042,-1.0277,-1.0363,-1.0522,-1.8813,-1.8596,-1.8458,-1.8458,-1.8265,-1.8079,-1.8079,-1.8079,-1.8079,-1.8079,-1.8079,-1.8079,-1.8079,-1.7893,-1.7707,-1.7707,-1.7224,-1.6903,-1.6903,-1.6404,-1.6206,-1.6404,-1.5913,-1.5811,-1.6126,-1.5672,-1.5389,-1.5389,-1.5389,-1.5174,-1.4692,-1.4692,-1.4523,-1.4254,-1.4254,-1.435,-1.4511,-1.4511,-1.4408,-1.4254,-1.4254,-1.4254,-1.4254,-1.4254,-1.4357,-1.4526,-1.464,-1.4794,-1.4926,-1.4926,-1.4926,-1.4926,-1.4926,-1.4581,-1.4042,-1.3559,-1.2848,-1.2092,-1.1547,-1.1525,-1.1669,-1.1669,-1.1764,-1.1872,-1.1897,-1.1674,-1.1305,-1.1019,-1.1032,-1.116,-1.116,-1.1219,-1.1305,-1.1305,-1.1305,-1.1305,-1.1305,-1.1305,-1.1305,-1.1305,-1.1305,-1.1305,-1.1305,-1.1305,-1.1305,-1.1305,-1.1305,-1.1305,-1.1305,-1.1305,-1.1305,-1.1305,-1.1305,-1.1305,-1.1305,-1.1305,-1.1305,-1.1305,-1.1305,-1.1305,-1.1305,-1.1305,-1.1305,-1.1305,-1.1305,-1.1305,-1.1278,-1.0914,-1.0875,-1.095,-1.0595,-1.049,-1.0581,-1.0463,-1.06,-1.0758,-1.8777,-1.8349,-1.803,-1.803,-1.765,-1.7279,-1.7279,-1.7279,-1.7279,-1.7279,-1.7279,-1.7279,-1.7279,-1.7279,-1.7279,-1.7279,-1.7091,-1.6983,-1.6983,-1.6675,-1.6521,-1.6528,-1.6184,-1.614,-1.6492,-1.5884,-1.552,-1.5469,-1.5418,-1.5221,-1.49,-1.49,-1.4761,-1.4553,-1.4553,-1.4582,-1.4633,-1.4633,-1.4604,-1.4553,-1.4553,-1.4553,-1.4553,-1.4553,-1.4582,-1.4677,-1.4951,-1.5272,-1.5577,-1.5491,-1.5427,-1.5294,-1.5294,-1.4741,-1.3942,-1.3442,-1.282,-1.2143,-1.1587,-1.1396,-1.137,-1.137,-1.137,-1.1527,-1.208,-1.1731,-1.1305,-1.1305,-1.1305,-1.1305,-1.1305,-1.1305,-1.1305,-1.1305,-1.1305,-1.1305,-1.1305,-1.1343,-1.1354,-1.1316,-1.1343,-1.137,-1.137,-1.137,-1.1354,-1.1311,-1.1343,-1.1354,-1.1311,-1.1343,-1.1348,-1.1305,-1.1305,-1.1262,-1.1176,-1.1176,-1.1132,-1.1089,-1.1089,-1.1176,-1.1305,-1.1305,-1.1305,-1.1305,-1.1305,-1.1305,-1.1289,-1.1,-1.0884,-1.0894,-1.0542,-1.0474,-1.0511,-1.0511,-1.0605,-1.0695,-1.8378,-1.8093,-1.7846,-1.7846,-1.7563,-1.7279,-1.7279,-1.7279,-1.7279,-1.7279,-1.7279,-1.7279,-1.7279,-1.7279,-1.7279,-1.7279,-1.7289,-1.7267,-1.7267,-1.7013,-1.6961,-1.7186,-1.6623,-1.6499,-1.6829,-1.647,-1.6111,-1.5848,-1.5528,-1.5221,-1.49,-1.49,-1.4878,-1.4842,-1.4842,-1.4995,-1.5258,-1.5258,-1.5097,-1.4842,-1.4842,-1.4842,-1.4842,-1.4842,-1.5017,-1.5301,-1.5672,-1.5979,-1.6199,-1.5935,-1.5447,-1.4967,-1.4967,-1.3919,-1.2704,-1.2752,-1.2302,-1.1826,-1.1943,-1.1806,-1.1655,-1.1655,-1.1655,-1.1602,-1.1478,-1.1392,-1.1305,-1.1305,-1.1305,-1.1305,-1.1305,-1.1305,-1.1305,-1.1305,-1.1305,-1.1305,-1.1305,-1.1482,-1.158,-1.1332,-1.1482,-1.1655,-1.1655,-1.1655,-1.1569,-1.1321,-1.1493,-1.152,-1.1321,-1.1498,-1.1558,-1.1316,-1.1305,-1.1127,-1.0684,-1.0684,-1.0511,-1.0168,-1.0168,-1.0564,-1.1305,-1.1305,-1.1305,-1.1305,-1.1305,-1.1305,-1.1246,-1.062,-1.0508,-1.057,-0.9978,-0.988,-1.0082,-1.0082,-0.9942,-0.9799,-1.8343,-1.8182,-1.8028,-1.7845,-1.7699,-1.7538,-1.7308,-1.7279,-1.7279,-1.7279,-1.7279,-1.7279,-1.7279,-1.7279,-1.7279,-1.7279,-1.7279,-1.7279,-1.7279,-1.7201,-1.7179,-1.7271,-1.6887,-1.6837,-1.7113,-1.6668,-1.6433,-1.644,-1.5943,-1.5586,-1.544,-1.5258,-1.5272,-1.5447,-1.5447,-1.5657,-1.595,-1.595,-1.5774,-1.5462,-1.5672,-1.5635,-1.5447,-1.5447,-1.5679,-1.5929,-1.5624,-1.5583,-1.5623,-1.51,-1.4699,-1.4471,-1.4471,-1.3679,-1.2821,-1.2888,-1.2428,-1.1964,-1.2067,-1.2019,-1.1937,-1.1937,-1.1937,-1.191,-1.1763,-1.1741,-1.1704,-1.1569,-1.165,-1.1698,-1.1569,-1.1504,-1.1504,-1.1504,-1.1391,-1.1396,-1.1704,-1.1602,-1.1472,-1.1498,-1.1752,-1.1937,-1.1937,-1.1937,-1.1849,-1.1747,-1.1715,-1.1709,-1.1741,-1.1442,-1.1263,-1.1289,-1.102,-1.0691,-1.0391,-1.0391,-1.024,-0.9994,-0.9994,-1.0212,-1.0564,-1.0564,-1.0694,-1.0906,-1.0651,-1.0694,-1.0852,-1.0368,-1.0168,-1.0241,-0.9938,-0.9914,-0.9994,-0.9994,-0.9937,-0.9785]},{"header":{"parameterUnit":"m.s-1","parameterCategory":1,"la1":30.6,"la2":28.766,"lo1":-90.7593,"lo2":-88.6598,"dy":0.0162,"dx":0.0183,"nx":116,"ny":114,"refTime":"2023-08-24T06:00:00:Z","depth":0,"parameterNumber":3,"parameterNumberName":"V-component_of_WINDS"},"data":[0.0,0.0,0.0,0.0,0.0,0.0,0.0,0.0,0.0,0.0,0.0,0.0,0.0,0.0,0.0,0.0,0.0,0.0,0.0,0.0,0.0,0.0,0.0,0.0,0.0,0.0,0.0,0.0,0.0,0.0,0.0,0.0,0.0,0.0,0.0,0.0,0.0,0.0,0.0,0.0,0.0,0.0,0.0,0.0,0.0,0.0,0.0,0.0,0.0,0.0,0.0,0.0,0.0,0.0,0.0,0.0,0.0,0.0,0.0,0.0,0.0,0.0,0.0,0.0,0.0,0.0,0.0,0.0,0.0,0.0,0.0,0.0,0.0,0.0,0.0,0.0,0.0,0.0,0.0,0.0,0.0,0.0,0.0,0.0,0.0,0.0,0.0,0.0,0.0,0.0,0.0,0.0,0.0,0.0,0.0,0.0,0.0,0.0,0.0,0.0,0.0,0.0,0.0,0.0,0.0,0.0,0.0,0.0,0.0,0.0,0.0,0.0,0.0,0.0,0.0,0.0,0.0,0.0,0.0,0.0,0.0,0.0,0.0,0.0,0.0,0.0,0.0,0.0,0.0,0.0,0.0,0.0,0.0,0.0,0.0,0.0,0.0,0.0,0.0,0.0,0.0,0.0,0.0,0.0,0.0,0.0,0.0,0.0,0.0,0.0,0.0,0.0,0.0,0.0,0.0,0.0,0.0,0.0,0.0,0.0,0.0,0.0,0.0,0.0,0.0,0.0,0.0,0.0,0.0,0.0,0.0,0.0,0.0,0.0,0.0,0.0,0.0,0.0,0.0,0.0,0.0,0.0,0.0,0.0,0.0,0.0,0.0,0.0,0.0,0.0,0.0,0.0,0.0,0.0,0.0,0.0,0.0,0.0,0.0,0.0,0.0,0.0,0.0,0.0,0.0,0.0,0.0,0.0,0.0,0.0,0.0,0.0,0.0,0.0,0.0,0.0,0.0,0.0,0.0,0.0,0.0,0.0,0.0,0.0,0.0,0.0,0.0,0.0,0.0,0.0,0.0,0.0,0.0,0.0,0.0,0.0,0.0,0.0,0.0,0.0,0.0,0.0,0.0,0.0,0.0,0.0,0.0,0.0,0.0,0.0,0.0,0.0,0.0,0.0,0.0,0.0,0.0,0.0,0.0,0.0,0.0,0.0,0.0,0.0,0.0,0.0,0.0,0.0,0.0,0.0,0.0,0.0,0.0,0.0,0.0,0.0,0.0,0.0,0.0,0.0,0.0,0.0,0.0,0.0,0.0,0.0,0.0,0.0,0.0,0.0,0.0,0.0,0.0,0.0,0.0,0.0,0.0,0.0,0.0,0.0,0.0,0.0,0.0,0.0,0.0,0.0,0.0,0.0,0.0,0.0,0.0,0.0,0.0,0.0,0.0,0.0,0.0,0.0,0.0,0.0,0.0,0.0,0.0,0.0,0.0,0.0,0.0,0.0,0.0,0.0,0.0,0.0,0.0,0.0,0.0,0.0,0.0,0.0,0.0,0.0,0.0,0.0,0.0,0.0,0.0,0.0,0.0,0.0,0.0,0.0,0.0,0.0,0.0,0.0,0.0,0.0,0.0,0.0,0.0,0.0,0.0,0.0,0.0,0.0,0.0,0.0,0.0,0.0,0.0,0.0,0.0,0.0,0.0,0.0,0.0,0.0,0.0,0.0,0.0,0.0,0.0,0.0,0.0,0.0,0.0,0.0,0.0,0.0,0.0,0.0,0.0,0.0,0.0,0.0,0.0,0.0,0.0,0.0,0.0,0.0,0.0,0.0,0.0,0.0,0.0,0.0,0.0,0.0,0.0,0.0,0.0,0.0,0.0,0.0,0.0,0.0,0.0,0.0,0.0,0.0,0.0,0.0,0.0,0.0,0.0,0.0,0.0,0.0,0.0,0.0,0.0,0.0,0.0,0.0,0.0,0.0,0.0,0.0,0.0,0.0,0.0,0.0,0.0,0.0,0.0,0.0,0.0,0.0,0.0,0.0,0.0,0.0,0.0,0.0,0.0,0.0,0.0,0.0,0.0,0.0,0.0,0.0,0.0,0.0,0.0,0.0,0.0,0.0,0.0,0.0,0.0,0.0,0.0,0.0,0.0,0.0,0.0,0.0,0.0,0.0,0.0,0.0,0.0,0.0,0.0,0.0,0.0,0.0,0.0,0.0,0.0,0.0,0.0,0.0,0.0,0.0,0.0,0.0,0.0,0.0,0.0,0.0,0.0,0.0,0.0,0.0,0.0,0.0,0.0,0.0,0.0,0.0,0.0,0.0,0.0,0.0,0.0,0.0,0.0,0.0,0.0,0.0,0.0,0.0,0.0,0.0,0.0,0.0,0.0,0.0,0.0,0.0,0.0,0.0,0.0,0.0,0.0,0.0,0.0,0.0,0.0,0.0,0.0,0.0,0.0,0.0,0.0,0.0,0.0,0.0,0.0,0.0,0.0,0.0,0.0,0.0,0.0,0.0,0.0,0.0,0.0,0.0,0.0,0.0,0.0,0.0,0.0,0.0,0.0,0.0,0.0,0.0,0.0,0.0,0.0,0.0,0.0,0.0,0.0,0.0,0.0,0.0,0.0,0.0,0.0,0.0,0.0,0.0,0.0,0.0,0.0,0.0,0.0,0.0,0.0,0.0,0.0,0.0,0.0,0.0,0.0,0.0,0.0,0.0,0.0,0.0,0.0,0.0,0.0,0.0,0.0,0.0,0.0,0.0,0.0,0.0,0.0,0.0,0.0,0.0,0.0,0.0,0.0,0.0,0.0,0.0,0.0,0.0,0.0,0.0,0.0,0.0,0.0,0.0,0.0,0.0,0.0,0.0,0.0,0.0,0.0,0.0,0.0,0.0,0.0,0.0,0.0,0.0,0.0,0.0,0.0,0.0,0.0,0.0,0.0,0.0,0.0,0.0,0.0,0.0,0.0,0.0,0.0,0.0,0.0,0.0,0.0,0.0,0.0,0.0,0.0,0.0,0.0,0.0,0.0,0.0,0.0,0.0,0.0,0.0,0.0,0.0,0.0,0.0,0.0,0.0,0.0,0.0,0.0,0.0,0.0,0.0,0.0,0.0,0.0,0.0,0.0,0.0,0.0,0.0,0.0,0.0,0.0,0.0,0.0,0.0,0.0,0.0,0.0,0.0,0.0,0.0,0.0,0.0,0.0,0.0,0.0,0.0,0.0,0.0,0.0,0.0,0.0,0.0,0.0,0.0,0.0,0.0,0.0,0.0,0.0,0.0,0.0,0.0,0.0,0.0,0.0,0.0,0.0,0.0,0.0,0.0,0.0,0.0,0.0,0.0,0.0,0.0,0.0,0.0,0.0,0.0,0.0,0.0,0.0,0.0,0.0,0.0,0.0,0.0,0.0,0.0,0.0,0.0,0.0,0.0,0.0,0.0,0.0,0.0,0.0,0.0,0.0,0.0,0.0,0.0,0.0,0.0,0.0,0.0,0.0,0.0,0.0,0.0,0.0,0.0,0.0,0.0,0.0,0.0,0.0,0.0,0.0,0.0,0.0,0.0,0.0,0.0,0.0,0.0,0.0,0.0,0.0,0.0,0.0,0.0,0.0,0.0,0.0,0.0,0.0,0.0,0.0,0.0,0.0,0.0,0.0,0.0,0.0,0.0,0.0,0.0,0.0,0.0,0.0,0.0,0.0,0.0,0.0,0.0,0.0,0.0,0.0,0.0,0.0,0.0,0.0,0.0,0.0,0.0,0.0,0.0,0.0,0.0,0.0,0.0,0.0,0.0,0.0,0.0,0.0,0.0,0.0,0.0,0.0,0.0,0.0,0.0,0.0,0.0,0.0,0.0,0.0,0.0,0.0,0.0,0.0,0.0,0.0,0.0,0.0,0.0,0.0,0.0,0.0,0.0,0.0,0.0,0.0,0.0,0.0,0.0,0.0,0.0,0.0,0.0,0.0,0.0,0.0,0.0,0.0,0.0,0.0,0.0,0.0,0.0,0.0,0.0,0.0,0.0,0.0,0.0,0.0,0.0,0.0,0.0,0.0,0.0,0.0,0.0,0.0,0.0,0.0,0.0,0.0,0.0,0.0,0.0,0.0,0.0,0.0,0.0,0.0,0.0,0.0,0.0,0.0,0.0,0.0,0.0,0.0,0.0,0.0,0.0,0.0,0.0,0.0,0.0,0.0,0.0,0.0,0.0,0.0,0.0,0.0,0.0,0.0,0.0,0.0,0.0,0.0,0.0,0.0,0.0,0.0,0.0,0.0,0.0,0.0,0.0,0.0,0.0,0.0,0.0,0.0,0.0,0.0,0.0,0.0,0.0,0.0,0.0,0.0,0.0,0.0,0.0,0.0,0.0,0.0,0.0,0.0,0.0,0.0,0.0,0.0,0.0,0.0,0.0,0.0,0.0,0.0,0.0,0.0,0.0,0.0,0.0,0.0,0.0,0.0,0.0,0.0,0.0,0.0,0.0,0.0,0.0,0.0,0.0,0.0,0.0,0.0,0.0,0.0,0.0,0.0,0.0,0.0,0.0,0.0,0.0,0.0,0.0,0.0,0.0,0.0,0.0,0.0,0.0,0.0,0.0,0.0,0.0,0.0,0.0,0.0,0.0,0.0,0.0,0.0,0.0,0.0,0.0,0.0,0.0,0.0,0.0,0.0,0.0,0.0,0.0,0.0,0.0,0.0,0.0,0.0,0.0,0.0,0.0,0.0,0.0,0.0,0.0,0.0,0.0,0.0,0.0,0.0,0.0,0.0,0.0,0.0,0.0,0.0,0.0,0.0,0.0,0.0,0.0,0.0,0.0,0.0,0.0,0.0,0.0,0.0,0.0,0.0,0.0,0.0,0.0,0.0,0.0,0.0,0.0,0.0,0.0,0.0,0.0,0.0,0.0,0.0,0.0,0.0,0.0,0.0,0.0,0.0,0.0,0.0,0.0,0.0,0.0,0.0,0.0,0.0,0.0,0.0,0.0,0.0,0.0,0.0,0.0,0.0,0.0,0.0,0.0,0.0,0.0,0.0,0.0,0.0,0.0,0.0,0.0,0.0,0.0,0.0,0.0,0.0,0.0,0.0,0.0,0.0,0.0,0.0,0.0,0.0,0.0,0.0,0.0,0.0,0.0,0.0,0.0,0.0,0.0,0.0,0.0,0.0,0.0,0.0,0.0,0.0,0.0,0.0,0.0,0.0,0.0,0.0,0.0,0.0,0.0,0.0,0.0,0.0,0.0,0.0,0.0,0.0,0.0,0.0,0.0,0.0,0.0,0.0,0.0,0.0,0.0,0.0,0.0,0.0,0.0,0.0,0.0,0.0,0.0,0.0,0.0,0.0,0.0,0.0,0.0,0.0,0.0,0.0,0.0,0.0,0.0,0.0,0.0,0.0,0.0,0.0,0.0,0.0,0.0,0.0,0.0,0.0,0.0,0.0,0.0,0.0,0.0,0.0,0.0,0.0,0.0,0.0,0.0,0.0,0.0,0.0,0.0,0.0,0.0,0.0,0.0,0.0,0.0,0.0,0.0,0.0,0.0,0.0,0.0,0.0,0.0,0.0,0.0,0.0,0.0,0.0,0.0,0.0,0.0,0.0,0.0,0.0,0.0,0.0,0.0,0.0,0.0,0.0,0.0,0.0,0.0,0.0,0.0,0.0,0.0,0.0,0.0,0.0,0.0,0.0,0.0,0.0,0.0,0.0,0.0,0.0,0.0,0.0,0.0,0.0,0.0,0.0,0.0,0.0,0.0,0.0,0.0,0.0,0.0,0.0,0.0,0.0,0.0,0.0,0.0,0.0,0.0,0.0,0.0,0.0,0.0,0.0,0.0,0.0,0.0,0.0,0.0,0.0,0.0,0.0,0.0,0.0,0.0,0.0,0.0,0.0,0.0,0.0,0.0,0.0,0.0,0.0,0.0,0.0,0.0,0.0,0.0,0.0,0.0,0.0,0.0,0.0,0.0,0.0,0.0,0.0,0.0,0.0,0.0,0.0,0.0,0.0,0.0,0.0,0.0,0.0,0.0,0.0,0.0,0.0,0.0,0.0,0.0,0.0,0.0,0.0,0.0,0.0,0.0,0.0,0.0,0.0,0.0,0.0,0.0,0.0,0.0,0.0,0.0,0.0,0.0,0.0,0.0,-1.5541,0.0,0.0,0.0,0.0,0.0,0.0,0.0,0.0,0.0,0.0,0.0,0.0,0.0,0.0,0.0,0.0,0.0,0.0,0.0,0.0,0.0,0.0,0.0,0.0,0.0,0.0,0.0,0.0,0.0,0.0,0.0,0.0,0.0,0.0,0.0,0.0,0.0,0.0,0.0,-0.151,-0.1168,-0.0813,-0.0826,-0.0901,-0.1009,0.0,0.0,0.0,0.0,0.0,0.0,0.0,0.0,0.0,0.0,0.0,0.0,0.0,0.0,0.0,0.0,0.0,0.0,0.0,0.0,0.0,0.0,0.0,0.0,0.0,0.0,0.0,0.0,0.0,0.0,0.0,0.0,0.0,0.0,0.0,0.0,0.0,0.0,0.0,0.0,0.0,0.0,0.0,0.0,0.0,0.0,0.0,0.0,0.0,0.0,0.0,0.0,0.0,0.0,0.0,0.0,0.0,0.0,0.0,0.0,0.0,0.0,0.0,0.0,0.0,0.0,0.0,0.0,0.0,0.0,0.0,-1.5792,0.0,0.0,0.0,0.0,0.0,0.0,0.0,0.0,0.0,0.0,0.0,0.0,0.0,0.0,0.0,0.0,0.0,0.0,0.0,0.0,0.0,0.0,0.0,-0.466,-0.4411,-0.3824,-0.3766,-0.3458,0.0,0.0,0.0,0.0,0.0,0.0,0.0,-0.2389,-0.208,-0.1928,-0.1226,-0.0844,-0.0721,-0.0828,-0.0932,-0.1029,-0.1149,0.0,0.0,0.0,0.0,0.0,0.0,0.0,0.0,0.0,0.0,0.0,0.0,0.0,0.0,0.0,0.0,0.0,0.0,0.0,0.0,0.0,0.0,0.0,0.0,0.0,0.0,0.0,0.0,0.0,0.0,0.0,0.0,0.0,0.0,0.0,0.0,0.0,0.0,0.0,0.0,0.0,0.0,0.0,0.0,0.0,0.0,0.0,0.0,0.0,0.0,0.0,0.0,0.0,0.0,0.0,0.0,0.0,0.0,0.0,0.0,0.0,0.0,0.0,-1.8889,-1.9326,-2.0082,-2.0082,-1.9858,-1.9345,-1.73,-1.5854,-1.4971,-1.5255,0.0,0.0,0.0,0.0,0.0,0.0,0.0,0.0,0.0,0.0,0.0,0.0,0.0,0.0,0.0,0.0,0.0,0.0,0.0,0.0,0.0,-0.4519,-0.4294,-0.3683,-0.4101,-0.3904,-0.2764,0.0,0.0,0.0,0.0,0.0,-0.3458,-0.353,-0.3161,-0.24,-0.1341,-0.0819,-0.0868,-0.1054,-0.1151,-0.1185,-0.1718,-0.1622,-0.1148,0.0,0.0,0.0,0.0,0.0,0.0,0.0,0.0,0.0,0.0,0.0,0.0,0.0,0.0,0.0,0.0,0.0,0.0,0.0,0.0,0.0,0.0,0.0,0.0,0.0,0.0,0.0,0.0,0.0,0.0,0.0,0.0,0.0,0.0,0.0,0.0,0.0,0.0,0.0,0.0,0.0,-0.9185,-0.9666,0.0,0.0,0.0,0.0,0.0,0.0,0.0,0.0,0.0,0.0,0.0,0.0,0.0,-1.7745,-1.9208,-1.9881,-2.0293,-2.0504,-2.0504,-2.034,-2.0006,-2.0006,-1.9755,-1.9324,-1.8983,0.0,-1.748,-1.694,0.0,0.0,0.0,0.0,0.0,0.0,0.0,0.0,0.0,0.0,0.0,0.0,0.0,0.0,0.0,0.0,0.0,0.0,0.0,0.0,0.0,-0.4617,-0.4537,-0.4358,-0.475,-0.4676,-0.3889,-0.3886,0.0,0.0,0.0,-0.3518,-0.4216,-0.3857,-0.3201,-0.2156,-0.1561,-0.1061,-0.066,-0.0684,-0.0701,-0.0709,-0.1219,-0.1329,-0.1179,-0.1267,0.0,0.0,0.0,0.0,0.0,0.0,0.0,0.0,0.0,0.0,0.0,0.0,0.0,0.0,0.0,0.0,0.0,0.0,0.0,0.0,0.0,0.0,0.0,0.0,0.0,0.0,0.0,0.0,0.0,0.0,0.0,0.0,0.0,0.0,0.0,0.0,0.0,0.0,0.0,-0.9152,-0.9207,-0.9436,-1.0498,-1.1443,0.0,0.0,0.0,0.0,0.0,0.0,0.0,0.0,0.0,-1.5234,-1.6417,-1.7688,-1.8997,-1.9594,-2.0395,-2.1421,-2.1421,-2.1455,-2.1513,-2.1513,-2.1298,-2.0892,-2.054,-1.989,-1.8991,-1.7861,-1.6948,-1.6268,0.0,0.0,0.0,0.0,-1.6148,-1.6283,0.0,0.0,0.0,0.0,0.0,0.0,0.0,0.0,0.0,0.0,0.0,0.0,-0.4786,-0.4782,-0.488,-0.5074,-0.522,-0.5211,-0.4911,-0.4491,-0.4345,-0.4535,-0.4126,-0.4144,-0.4687,-0.3987,-0.3092,-0.2029,-0.1737,-0.1199,-0.0468,-0.0442,-0.0412,-0.0421,-0.067,-0.0927,-0.1132,-0.0921,-0.0932,-0.1107,0.0,0.0,0.0,0.0,0.0,0.0,0.0,0.0,0.0,0.0,0.0,0.0,0.0,0.0,0.0,0.0,0.0,0.0,0.0,0.0,0.0,0.0,0.0,0.0,0.0,0.0,0.0,0.0,0.0,0.0,0.0,0.0,0.0,0.0,0.0,0.0,0.0,-0.9337,-0.9407,-0.9309,-1.0581,-1.1589,0.0,0.0,0.0,0.0,0.0,0.0,-1.4354,-1.5233,-1.5713,-1.572,-1.6683,-1.7694,-1.8757,-1.9353,-2.0421,-2.1878,-2.2094,-2.2388,-2.2786,-2.2994,-2.2868,-2.2461,-2.1832,-2.1069,-2.0109,-1.865,-1.7457,-1.6571,-1.6724,-1.6646,-1.6544,-1.7116,-1.7263,-1.7347,0.0,0.0,0.0,0.0,0.0,0.0,0.0,0.0,0.0,0.0,0.0,-0.5189,-0.4934,-0.4999,-0.5197,-0.5528,-0.5301,-0.5196,-0.5351,-0.4806,-0.4551,-0.4674,-0.4651,-0.4655,-0.4691,-0.4033,-0.3259,-0.2376,-0.1859,-0.1198,-0.0419,-0.0612,-0.0676,-0.0689,-0.0495,-0.0654,-0.0998,-0.1137,-0.1179,-0.1197,-0.1109,0.0,0.0,0.0,0.0,0.0,0.0,0.0,0.0,0.0,0.0,0.0,0.0,0.0,0.0,0.0,0.0,0.0,0.0,0.0,0.0,0.0,0.0,0.0,0.0,0.0,0.0,0.0,0.0,0.0,0.0,0.0,0.0,0.0,0.0,0.0,0.0,0.0,0.0,-0.9614,-1.1261,0.0,0.0,0.0,0.0,-1.5737,-1.5783,-1.5905,-1.6147,-1.6221,-1.6431,-1.6807,-1.7938,-1.8926,-1.9811,-2.0534,-2.1223,-2.1803,-2.2584,-2.294,-2.2999,-2.3781,-2.3844,-2.3304,-2.2823,-2.2063,-2.1037,-1.9605,-1.8433,-1.7577,-1.816,-1.845,-1.8511,-1.8096,-1.8298,-1.8734,0.0,0.0,0.0,0.0,0.0,0.0,0.0,0.0,-0.7273,-0.6317,-0.6077,-0.581,-0.5286,-0.5338,-0.5586,-0.6023,-0.5958,-0.5759,-0.5559,-0.5341,-0.5084,-0.4847,-0.484,-0.4836,-0.4899,-0.4742,-0.4015,-0.2733,-0.2501,-0.169,-0.0313,-0.0273,-0.0231,-0.0283,-0.0515,-0.0741,-0.0863,-0.0821,-0.0889,-0.1016,-0.1078,-0.1385,0.0,0.0,0.0,0.0,0.0,0.0,0.0,0.0,0.0,0.0,0.0,0.0,0.0,0.0,0.0,0.0,0.0,0.0,0.0,0.0,0.0,0.0,0.0,0.0,0.0,0.0,0.0,0.0,0.0,0.0,0.0,0.0,0.0,0.0,0.0,0.0,0.0,-1.1024,-1.2731,0.0,-1.381,-1.5103,-1.6011,-1.6149,-1.6637,-1.7072,-1.7458,-1.7963,-1.8302,-1.844,-1.8853,-1.944,-2.0303,-2.0532,-2.107,-2.1794,-2.2107,-2.222,-2.2258,-2.3065,-2.2975,-2.2197,-2.2548,-2.2132,-2.1178,-2.0971,-1.9932,-1.8462,-1.8663,-1.8639,-1.8472,-1.8627,-1.8679,-1.8722,0.0,0.0,0.0,0.0,0.0,0.0,0.0,0.0,-0.7273,-0.6317,-0.637,-0.6233,-0.5556,-0.5699,-0.6033,-0.6447,-0.6302,-0.6078,-0.5866,-0.5532,-0.5254,-0.4972,-0.4993,-0.5,-0.4965,-0.5201,-0.446,-0.2748,-0.2749,-0.1894,-0.0185,-0.0047,0.0,0.0,-0.0481,-0.0674,-0.0671,-0.0757,-0.0874,-0.1055,-0.1133,-0.1464,-0.1819,0.0,0.0,0.0,0.0,0.0,0.0,0.0,0.0,0.0,0.0,0.0,0.0,0.0,0.0,0.0,0.0,0.0,0.0,0.0,0.0,0.0,0.0,0.0,0.0,0.0,0.0,0.0,0.0,0.0,0.0,0.0,0.0,0.0,0.0,0.0,-1.1614,-1.2551,-1.4097,-1.5193,-1.5422,-1.6466,-1.7183,-1.7312,-1.7944,-1.8495,-1.8878,-1.943,-1.965,-1.9522,-1.9512,-1.9678,-2.0079,-2.0118,-2.0382,-2.0952,-2.1221,-2.1375,-2.1423,-2.2505,-2.2652,-2.204,-2.2659,-2.2455,-2.173,-2.2042,-2.1181,-1.9677,-1.9849,-1.9581,-1.9157,-1.9483,-1.9487,-1.9403,0.0,0.0,0.0,0.0,0.0,0.0,0.0,-0.6701,-0.6891,-0.629,-0.6486,-0.6426,-0.5682,-0.6033,-0.6484,-0.6849,-0.6343,-0.6098,-0.6282,-0.5423,-0.4968,-0.5113,-0.5161,-0.5102,-0.4929,-0.5257,-0.4481,-0.2527,-0.2594,-0.1725,0.0,0.0,0.0,0.0,-0.0295,-0.0394,-0.0442,-0.0964,-0.1234,-0.1307,-0.1286,-0.1242,-0.1208,0.0,0.0,0.0,0.0,0.0,0.0,0.0,0.0,0.0,0.0,0.0,0.0,0.0,0.0,0.0,0.0,0.0,0.0,0.0,0.0,0.0,0.0,0.0,0.0,0.0,0.0,0.0,0.0,0.0,0.0,0.0,0.0,0.0,-1.0628,-1.1735,-1.2948,-1.4143,-1.5374,-1.6522,-1.7424,-1.8274,-1.8896,-1.9289,-1.9701,-2.0095,-2.0539,-2.0549,-2.0323,-1.9939,-1.9921,-1.9751,-1.9329,-1.932,-1.9311,-1.9301,-2.0079,-2.0459,-2.0498,-2.2155,-2.2916,-2.292,-2.3221,-2.3109,-2.265,-2.2673,-2.2109,-2.1247,-2.1732,-2.1415,-2.0721,-2.0637,-2.0736,-2.0824,0.0,0.0,0.0,0.0,0.0,0.0,0.0,-0.6701,-0.6891,-0.629,-0.6583,-0.6555,-0.5832,-0.6184,-0.6552,-0.6856,-0.6481,-0.6169,-0.6098,-0.5559,-0.5289,-0.5401,-0.5136,-0.5118,-0.5408,-0.4726,-0.3843,-0.2805,-0.2094,-0.1152,0.0,0.0,0.0,0.0,-0.0261,-0.0518,-0.0716,-0.0865,-0.1037,-0.1218,-0.1288,-0.1305,-0.1269,0.0,0.0,0.0,0.0,0.0,0.0,0.0,0.0,0.0,0.0,0.0,0.0,0.0,0.0,0.0,0.0,0.0,0.0,0.0,0.0,0.0,0.0,0.0,0.0,0.0,0.0,0.0,0.0,0.0,0.0,0.0,0.0,-1.1536,-1.1909,-1.2585,-1.3692,-1.5569,-1.666,-1.7477,-1.7958,-1.9217,-1.9891,-1.9599,-2.033,-2.097,-2.1339,-2.1108,-2.0897,-2.0787,-2.0512,-2.0122,-1.9719,-1.976,-1.9604,-1.9301,-1.9529,-1.9608,-1.9648,-2.0692,-2.1012,-2.0737,-2.1976,-2.2024,-2.134,-2.2309,-2.2109,-2.1247,-2.1732,-2.1558,-2.1057,-2.1046,-2.0815,-2.0445,0.0,0.0,0.0,0.0,0.0,0.0,0.0,-0.6448,-0.6585,-0.6166,-0.6578,-0.6546,-0.5593,-0.5922,-0.6264,-0.6441,-0.6105,-0.5853,-0.5629,-0.5426,-0.5283,-0.5261,-0.5225,-0.5086,-0.4902,-0.4361,-0.3714,-0.2957,-0.191,-0.1132,-0.0667,-0.0206,0.0,0.0,-0.0269,-0.0481,-0.063,-0.0735,-0.0878,-0.105,-0.1219,-0.1249,-0.1237,-0.1223,-0.1221,-0.1248,-0.164,-0.1892,-0.2193,-0.292,0.0,0.0,0.0,0.0,0.0,0.0,0.0,0.0,0.0,0.0,0.0,0.0,0.0,0.0,0.0,0.0,0.0,0.0,0.0,0.0,0.0,0.0,0.0,0.0,-1.2009,-1.255,-1.3156,-1.349,-1.444,-1.6541,-1.7206,-1.7778,-1.8379,-1.924,-1.9648,-1.9334,-2.0244,-2.0882,-2.1123,-2.1272,-2.1291,-2.1117,-2.0879,-2.0576,-2.014,-1.9966,-1.9765,-1.9567,-1.9384,-1.9301,-1.9341,-2.0109,-2.0362,-2.0166,-2.1474,-2.1747,-2.1405,-2.2412,-2.2434,0.0,0.0,0.0,0.0,0.0,-2.0848,-2.0327,0.0,0.0,0.0,0.0,0.0,0.0,0.0,-0.6019,-0.6057,-0.5923,-0.6394,-0.6341,-0.522,-0.5504,-0.5766,-0.5796,-0.5566,-0.5308,-0.5125,-0.5127,-0.5079,-0.4987,-0.5345,-0.5045,-0.397,-0.4174,-0.3885,-0.3008,-0.1928,-0.1489,-0.1569,-0.0525,0.0,0.0,-0.0272,-0.0381,-0.0428,-0.0642,-0.0741,-0.0778,-0.1069,-0.1123,-0.1055,-0.1232,-0.1286,-0.1252,-0.1238,-0.1632,-0.2134,-0.2031,0.0,0.0,0.0,0.0,0.0,0.0,0.0,0.0,0.0,0.0,0.0,0.0,0.0,0.0,0.0,0.0,0.0,0.0,0.0,0.0,0.0,0.0,0.0,0.0,-1.2835,-1.3479,-1.431,-1.4442,-1.514,-1.7077,-1.7301,-1.7652,-1.8565,-1.8742,-1.8742,-1.865,-1.9567,-2.0158,-2.0294,0.0,0.0,0.0,0.0,-2.0989,-2.0585,-2.0195,-1.9962,-1.9916,-1.9496,-1.9286,-1.9326,-1.9981,-2.0313,-2.0352,-2.1221,-2.1711,-2.1944,-2.2496,-2.2634,-2.2445,-2.2066,-2.1617,-2.119,-2.119,-2.0914,-2.0423,0.0,0.0,0.0,0.0,0.0,0.0,0.0,-0.5374,-0.5456,-0.5446,-0.5677,-0.5674,-0.5167,-0.5321,-0.5576,-0.5779,-0.5566,-0.5333,-0.5179,-0.493,-0.4994,-0.5453,-0.5446,-0.5077,-0.4242,-0.4388,-0.3967,-0.2977,-0.2016,-0.157,-0.1599,-0.0528,0.0,0.0,-0.0055,-0.0221,-0.0381,-0.0218,-0.0267,-0.0518,-0.0763,-0.083,-0.0784,-0.1026,-0.1069,-0.098,-0.0992,-0.1084,-0.1309,-0.1764,-0.2448,-0.3212,-0.3748,-0.4325,0.0,0.0,0.0,0.0,0.0,0.0,0.0,0.0,0.0,0.0,0.0,0.0,0.0,0.0,0.0,0.0,0.0,0.0,0.0,-1.2912,-1.3511,-1.4094,-1.5146,-1.5264,-1.5767,-1.7138,-1.729,-1.7372,-1.7552,-1.8334,-1.8473,-1.7652,-1.8519,-1.943,-2.0249,-2.0484,-2.0863,-2.1568,-2.1568,-2.1376,-2.0998,-2.0753,-2.0476,-2.0117,0.0,0.0,-1.9208,-1.9106,-1.9051,-1.9082,-1.9913,-2.0168,-2.008,-2.0822,-2.1125,-2.114,-2.1686,-2.1617,-2.119,-2.119,-2.1132,-2.0971,0.0,0.0,0.0,0.0,0.0,0.0,0.0,-0.511,-0.5198,-0.5198,-0.5437,-0.5383,-0.4848,-0.4935,-0.5085,-0.5156,-0.5027,-0.4945,-0.4938,-0.4974,-0.5161,-0.5524,-0.5564,-0.522,-0.4518,-0.3991,-0.3521,-0.3087,-0.1571,-0.1094,-0.1577,-0.0482,0.0,0.0,0.0,-0.0057,-0.017,-0.0056,-0.0055,-0.0216,-0.0472,-0.0502,-0.0428,-0.0922,-0.1065,-0.0981,-0.096,-0.1043,-0.1171,-0.1396,-0.1897,-0.2569,-0.3235,-0.3892,-0.4479,0.0,0.0,0.0,0.0,0.0,0.0,0.0,0.0,0.0,0.0,0.0,0.0,0.0,0.0,-0.9771,0.0,0.0,-1.2624,-1.3695,-1.4316,-1.4843,-1.5261,-1.5522,-1.5954,-1.67,-1.6679,-1.6594,-1.6594,-1.6942,-1.7037,-1.6812,-1.7352,-1.8038,-1.8996,-1.9581,-2.0161,-2.0769,-2.1149,-2.1266,-2.1058,-2.0738,-2.0506,-2.0309,-1.9534,-1.9315,-1.9492,-1.8958,-1.8798,-1.8958,-1.9194,-1.9448,-1.9745,-2.0556,-2.0833,-2.0737,-2.1288,-2.1373,-2.119,-2.119,-2.119,-2.1121,0.0,0.0,0.0,0.0,0.0,0.0,0.0,-0.4801,-0.4898,-0.493,-0.5128,-0.5091,-0.4553,-0.4576,-0.4565,-0.4498,-0.4463,-0.4526,-0.4734,-0.5015,-0.5293,-0.5486,-0.5623,-0.5378,-0.4673,-0.3723,-0.3187,-0.3199,-0.1247,-0.0746,-0.1598,-0.0489,0.0,0.0,0.0,0.0,0.0,0.0,0.0,0.0,-0.027,-0.0258,-0.0049,-0.0707,-0.096,-0.0978,-0.0911,-0.1059,-0.1202,-0.1017,-0.148,-0.2164,-0.262,-0.3334,-0.4162,-0.4708,-0.4887,0.0,0.0,0.0,0.0,0.0,0.0,0.0,0.0,0.0,-0.6947,-0.864,-0.9119,-0.9997,-1.2407,-1.3095,-1.3512,-1.4172,-1.4932,-1.533,-1.5071,-1.546,-1.5896,-1.6041,-1.5942,-1.5818,-1.5745,-1.5566,-1.5609,-1.6047,-1.6184,-1.6627,-1.7513,-1.8433,-1.9192,-1.981,-2.042,-2.0808,-2.0997,-2.0651,-2.0448,-2.0439,-1.962,-1.941,-1.9771,-1.8918,-1.8734,-1.9068,-1.8779,-1.8993,-1.9668,-2.0537,-2.0641,-2.0326,-2.0718,-2.078,-2.0732,-2.1063,-2.119,-2.1132,0.0,0.0,0.0,0.0,0.0,0.0,0.0,0.0,-0.4166,-0.4282,-0.4235,-0.4266,-0.4464,-0.4365,-0.4314,-0.4481,-0.4333,-0.4403,-0.4837,-0.4808,-0.4975,-0.5483,-0.5623,-0.534,-0.453,-0.4369,-0.3948,-0.3213,-0.1985,-0.1491,-0.1598,-0.0489,0.0,0.0,0.0,0.0,0.0,0.0,0.0,0.0,-0.0269,-0.0256,-0.0048,-0.0333,-0.0459,-0.0478,-0.0625,-0.0767,-0.095,-0.0908,-0.1556,-0.2346,-0.2295,-0.3156,-0.42,-0.4342,0.0,-0.4921,-0.5059,-0.522,0.0,-0.6054,-0.6095,-0.6195,0.0,0.0,-0.7344,-0.8431,-0.8877,-0.9655,-1.1654,-1.2235,-1.2856,-1.41,-1.4775,-1.5059,-1.4799,-1.5191,-1.5466,-1.5281,-1.5413,-1.5433,-1.5207,-1.5175,-1.5175,-1.5223,-1.5239,-1.5662,-1.6597,-1.6763,-1.7677,-1.9496,-1.96,-2.0076,-2.0988,-2.0782,-2.0674,-2.0666,-1.9687,-1.9393,-1.9685,-1.8587,-1.8278,-1.8645,-1.8478,-1.8474,-1.8625,-1.9629,-1.9545,-1.8904,-1.9663,-1.9463,-1.9,-2.0592,-2.119,-2.119,0.0,0.0,0.0,0.0,0.0,0.0,0.0,0.0,0.0,-0.4164,-0.414,-0.4206,-0.4467,-0.4436,-0.4395,-0.4484,-0.4356,-0.4436,-0.4855,-0.4838,-0.5071,-0.5583,-0.5661,-0.5654,-0.5622,-0.4244,-0.3476,-0.3324,-0.1525,-0.0689,-0.0682,-0.0216,0.0,0.0,0.0,0.0,0.0,0.0,0.0,0.0,-0.0108,-0.0103,0.0,-0.014,-0.0176,-0.0205,-0.0367,-0.0596,0.0,-0.0769,-0.0968,-0.1287,-0.1792,-0.2303,-0.2876,-0.3897,-0.4326,0.0,-0.514,0.0,0.0,0.0,-0.6576,-0.6932,-0.74,-0.7587,-0.7944,-0.9059,-0.9397,-0.9964,-1.155,-1.1884,-1.2281,0.0,-1.4055,-1.4458,-1.4676,-1.5034,-1.5113,-1.4684,-1.4594,-1.47,-1.5057,-1.4936,-1.4984,-1.5325,-1.4877,-1.5011,-1.5852,-1.6027,-1.6536,-1.7534,-1.8008,-1.8688,-1.9712,-1.9621,-1.9911,-2.0464,-1.9617,-1.9376,-1.9657,-1.8521,-1.8085,-1.8263,-1.8181,-1.8161,-1.8201,-1.8616,-1.8533,-1.8194,-1.8712,-1.8617,-1.838,-1.9845,-2.0376,-2.0473,0.0,0.0,0.0,0.0,0.0,0.0,0.0,0.0,0.0,0.0,-0.4133,-0.423,-0.447,-0.4491,-0.4491,-0.4411,-0.4265,-0.4313,-0.4694,-0.4683,-0.4929,-0.5464,-0.56,-0.5855,-0.6331,-0.4349,-0.3313,-0.3336,-0.1355,-0.0261,0.0,0.0,0.0,0.0,0.0,0.0,0.0,0.0,0.0,0.0,0.0,0.0,0.0,0.0,0.0,-0.0039,-0.0195,-0.0379,-0.0582,-0.0623,-0.0516,-0.052,-0.1232,-0.1533,-0.1932,-0.3383,-0.4209,-0.4762,-0.54,0.0,0.0,-0.6576,-0.7108,-0.7597,-0.775,-0.798,-0.8383,-0.9212,-0.9376,-0.974,-1.0923,-1.1107,-1.1373,-1.2348,-1.3185,-1.3771,-1.4112,-1.4499,-1.463,-1.4238,-1.3894,-1.3963,-1.461,-1.454,-1.4637,-1.5019,-1.4611,-1.4564,-1.5152,-1.5316,-1.5619,-1.6077,-1.6625,-1.739,-1.8373,-1.8325,-1.8744,-1.9706,-1.902,-1.8998,-1.9512,-1.8572,-1.8094,-1.8,-1.8,-1.8,-1.8,-1.8,-1.7837,-1.7583,-1.7961,-1.7798,-1.756,-1.8895,-1.9488,-1.977,0.0,0.0,0.0,0.0,0.0,0.0,0.0,0.0,0.0,0.0,0.0,0.0,0.0,-0.4491,-0.4411,-0.4221,-0.3955,-0.3917,-0.4208,-0.4161,-0.4404,-0.5012,-0.5257,-0.5648,-0.6086,-0.4899,-0.3928,-0.3226,-0.1968,-0.0909,0.0,0.0,0.0,0.0,0.0,0.0,0.0,0.0,0.0,0.0,0.0,0.0,0.0,0.0,0.0,0.0,-0.0142,-0.0204,-0.0261,-0.0436,-0.055,-0.06,-0.0615,-0.113,0.0,-0.2843,-0.433,-0.5685,0.0,0.0,-0.6793,-0.7272,-0.7682,-0.8008,-0.8214,-0.8364,-0.8484,-0.8347,-0.8323,-0.8581,-0.9328,-0.9596,-0.9947,-1.0905,-1.2201,-1.3061,-1.2775,-1.3423,-1.3936,-1.3918,-1.3465,-1.3254,0.0,-1.3785,-1.393,-1.393,-1.4159,-1.4304,-1.4322,-1.4352,-1.4819,-1.5764,-1.5846,-1.6311,-1.7343,-1.7081,-1.7387,-1.825,-1.7639,-1.8007,-1.9222,-1.8801,-1.8374,-1.8,-1.8,-1.8,-1.8,-1.8,-1.7564,-1.697,-1.7359,-1.6856,-1.6077,-1.7734,-1.8742,-1.9299,0.0,0.0,0.0,0.0,0.0,0.0,0.0,0.0,0.0,0.0,0.0,0.0,0.0,0.0,0.0,0.0,-0.3952,-0.3869,-0.4065,-0.3992,-0.4127,-0.4526,-0.4923,-0.5322,-0.5677,-0.4072,-0.3218,-0.32,-0.1373,-0.033,0.0,0.0,0.0,0.0,0.0,0.0,0.0,0.0,0.0,0.0,0.0,0.0,0.0,0.0,0.0,0.0,0.0,-0.0065,-0.0067,-0.0134,-0.0169,-0.0205,-0.0203,-0.0375,-0.0907,-0.2617,-0.3955,-0.5101,-0.5946,0.0,-0.7054,-0.7442,-0.7925,-0.8401,-0.8655,-0.8672,-0.8591,-0.8442,-0.8099,-0.7907,-0.8066,-0.7942,-0.82,-0.9413,-1.0341,-1.1107,-1.1619,-1.2607,-1.3117,-1.2627,-1.303,0.0,0.0,0.0,0.0,-1.3894,-1.3984,-1.4117,-1.4286,-1.4298,-1.4436,-1.4813,-1.4813,-1.5192,-1.6014,-1.5957,-1.6311,-1.7084,-1.7247,-1.7385,-1.7556,-1.7985,-1.8111,-1.8,-1.8,-1.8,-1.8,-1.8,-1.774,-1.7295,-1.7462,-1.6973,-1.6272,-1.6842,-1.7415,-1.8015,0.0,0.0,0.0,0.0,0.0,0.0,0.0,0.0,0.0,0.0,0.0,0.0,0.0,0.0,0.0,0.0,0.0,-0.3541,-0.3845,-0.383,-0.3898,-0.4128,-0.4526,-0.4795,-0.4897,-0.3718,-0.2934,-0.2643,-0.1192,-0.0337,0.0,0.0,0.0,0.0,0.0,0.0,0.0,0.0,0.0,0.0,0.0,0.0,0.0,0.0,0.0,0.0,0.0,0.0,0.0,0.0,0.0,0.0,0.0,-0.0237,-0.0849,-0.2517,-0.3746,-0.481,-0.611,-0.6858,-0.7378,-0.7763,-0.8265,-0.8724,-0.8875,-0.8821,-0.8608,-0.8241,-0.7821,-0.7407,-0.7084,-0.6861,-0.7056,-0.7956,-0.8823,-0.9604,-1.0439,-1.1385,-1.2035,-1.2125,-1.2528,-1.289,0.0,0.0,0.0,-1.3888,-1.3996,-1.4117,-1.4286,-1.4298,-1.4298,-1.4298,-1.4298,-1.4498,-1.4863,-1.472,-1.4875,-1.5388,-1.6222,-1.638,-1.6034,-1.6911,-1.7375,-1.7448,-1.7668,-1.7878,-1.8,-1.8,-1.7817,-1.7523,-1.762,-1.7218,-1.6622,-1.6858,-1.7006,-1.7205,0.0,0.0,0.0,0.0,0.0,0.0,0.0,0.0,0.0,0.0,0.0,0.0,0.0,0.0,0.0,0.0,0.0,0.0,-0.3509,-0.3545,-0.3598,-0.3721,-0.4014,-0.4036,-0.3741,-0.3678,-0.2996,-0.1574,-0.1425,-0.0867,0.0,0.0,0.0,0.0,0.0,0.0,0.0,0.0,0.0,0.0,0.0,0.0,0.0,0.0,0.0,0.0,0.0,0.0,0.0,0.0,0.0,0.0,0.0,-0.0607,-0.1552,-0.262,-0.3699,-0.4905,-0.6394,-0.7228,-0.7721,-0.8173,-0.8704,-0.9039,-0.8913,-0.8723,-0.8442,-0.7723,-0.7424,-0.7119,0.0,0.0,-0.6495,-0.6671,-0.7632,-0.8596,-0.9215,-0.9824,-1.0726,0.0,0.0,0.0,0.0,0.0,0.0,-1.3865,0.0,-1.428,-1.425,-1.425,-1.425,-1.425,-1.425,-1.4124,-1.3859,-1.3405,-1.323,-1.3343,-1.4685,-1.5047,-1.4657,-1.5587,-1.6124,-1.6355,-1.7009,-1.7546,-1.787,-1.7951,-1.7786,-1.7535,-1.7854,-1.7547,-1.703,-1.7709,-1.7521,-1.6917,0.0,0.0,0.0,0.0,0.0,0.0,0.0,0.0,0.0,0.0,0.0,0.0,0.0,0.0,0.0,0.0,0.0,0.0,-0.277,-0.2879,-0.2907,-0.284,-0.2721,-0.2669,-0.2675,-0.2196,-0.1764,-0.1446,-0.0719,-0.0228,0.0,0.0,0.0,0.0,0.0,0.0,0.0,0.0,0.0,0.0,0.0,0.0,0.0,0.0,0.0,0.0,0.0,0.0,0.0,0.0,0.0,0.0,0.0,-0.0149,-0.0746,-0.2683,-0.3609,-0.4428,-0.6462,-0.7453,-0.7968,-0.8283,-0.83,-0.837,-0.8654,-0.8069,-0.7395,-0.7277,-0.6695,-0.6142,0.0,0.0,0.0,-0.6337,-0.684,0.0,-0.7859,-0.9021,0.0,-1.0054,0.0,-1.156,-1.2719,-1.2703,0.0,0.0,-1.3797,-1.3714,-1.3721,-1.3678,-1.3678,-1.3678,-1.3678,-1.3599,-1.3292,-1.2859,-1.2615,-1.2657,-1.3517,-1.3873,-1.374,-1.4664,-1.5074,-1.5157,-1.5827,-1.6206,-1.637,-1.7212,-1.7496,-1.7461,-1.7836,-1.7749,-1.7355,-1.7543,-1.7492,-1.7299,0.0,0.0,0.0,0.0,0.0,0.0,0.0,0.0,0.0,0.0,0.0,0.0,0.0,0.0,0.0,0.0,0.0,0.0,0.0,-0.2259,-0.2223,-0.2019,-0.1978,-0.1857,-0.1603,-0.129,-0.1023,-0.0773,-0.0263,0.0,0.0,0.0,0.0,0.0,0.0,0.0,0.0,0.0,0.0,0.0,0.0,0.0,0.0,0.0,0.0,0.0,0.0,0.0,0.0,0.0,0.0,0.0,0.0,0.0,-0.0343,-0.2097,0.0,-0.3444,-0.5744,-0.6677,-0.7148,-0.7919,-0.8013,-0.7867,-0.7713,-0.6991,-0.6317,-0.5918,-0.5422,0.0,0.0,0.0,0.0,0.0,0.0,0.0,-0.7006,-0.7952,-0.8729,0.0,-0.9712,0.0,-1.1531,-1.195,-1.2393,0.0,-1.3397,-1.3624,-1.3534,-1.3491,-1.3491,-1.3491,-1.3491,-1.3324,-1.2969,-1.257,-1.2276,-1.2098,-1.2573,-1.2699,-1.2528,-1.3408,-1.3866,-1.3986,-1.4657,-1.5247,-1.5737,-1.6378,-1.6892,-1.7342,-1.754,-1.7639,-1.7581,-1.7416,-1.7479,-1.7639,0.0,0.0,0.0,0.0,0.0,0.0,0.0,0.0,0.0,0.0,0.0,0.0,0.0,0.0,0.0,0.0,0.0,0.0,0.0,0.0,-0.1566,-0.1336,-0.1476,-0.1259,-0.0609,-0.0714,-0.0529,0.0,0.0,0.0,0.0,0.0,0.0,0.0,0.0,0.0,0.0,0.0,0.0,0.0,0.0,0.0,0.0,0.0,0.0,0.0,0.0,0.0,0.0,0.0,0.0037,0.0,0.0,0.0,-0.0237,-0.13,-0.1716,-0.232,-0.4598,-0.535,-0.5786,-0.7062,-0.7304,-0.7048,-0.6215,-0.5635,-0.5069,-0.4236,0.0,-0.4155,-0.4299,-0.4476,-0.4722,-0.5138,0.0,-0.5822,-0.6551,-0.6958,-0.7541,-0.8612,-0.8783,-0.912,-1.0134,-1.1028,-1.1463,-1.1365,-1.2646,-1.3389,-1.3394,-1.3394,-1.3394,-1.3394,-1.3394,-1.3197,-1.28,-1.2524,-1.2182,-1.1741,-1.1937,-1.1777,-1.1397,-1.2207,-1.2679,-1.2912,-1.3564,-1.4411,-1.5371,-1.5496,-1.6136,-1.7028,-1.7071,-1.7345,-1.7668,-1.736,-1.7514,-1.7778,0.0,0.0,0.0,0.0,0.0,0.0,0.0,0.0,0.0,0.0,-0.0505,-0.0203,0.0,0.0,0.0,0.0,0.0,0.0,0.0,0.0,0.0,-0.0984,-0.0551,-0.0264,-0.0128,-0.0153,-0.0102,0.0,0.0,0.0,0.0,0.0,0.0,0.0,0.0,0.0,0.0,0.0,0.0,0.0,0.0,0.0,0.0,0.0,0.0,0.0,0.0,0.0,0.0,0.0,0.0196,0.0,0.0,0.0,-0.0251,-0.1407,-0.1871,-0.2253,-0.3698,-0.4151,-0.4308,-0.4874,-0.4657,-0.4381,-0.4543,-0.3862,0.0,0.0,0.0,-0.3609,-0.3848,-0.4279,0.0,-0.5211,0.0,0.0,0.0,0.0,-0.708,0.0,0.0,0.0,0.0,0.0,0.0,0.0,-1.0538,-1.1326,-1.2856,-1.291,-1.291,-1.291,-1.291,-1.2888,-1.2802,-1.2525,-1.2281,-1.2035,-1.2082,-1.1912,-1.1639,-1.1811,-1.2009,-1.2265,-1.2718,0.0,-1.3619,-1.4528,-1.5357,-1.6169,-1.6484,-1.7062,-1.7692,-1.7636,-1.7474,-1.7337,0.0,0.0,0.0,0.0,0.0,0.0,0.0,-0.0382,-0.0388,-0.0475,-0.0258,-0.0116,-0.0209,-0.0139,-0.0069,0.0,0.0,0.0,0.0,0.0,0.0,0.0,0.0,0.0,0.0,0.0,0.0026,0.0104,0.0,0.0026,0.0104,0.0027,0.0,0.0,0.0,0.0,0.0,0.0,0.0,0.0,0.0,0.0,0.0,0.0,0.0,0.0,0.0,0.0,0.0,0.0,0.034,0.0252,0.032,0.0292,0.0102,-0.048,-0.0819,-0.1231,-0.2528,-0.2872,-0.311,-0.3911,-0.3786,-0.3406,-0.304,0.0,0.0,0.0,-0.2072,-0.2432,-0.3234,0.0,0.0,0.0,0.0,0.0,0.0,0.0,0.0,0.0,0.0,0.0,0.0,0.0,0.0,0.0,-0.9456,-1.0444,-1.1868,-1.2516,-1.2813,-1.2813,-1.2813,-1.2813,-1.2813,-1.2533,-1.2355,-1.2237,-1.2154,-1.2035,-1.1927,-1.1927,-1.1986,-1.2135,-1.2281,-1.266,-1.3144,-1.367,-1.4424,-1.5234,-1.5422,-1.5843,-1.6334,-1.6171,-1.6097,-1.6154,0.0,0.0,0.0,0.0,0.0,0.0,0.0,-0.0272,-0.0207,-0.0238,-0.0119,-0.0119,-0.0334,-0.0139,0.0,0.0,0.0,0.0,0.0,0.0,0.0,0.0,0.0,0.0,0.0,0.0,0.0,0.0,0.0132,0.0,0.0,0.0,0.0,0.0,0.0083,0.0082,0.0081,0.008,0.0079,0.0,0.0,0.0075,0.0,0.0,0.0,0.0,0.0,0.0,0.0,0.0,0.053,0.058,0.0742,0.0662,0.045,0.0418,0.0324,-0.0056,-0.1167,-0.1484,-0.1715,-0.2736,-0.285,-0.2462,-0.1608,-0.1236,0.0,0.0,-0.0882,-0.1361,-0.241,0.0,0.0,0.0,0.0,0.0,0.0,0.0,0.0,0.0,0.0,0.0,0.0,0.0,0.0,0.0,-0.8665,-0.9702,-1.0779,-1.1868,-1.2462,-1.2462,-1.2662,-1.2813,-1.2813,-1.2581,-1.2441,-1.2334,-1.2289,-1.2191,-1.2094,-1.2148,-1.2197,-1.2245,-1.2191,-1.2479,-1.3032,-1.3032,-1.3606,-1.444,-1.444,-1.4713,-1.5073,-1.4803,-1.4862,-1.5015,0.0,0.0,0.0,0.0,0.0,0.0,0.0,-0.0209,-0.0238,-0.0358,-0.0263,-0.0191,-0.0215,-0.0095,0.0,0.0,0.0,0.0,0.0,0.0,0.0,0.0,0.0,0.0,0.0,0.0,0.0,0.0,0.0,0.0,0.0,0.0,0.0,0.0,0.0,0.0,0.0362,0.0351,0.0,0.0,0.0,0.0,0.0,0.0,0.0,0.0,0.0,0.0,0.0,0.0,0.0,0.0803,0.1059,0.0876,0.056,0.0563,0.0,0.0,0.0274,0.0169,0.0114,-0.0272,-0.035,-0.0273,-0.0209,0.0,0.0,-0.0097,-0.0535,-0.0988,-0.1232,-0.1715,-0.2352,0.0,0.0,-0.3716,0.0,0.0,0.0,0.0,0.0,0.0,0.0,0.0,0.0,0.0,-0.7528,-0.8616,-0.9702,-1.0779,-1.137,-1.137,-1.2268,-1.2813,-1.2813,-1.2791,-1.2559,-1.2132,-1.2548,-1.2516,-1.21,-1.228,-1.2495,-1.2732,-1.2474,-1.2548,0.0,-1.2839,-1.3284,-1.3962,-1.3962,-1.4411,-1.5099,-1.5073,-1.4895,-1.4703,0.0,0.0,0.0,0.0,0.0,0.0,-0.009,-0.0068,-0.0093,-0.0143,-0.0119,-0.0072,-0.0072,-0.0024,0.0,0.0,0.0,0.0,0.0,0.0,0.0,0.0,0.0,0.0,0.0,0.0,0.0403,0.0428,0.0403,0.0,0.0,0.0,0.0,0.0,0.0,0.0,0.0,0.0,0.0,0.0,0.0,0.0,0.0,0.0,0.0,0.0,0.0,0.0,0.0,0.0,0.0,0.0,0.1528,0.1236,0.0,0.0,0.0736,0.0688,0.0575,0.0598,0.0608,0.053,0.0433,0.0431,0.0364,0.0,0.0159,0.0123,-0.0121,-0.048,-0.0838,-0.1138,-0.1575,-0.2293,-0.2399,0.0,0.0,0.0,0.0,0.0,0.0,0.0,0.0,0.0,0.0,0.0,-0.6334,-0.6731,-0.7176,-0.9103,-1.0243,-1.0243,-1.0641,-1.1179,-1.1814,-1.1819,-1.2073,-1.2526,-1.2721,-1.264,-1.2274,-1.2517,-1.2597,-1.2554,-1.2603,-1.2678,0.0,-1.2813,-1.2953,-1.3238,-1.3238,-1.3431,-1.3698,-1.3547,-1.3476,-1.3488,0.0,0.0,0.0,0.0,0.0,0.0,0.0,0.0,0.0,0.0,0.0,0.0,0.0,0.0164,0.0255,0.027,0.0359,0.0,0.0,0.0,0.0,0.0,0.0,0.0,0.0,0.0,0.0512,0.0561,0.0512,0.0515,0.0,0.0,0.0,0.0,0.0,0.0,0.0,0.0,0.0,0.0,0.0,0.0,0.0,0.0,0.0,0.0,0.0,0.0,0.0,0.0,0.0,0.0,0.0,0.0,0.0,0.0,0.0877,0.0816,0.0777,0.0816,0.0887,0.0754,0.0683,0.0651,0.0,0.0,0.0337,0.0267,0.0177,0.0,-0.0377,-0.0484,-0.0711,-0.1367,-0.147,-0.1803,0.0,0.0,0.0,0.0,0.0,0.0,0.0,0.0,0.0,-0.5636,-0.5586,-0.5572,-0.5594,-0.7365,-0.8547,-0.8939,-0.9184,-0.9742,-1.0504,-1.0452,-1.0765,-1.1434,-1.1738,-1.174,-1.1556,-1.2018,-1.2129,-1.1994,-1.2223,-1.2249,0.0,-1.2463,-1.2528,-1.2517,-1.2732,-1.277,-1.2651,-1.2554,-1.2576,-1.2672,0.0,0.0,0.0,0.0,0.0,0.0,0.0,0.0,0.0,0.0,0.0,0.0,0.0,0.0538,0.0895,0.0895,0.0895,0.0,0.0,0.0,0.0,0.0,0.0,0.0,0.0,0.0,0.063,0.0495,0.063,0.0598,0.0406,0.0669,0.0731,0.0,0.0,0.0,0.0,0.0,0.0,0.0,0.0,0.0,0.0,0.0,0.0,0.0,0.0,0.0,0.0,0.0,0.0,0.0,0.0,0.0,0.0,0.0,0.1127,0.1235,0.0991,0.1004,0.104,0.0681,0.0589,0.0578,0.0,0.0,0.0489,0.0415,0.0383,0.0408,0.0395,0.0393,0.0224,-0.0337,-0.0589,0.0,0.0,0.0,0.0,0.0,0.0,0.0,0.0,0.0,0.0,-0.5586,-0.5586,0.0,-0.5494,-0.554,-0.6117,-0.7366,-0.8275,-0.8771,-0.8936,-0.8645,-0.8417,-0.8261,-0.9209,-0.9579,-0.955,-1.0495,-1.092,-1.0934,-1.1152,-1.101,0.0,-1.1654,-1.1892,-1.1799,-1.2517,-1.2619,-1.2447,-1.2678,-1.2614,-1.2452,0.0,0.0,0.0,0.0,0.0,0.0,0.0,0.0068,0.0023,0.0135,0.0136,0.0251,0.0584,0.0873,0.1207,0.1609,0.1477,0.0,0.0,0.0,0.0,0.0,0.0,0.0,0.0,0.0,0.1567,0.1121,0.1343,0.1329,0.1075,0.094,0.075,0.0534,0.0584,0.0,0.0,0.0,0.0,0.0,0.0,0.0,0.0,0.0,0.0,0.0,0.0,0.0,0.0,0.0,0.0,0.0,0.0,0.0,0.0,0.2548,0.0,0.0,0.1945,0.2131,0.2285,0.1774,0.1906,0.2142,0.2079,0.1976,0.1742,0.1317,0.1108,0.0936,0.0646,0.0505,0.0395,0.0347,0.0232,0.0,0.0,0.0,0.0,0.0,0.0,0.0,0.0,0.0,0.0,-0.5035,-0.5035,-0.5047,-0.4956,-0.4952,-0.5308,-0.5997,-0.6325,-0.6824,-0.758,-0.7526,-0.778,-0.8417,-0.8703,-0.878,-0.8699,-0.9155,-0.931,-0.9169,-1.0008,-1.0224,-1.0019,-1.0906,-1.1138,-1.1052,-1.1261,-1.1387,-1.1395,-1.1744,-1.1957,-1.2154,0.0,0.0,0.0,0.0,0.0,0.0,0.0,0.0991,0.1269,0.0381,0.027,0.0449,0.0918,0.1207,0.1609,0.2208,0.2235,0.0,0.0,0.0,0.0,0.0,0.0,0.0,0.1678,0.2034,0.2034,0.1655,0.1876,0.1899,0.1744,0.1567,0.1407,0.1254,0.1245,0.1226,0.0,0.0,0.0,0.0,0.0,0.0,0.199,0.0,0.0,0.0,0.0,0.0,0.0,0.0,0.0,0.0,0.0,0.0,0.0,0.0,0.3573,0.3507,0.0,0.2904,0.3017,0.2546,0.2707,0.2893,0.2797,0.2662,0.247,0.2082,0.1733,0.1398,0.1148,0.0812,0.0621,0.0749,0.0665,0.0,0.0,0.0,0.0,0.0,0.0,0.0,0.0,0.0,-0.3225,-0.413,-0.418,-0.4335,-0.4663,-0.4657,-0.4743,-0.4983,-0.5015,-0.5388,-0.6129,-0.6034,-0.6305,-0.6936,-0.7217,-0.7293,-0.7303,-0.7724,-0.7858,-0.7738,-0.8516,-0.8678,0.0,-0.939,-0.981,-0.9916,-1.0203,-1.0478,-1.0724,-1.1236,-1.1486,-1.168,0.0,0.0,0.0,0.0,0.0,0.0,0.0,0.2914,0.3571,0.1083,0.0736,0.0848,0.1164,0.1607,0.2119,0.2719,0.0,0.0,0.0,0.0,0.0,0.0,0.0,0.0,0.2166,0.221,0.221,0.2188,0.233,0.2402,0.238,0.2491,0.2533,0.2526,0.2526,0.2521,0.2492,0.2492,0.2492,0.2495,0.2524,0.2655,0.0,0.0,0.0,0.0,0.0,0.0,0.0,0.0,0.0,0.0,0.0,0.0,0.0,0.0,0.0,0.0,0.0,0.3439,0.0,0.0,0.3113,0.3078,0.2906,0.2858,0.0,0.2809,0.2347,0.1931,0.1824,0.1346,0.0956,0.0906,0.0,0.0,0.0,0.0,0.0,0.0,0.0,0.0,0.0,0.0,-0.1914,-0.3016,-0.3167,-0.3561,-0.4429,-0.4563,-0.4481,-0.4304,-0.4375,-0.447,-0.4661,-0.4433,-0.43,-0.43,-0.5015,-0.5383,-0.5532,-0.6222,-0.6545,0.0,-0.682,-0.6679,-0.6415,-0.7406,-0.802,-0.8412,-0.9192,-0.9685,-1.0137,-1.0842,-1.0975,-1.0845,0.0,0.0,0.0,0.0,0.0,0.0,0.0,0.0,0.0,0.0,0.409,0.3524,0.2315,0.2455,0.2835,0.0,0.0,0.0,0.0,0.0,0.0,0.0,0.0,0.0,0.2788,0.3347,0.3413,0.2946,0.3269,0.3364,0.3225,0.3085,0.2936,0.2732,0.2732,0.2639,0.2492,0.2492,0.2492,0.2521,0.2674,0.2983,0.0,0.0,0.0,0.0,0.4481,0.4542,0.0,0.0,0.0,0.0,0.0,0.0,0.0,0.0,0.5344,0.5345,0.4933,0.0,0.4394,0.3898,0.4121,0.444,0.0,0.4369,0.4243,0.3793,0.0,0.0,0.2198,0.188,0.0,0.0,0.0,0.0,0.0,0.0,0.0,0.0,0.0,0.0,0.0,0.0,-0.0851,-0.1975,-0.2711,-0.32,-0.3357,-0.4048,-0.4416,-0.4302,-0.4257,-0.4299,-0.4389,-0.4344,-0.43,-0.43,-0.4478,-0.4617,-0.4708,-0.4848,-0.494,-0.4991,-0.5748,-0.5899,-0.5694,-0.66,-0.695,-0.6926,-0.7082,-0.7319,-0.7636,-0.8215,-0.8432,-0.8479,0.0,0.0,0.0,0.0,0.0,0.0,0.0,0.0,0.0,0.0,0.0,0.0,0.0,0.0,0.0,0.0,0.0,0.0,0.0,0.0,0.0,0.0,0.0,0.3678,0.341,0.3792,0.384,0.3524,0.3811,0.397,0.401,0.3859,0.3759,0.3712,0.3556,0.3433,0.3337,0.3337,0.3337,0.3344,0.3443,0.0,0.0,0.0,0.0,0.0,0.5086,0.5112,0.0,0.5043,0.5241,0.5566,0.0,0.0,0.0,0.0,0.5891,0.5736,0.5864,0.5508,0.4995,0.4615,0.4759,0.4964,0.4912,0.0,0.0,0.0,0.0,0.0,0.0,0.0,0.0,0.0,0.0,0.0,0.0,0.0,0.0,0.0,0.0,0.0,0.0,0.1027,0.0543,-0.0678,-0.1256,-0.1764,-0.2314,-0.2817,-0.3096,-0.3002,-0.2967,-0.3361,-0.424,-0.424,-0.424,-0.424,-0.4279,-0.4324,-0.4373,-0.4373,-0.4373,-0.4375,-0.4881,-0.5024,-0.4933,-0.5446,-0.5743,-0.5949,-0.5958,-0.6214,-0.6632,-0.7117,-0.7337,-0.7394,0.0,0.0,0.0,0.0,0.0,0.0,0.0,0.0,0.0,0.0,0.0,0.0,0.0,0.0,0.0,0.0,0.0,0.0,0.0,0.0,0.0,0.0,0.3968,0.3968,0.3968,0.399,0.4012,0.4012,0.4208,0.4467,0.4728,0.4702,0.4751,0.4796,0.4486,0.4338,0.4338,0.4338,0.4338,0.4342,0.4371,0.0,0.0,0.0,0.0,0.0,0.0,0.0,0.0,0.5597,0.5712,0.5959,0.6292,0.0,0.0,0.0,0.0,0.0,0.6615,0.6109,0.5441,0.5334,0.5234,0.514,0.499,0.0,0.0,0.0,0.0,0.0,0.0,0.0,0.0,0.0,0.0,0.0,0.0,0.0,0.0,0.0,0.0,0.0,0.2223,0.2266,0.1791,0.0664,0.0474,-0.0094,-0.1196,-0.1375,-0.144,-0.1388,-0.1378,-0.2145,-0.3655,-0.3884,-0.3984,-0.3998,-0.42,-0.4279,-0.4279,-0.4279,-0.4271,-0.4259,-0.4259,0.0,-0.4285,-0.4363,-0.4718,-0.5245,-0.5289,-0.5628,-0.6118,-0.6508,-0.6623,-0.6587,0.0,0.0,0.0,0.0,0.0,0.0,0.0,0.0,0.0,0.0,0.0,0.0,0.0,0.0,0.0,0.0,0.0,0.0,0.0,0.0,0.0,0.4487,0.4338,0.4232,0.4232,0.4403,0.4487,0.4487,0.5022,0.5319,0.5375,0.5514,0.5332,0.4881,0.4652,0.4552,0.4552,0.4552,0.4552,0.4565,0.4734,0.0,0.0,0.0,0.0,0.0,0.0,0.0,0.0,0.576,0.5997,0.6328,0.6391,0.0,0.0,0.0,0.0,0.0,0.7358,0.676,0.6155,0.6194,0.586,0.5477,0.5288,0.0,0.0,0.0,0.0,0.0,0.0,0.0,0.0,0.0,0.0,0.0,0.0,0.0,0.0,0.0,0.0,0.2213,0.2182,0.2204,0.2138,0.1909,0.116,0.0597,0.036,-0.0442,-0.0916,-0.091,-0.0919,-0.1023,-0.1309,-0.2463,-0.3024,-0.3125,-0.3879,-0.4235,-0.4235,-0.4235,-0.4151,-0.4033,0.0,-0.412,-0.4237,-0.4208,-0.4335,-0.448,-0.4493,-0.4533,-0.461,-0.4696,-0.4626,-0.4529,0.0,0.0,0.0,0.0,0.0,0.0,0.0,0.0,0.0,0.0,0.0,0.0,0.0,0.0,0.0,0.0,0.0,0.0,0.0,0.0,0.4578,0.4596,0.4683,0.4644,0.4469,0.4656,0.4758,0.4758,0.5319,0.5615,0.5673,0.5965,0.5913,0.554,0.5343,0.5156,0.4983,0.4983,0.4983,0.4992,0.0,0.0,0.0,0.0,0.0,0.0,0.0,0.0,0.0,0.0,0.6622,0.6704,0.7118,0.0,0.0,0.0,0.0,0.0,0.8067,0.7491,0.6881,0.7437,0.6551,0.5552,0.5578,0.5517,0.0,0.0,0.0,0.0,0.0,0.0,0.0,0.0,0.0,0.0,0.0,0.0,0.0,0.0,0.0,0.2567,0.2564,0.2629,0.2559,0.2372,0.1935,0.1602,0.1454,0.0992,0.0678,0.0669,0.0656,0.0645,0.0677,-0.0402,-0.1227,-0.1756,-0.2201,-0.2428,-0.2428,-0.277,-0.2882,-0.2853,-0.3444,-0.3593,-0.3459,-0.3927,-0.3992,-0.3851,-0.407,-0.4157,-0.4151,-0.4102,-0.4032,-0.3983,0.0,0.0,0.0,0.0,0.0,0.0,0.0,0.0,0.0,0.0,0.0,0.0,0.0,0.0,0.0,0.0,0.0,0.0,0.0,0.477,0.4853,0.4879,0.527,0.5248,0.4727,0.502,0.5148,0.5079,0.5664,0.5972,0.6055,0.6425,0.649,0.6225,0.6082,0.5867,0.5626,0.5626,0.5626,0.5626,0.0,0.0,0.0,0.0,0.0,0.0,0.0,0.0,0.0,0.0,0.0,0.0,0.0,0.0,0.0,0.8024,0.7952,0.7873,0.8674,0.8105,0.7518,0.8435,0.7118,0.5743,0.6219,0.6188,0.0,0.0,0.0,0.0,0.0,0.0,0.0,0.0,0.0,0.0,0.0,0.0,0.0,0.0,0.3475,0.3064,0.2917,0.2932,0.2838,0.2587,0.249,0.2416,0.2243,0.2196,0.2105,0.2056,0.2055,0.2033,0.2026,0.1368,0.0515,-0.0486,-0.0742,-0.0873,-0.0873,-0.1372,-0.1534,-0.1569,-0.2396,-0.2654,-0.2587,-0.3212,-0.3388,-0.3276,-0.3615,-0.3699,-0.369,-0.3646,-0.3655,-0.3764,0.0,0.0,0.0,0.0,0.0,0.0,0.0,0.0,0.0,0.0,0.0,0.0,0.0,0.0,0.0,0.0,0.0,0.0,0.0,0.5313,0.5653,0.5701,0.6279,0.6103,0.5079,0.5698,0.5899,0.5641,0.6307,0.665,0.6735,0.7074,0.7023,0.6645,0.6647,0.6619,0.6598,0.6598,0.6598,0.6598,0.6598,0.0,0.0,0.0,0.0,0.0,0.0,0.0,0.0,0.0,0.0,0.0,0.0,0.0,0.8239,0.7922,0.8209,0.8692,0.9067,0.8557,0.8079,0.8644,0.7374,0.6301,0.7566,0.7627,0.0,0.7547,0.0,0.0,0.0,0.0,0.0,0.0,0.0,0.0,0.0,0.0,0.0,0.4366,0.4015,0.3601,0.2952,0.2775,0.2733,0.2786,0.2733,0.2657,0.2656,0.2599,0.2539,0.2441,0.2438,0.241,0.2351,0.2366,0.1706,0.0406,-0.0406,-0.0812,-0.0812,-0.0852,-0.0803,-0.0709,-0.0787,-0.1156,-0.1791,-0.1832,-0.2268,-0.286,-0.286,-0.2902,-0.2853,-0.2747,-0.2964,-0.3317,0.0,0.0,0.0,0.0,0.0,0.0,0.0,0.0,0.0,0.0,0.0,0.0,0.0,0.0,0.0,0.0,0.0,0.0,0.0,0.6194,0.6337,0.6365,0.6818,0.6875,0.6467,0.647,0.6299,0.594,0.6579,0.7089,0.7478,0.7613,0.7587,0.7447,0.7447,0.7321,0.7139,0.7139,0.7139,0.7154,0.7266,0.7328,0.0,0.0,0.0,0.0,0.0,0.0,0.0,0.0,0.8011,0.7815,0.7796,0.8002,0.8271,0.8233,0.8393,0.8641,0.8978,0.8592,0.8235,0.8937,0.8037,0.0,0.0,0.8125,0.8274,0.8222,0.8227,0.0,0.0,0.0,0.0,0.0,0.0,0.0,0.0,0.0,0.6408,0.6123,0.5367,0.4806,0.4549,0.436,0.4248,0.4284,0.3743,0.3389,0.3381,0.2794,0.2477,0.2454,0.2454,0.2461,0.2476,0.2499,0.2245,0.1748,0.1429,0.1269,0.123,0.0873,0.0711,0.0744,0.0078,-0.0236,-0.0318,-0.0795,-0.1038,-0.1127,-0.1811,-0.2296,-0.2617,-0.2553,-0.2664,-0.2779,0.0,0.0,0.0,0.0,0.0,0.0,0.0,0.0,0.0,0.0,0.0,0.0,0.0,0.0,0.0,0.0,0.0,0.0,0.6776,0.6944,0.7091,0.7161,0.7592,0.7792,0.7688,0.7445,0.7056,0.651,0.703,0.7496,0.7914,0.8144,0.8242,0.8242,0.8242,0.8118,0.7912,0.7912,0.7912,0.7904,0.8062,0.8116,0.0,0.0,0.0,0.0,0.0,0.0,0.0,0.0,0.85,0.8165,0.8185,0.8212,0.8198,0.8252,0.8219,0.8268,0.8731,0.8451,0.8273,0.0,0.0,0.0,0.8605,0.9013,0.9318,0.926,0.892,0.0,0.0,0.0,0.0,0.0,0.0,0.0,0.0,0.7837,0.7433,0.7207,0.6394,0.5757,0.5593,0.5448,0.5319,0.5281,0.4651,0.4231,0.4166,0.3572,0.3194,0.3207,0.2935,0.2812,0.2839,0.2577,0.2481,0.2481,0.2501,0.2511,0.247,0.2078,0.1882,0.1843,0.1097,0.0823,0.0863,0.0313,0.0118,0.0118,-0.0627,-0.1176,-0.1529,-0.1529,-0.1608,-0.1724,0.0,0.0,0.0,0.0,0.0,0.0,0.0,0.0,0.0,0.0,0.0,0.0,0.0,0.0,0.0,0.0,0.0,0.0,0.7008,0.7515,0.7936,0.8198,0.8724,0.8854,0.8521,0.8635,0.8266,0.7405,0.7732,0.7905,0.7921,0.8649,0.8996,0.8996,0.8996,0.8996,0.8996,0.8996,0.8996,0.8996,0.8996,0.8996,0.8996,0.0,0.0,0.0,0.0,0.0,0.0,0.0,0.8874,0.8638,0.8298,0.8202,0.8146,0.7804,0.7606,0.7653,0.8327,0.8253,0.0,0.0,0.0,0.0,1.0262,1.0498,1.0749,1.0889,0.0,0.8747,0.8468,0.0,0.0,0.0,0.0,0.0,0.8387,0.8216,0.7883,0.7297,0.6786,0.6336,0.5844,0.5683,0.5568,0.5419,0.5336,0.5205,0.5033,0.4988,0.4968,0.4919,0.411,0.369,0.3602,0.2836,0.2418,0.2418,0.248,0.251,0.2511,0.2511,0.2511,0.2511,0.2511,0.2156,0.1607,0.1607,0.1216,0.0628,0.0628,0.0589,0.0589,0.0589,0.0353,0.0,0.0,0.0,0.0,0.0,0.0,0.0,0.0,0.0,0.0,0.0,0.0,0.0,0.0,0.0,0.0,0.0,0.0,0.0,0.8403,0.8553,0.8675,0.8765,0.9047,0.9168,0.9059,0.9044,0.8712,0.8029,0.803,0.8193,0.8479,0.8835,0.8996,0.8996,0.8996,0.8996,0.8996,0.8996,0.8996,0.9016,0.9148,0.9208,0.9228,0.0,0.0,0.0,0.0,0.0,0.0,0.0,0.0,0.0,0.8375,0.8334,0.8316,0.8226,0.8162,0.8215,0.8663,0.8537,0.0,0.0,0.0,0.0,0.0,1.0465,0.0,0.0,0.0,1.0184,0.961,0.0,0.0,0.803,0.8308,0.8442,0.8038,0.8052,0.802,0.7838,0.7593,0.7372,0.7236,0.7049,0.6916,0.6883,0.6288,0.59,0.578,0.5246,0.4917,0.4916,0.467,0.4572,0.4583,0.4362,0.4213,0.4213,0.3884,0.3257,0.2511,0.2511,0.2511,0.2511,0.2511,0.2392,0.2235,0.2235,0.1882,0.1294,0.1294,0.102,0.0589,0.0589,0.051,0.0432,0.0,0.0,0.0,0.0,0.0,0.0,0.0,0.0,0.0,0.0,0.8296,0.0,0.0,0.0,0.0,0.0,0.0,0.0,0.0,0.9188,0.9237,0.9317,0.9428,0.9527,0.9567,0.9384,0.9186,0.8967,0.8688,0.8668,0.8913,0.9167,0.9286,0.9286,0.9286,0.9286,0.9286,0.9286,0.9286,0.9286,0.9417,0.9457,0.9477,0.0,0.0,0.0,0.0,0.0,0.0,0.0,0.0,0.0,0.8906,0.8906,0.882,0.8709,0.8585,0.8501,0.8627,0.0,0.0,0.0,0.0,0.0,0.0,0.0,0.0,0.0,0.0,0.0,1.0606,1.0007,0.0,0.8919,0.9103,0.9073,0.8413,0.8359,0.8299,0.8106,0.7904,0.782,0.7898,0.7801,0.7703,0.7626,0.7123,0.6792,0.6676,0.6191,0.5917,0.5917,0.5582,0.5385,0.5433,0.5102,0.4953,0.4956,0.4651,0.4164,0.3495,0.3044,0.2855,0.2855,0.2855,0.2926,0.3017,0.2948,0.2643,0.2194,0.2172,0.1817,0.1314,0.1301,0.126,0.126,0.0,0.0,0.0,0.0,0.0,0.0,0.0,0.0,0.0,0.0,0.9136,0.9177,0.0,0.0,0.0,0.0,0.0,0.0,0.0,0.9597,0.9705,0.9912,0.9892,0.9921,1.0059,0.9715,0.9724,1.0117,0.9526,0.9235,0.9291,0.9597,0.9723,0.9723,0.9723,0.9703,0.9703,0.9703,0.9703,0.9703,0.9703,0.9723,0.9733,0.9733,0.0,0.0,0.0,0.0,0.0,0.0,0.0,0.0,0.9697,0.9687,0.9485,0.9254,0.8919,0.8609,0.8471,0.0,0.0,0.0,0.0,0.0,0.0,0.0,0.0,0.0,0.0,0.0,1.1421,1.064,0.9994,0.9928,1.0073,0.9961,0.9269,0.9021,0.873,0.8279,0.8064,0.7986,0.8085,0.81,0.7979,0.7745,0.7697,0.7645,0.7446,0.7437,0.7437,0.7437,0.6637,0.6179,0.6163,0.5467,0.513,0.5121,0.5131,0.5122,0.5101,0.4054,0.3559,0.3559,0.3559,0.3699,0.3936,0.3802,0.3516,0.32,0.3121,0.2827,0.2442,0.2354,0.2303,0.2307,0.0,0.0,0.0,0.0,0.0,0.0,0.0,0.0,0.0,0.0,0.0,0.0,0.0,0.0,0.0,0.0,0.0,0.0,0.0,1.0302,1.0515,1.0878,1.0602,1.0448,1.0467,1.0444,1.0634,1.1019,0.9909,0.9516,0.9828,0.9903,0.9921,0.9931,0.9823,0.9783,0.9783,0.9723,0.9703,0.9703,0.9703,0.9832,1.001,1.001,1.001,0.0,0.0,0.0,0.0,0.0,0.0,0.0,0.9786,0.9845,0.9807,0.9732,0.9385,0.905,0.0,0.8867,0.0,0.0,0.0,0.0,0.0,0.0,0.0,0.0,0.0,0.0,0.0,1.1887,1.142,1.083,1.0789,1.0541,0.9752,0.9606,0.9497,0.9225,0.9152,0.8873,0.8228,0.8185,0.787,0.7069,0.7024,0.7,0.6958,0.6953,0.6953,0.6953,0.6952,0.6863,0.6647,0.6855,0.685,0.6706,0.6298,0.6191,0.6291,0.5182,0.4668,0.4668,0.4668,0.4792,0.4962,0.4761,0.4488,0.4166,0.3732,0.3225,0.2752,0.2412,0.2327,0.2363,0.0,0.0,0.0,0.0,0.0,0.0,0.0,0.0,0.0,0.0,0.0,0.0,0.0,0.0,0.0,0.0,0.0,0.0,0.0,0.0,1.1019,1.1244,1.1105,1.1029,1.1029,1.1067,1.1188,1.1394,1.0732,1.038,1.0332,1.0293,1.0283,1.0283,1.0205,1.0186,1.0186,1.0088,1.0019,0.9961,0.9782,0.9961,1.0312,1.0157,1.0196,1.0332,1.0332,0.0,0.0,0.0,0.0,0.0,0.0,0.0,1.0406,1.0311,1.0089,0.9796,0.0,0.0,0.0,0.0,0.0,0.0,0.0,0.0,0.0,0.0,0.0,0.0,0.0,1.1737,1.1458,1.1055,1.0995,1.0747,0.9992,0.984,0.9627,0.923,0.9107,0.8906,0.8438,0.8397,0.8075,0.73,0.7235,0.7116,0.6821,0.6791,0.6791,0.6791,0.6925,0.693,0.6791,0.7033,0.7116,0.7012,0.6736,0.6635,0.671,0.5847,0.5477,0.5534,0.5467,0.556,0.5712,0.56,0.5337,0.5015,0.4671,0.427,0.3845,0.3587,0.3354,0.3179,0.0,0.0,0.0,0.0,0.0,0.0,0.0,0.0,0.0,0.0,0.0,0.0,0.0,0.0,0.0,0.0,0.0,0.0,0.0,0.0,0.0,1.1338,1.1516,1.1608,1.1608,1.1608,1.1645,1.1719,1.1808,1.158,1.1077,1.0785,1.07,1.0741,1.067,1.0642,1.0674,1.0545,1.0448,1.038,1.0039,1.0244,1.0745,1.0418,1.0476,1.0717,1.0668,1.064,1.0621,1.0659,0.0,0.0,0.0,0.0,1.1049,1.0899,1.0772,1.0527,0.0,0.0,0.0,0.0,0.0,0.0,0.0,0.0,0.0,0.0,0.0,0.0,0.0,1.1208,1.1094,1.1094,1.1094,1.088,1.0293,1.0128,0.9833,0.9247,0.9072,0.8943,0.8806,0.88,0.8521,0.7841,0.7777,0.7549,0.7062,0.7003,0.7003,0.7003,0.7013,0.6983,0.6861,0.6933,0.6892,0.674,0.6777,0.6773,0.6724,0.6304,0.6184,0.627,0.6199,0.6294,0.6459,0.639,0.6141,0.5816,0.5658,0.536,0.4968,0.4855,0.4528,0.4146,0.0,0.0,0.0,0.0,0.0,0.0,0.0,0.0,0.0,0.0,0.0,0.0,0.0,0.0,0.0,0.0,0.0,0.0,1.1854,0.0,0.0,1.1486,1.1829,1.2011,1.2011,1.2011,1.2186,1.2538,1.3021,1.3017,1.2575,1.141,1.1046,1.1357,1.0889,1.0823,1.1024,1.0899,1.0831,1.0831,1.0764,1.1019,1.1449,1.1215,1.1169,1.1177,1.1019,1.0802,1.064,1.0867,1.0943,0.0,0.0,0.0,1.1437,1.1409,1.1068,1.0666,0.0,0.0,0.0,0.0,0.0,0.0,0.0,0.0,0.0,0.0,0.0,0.0,0.0,1.1467,1.1439,1.1439,1.1439,1.1362,1.1151,1.1094,1.1009,1.0745,1.0687,1.0364,0.9625,0.9542,0.9179,0.8276,0.8102,0.8021,0.7919,0.7811,0.7763,0.7763,0.7935,0.7695,0.7072,0.7412,0.7224,0.6548,0.6702,0.6693,0.6558,0.6885,0.7021,0.7058,0.7233,0.7394,0.7562,0.7384,0.7125,0.6773,0.6212,0.5708,0.5203,0.4921,0.4788,0.4783,0.0,0.0,0.0,0.0,0.0,0.0,0.0,0.0,0.0,0.0,0.0,0.0,0.0,0.0,0.0,1.2585,1.2703,1.2697,1.2425,1.2627,1.2609,1.2228,1.2365,1.2431,1.2431,1.2473,1.2735,1.3198,1.344,1.3474,1.3274,1.2726,1.27,1.3101,1.2604,1.2579,1.2911,1.2208,1.1891,1.1833,1.1612,1.1651,1.1847,1.1568,1.1774,1.2181,1.2104,1.2185,1.2305,1.2127,1.2066,1.2041,1.1886,0.0,0.0,0.0,1.1585,0.0,1.0347,0.0,0.0,0.0,0.0,0.0,0.0,0.0,0.0,0.0,0.0,0.0,0.0,1.1571,1.1394,1.1394,1.1129,1.0923,1.0851,1.0805,1.0697,1.0616,1.0501,1.0298,0.9894,0.986,0.9583,0.8863,0.8751,0.8554,0.8231,0.8151,0.8125,0.8125,0.8222,0.8093,0.7786,0.7956,0.7849,0.7521,0.7751,0.7739,0.7538,0.8008,0.7828,0.7199,0.7403,0.7546,0.7626,0.7531,0.7414,0.7256,0.7001,0.6732,0.6531,0.6367,0.615,0.5918,0.0,0.0,0.0,0.0,0.0,0.0,0.0,0.0,0.0,0.0,0.0,0.0,0.0,0.0,0.0,0.0,1.33,1.3215,1.3057,1.3027,1.2949,1.282,1.2785,1.2762,1.2762,1.2803,1.3106,1.3643,1.3758,1.3873,1.4019,1.4302,1.4619,1.4914,1.4071,1.393,1.4238,1.3397,1.2999,1.2932,1.2625,1.2557,1.2635,1.2313,1.2613,1.3162,1.3123,1.3365,1.3608,1.3081,1.2889,1.2816,1.2275,1.2095,0.0,0.0,0.0,0.0,0.0,0.0,0.0,0.0,0.0,0.0,0.0,0.0,0.0,0.0,0.0,0.0,0.0,1.1911,1.156,1.1535,1.1183,1.0888,1.0718,1.0624,1.0496,1.0368,1.0213,1.0128,1.0128,1.0128,0.9973,0.955,0.9498,0.9283,0.8836,0.8758,0.8731,0.8731,0.8731,0.8652,0.8521,0.8383,0.8304,0.8304,0.8498,0.8492,0.8323,0.8733,0.8428,0.7583,0.7678,0.771,0.7715,0.7678,0.7604,0.756,0.7614,0.7666,0.7634,0.7542,0.7316,0.7003,0.0,0.0,0.0,0.0,0.0,0.0,0.0,0.0,0.0,0.0,0.0,0.0,1.4566,1.4647,1.4654,1.4597,1.4597,1.4361,1.3785,1.3625,1.3356,1.2903,1.2878,0.0,1.2878,1.2878,1.3195,1.3797,1.4174,1.4614,1.5137,1.6039,1.6464,1.6405,1.4533,1.3826,1.4013,1.3955,1.3937,1.3937,1.3897,1.4014,1.4165,1.395,1.3893,1.3929,1.3735,1.3686,1.3608,1.3081,1.2889,1.2816,1.2275,0.0,0.0,0.0,0.0,0.0,0.0,0.0,0.0,0.0,0.0,0.0,0.0,0.0,0.0,0.0,0.0,0.0,0.0,0.0,1.2291,1.2169,1.2144,1.1907,1.1343,1.1242,1.1074,1.0539,1.047,1.047,1.047,1.047,1.0462,1.0419,1.0316,1.0239,1.0213,1.0025,0.9921,0.9921,0.9921,0.9655,0.9159,0.858,0.8304,0.8304,0.8323,0.8316,0.831,0.8599,0.8689,0.8608,0.8364,0.8268,0.8255,0.8126,0.7905,0.77,0.7978,0.8068,0.8037,0.7705,0.7741,0.7884,0.0,0.0,0.0,0.0,0.0,0.0,0.0,0.0,0.0,0.0,0.0,0.0,0.0,1.5611,1.5536,1.489,1.4826,1.47,1.4404,1.4335,1.4069,1.3569,1.3489,1.3312,1.2908,1.3323,1.3822,1.4373,1.4871,1.5192,1.5339,1.5952,1.5999,1.5564,1.5195,1.5276,1.5633,1.4927,0.0,0.0,0.0,0.0,0.0,0.0,0.0,0.0,0.0,0.0,0.0,1.4444,0.0,0.0,0.0,0.0,0.0,0.0,0.0,0.0,0.0,0.0,0.0,0.0,0.0,0.0,0.0,0.0,0.0,0.0,0.0,0.0,0.0,0.0,1.2885,1.2837,1.256,1.2242,1.203,1.2015,1.194,1.1733,1.1501,1.1334,1.1334,1.0964,1.0769,1.0769,1.0539,1.0419,1.0419,1.0368,1.0308,1.0308,1.0308,1.0231,1.0051,0.9829,0.9718,0.9718,0.9718,0.9718,0.9718,0.9817,0.985,0.9823,0.9443,0.9069,0.8751,0.8699,0.8622,0.8551,0.864,0.8806,0.8985,0.8868,0.9002,0.9256,0.0,0.0,0.0,0.0,0.0,0.0,0.0,0.0,0.0,1.4961,0.0,0.0,0.0,0.0,1.6606,1.5938,1.5703,1.5508,1.5298,1.5233,1.4973,1.4461,1.4547,1.4423,1.4026,1.4433,1.4933,1.5466,1.5645,1.5801,1.594,1.6025,1.5818,1.5341,1.5712,1.6029,0.0,0.0,0.0,1.5241,0.0,0.0,1.4498,0.0,0.0,0.0,0.0,0.0,0.0,0.0,0.0,0.0,0.0,0.0,0.0,0.0,0.0,0.0,0.0,0.0,0.0,0.0,0.0,0.0,0.0,0.0,0.0,0.0,0.0,0.0,0.0,0.0,0.0,1.3501,1.3101,1.2742,1.2672,1.2541,1.2431,1.2395,1.2153,1.199,1.199,1.1651,1.136,1.1217,1.104,1.0888,1.0769,1.0667,1.059,1.0496,1.0496,1.0496,1.0496,1.0496,1.0496,1.0496,1.0496,1.0496,1.0496,1.0496,1.0496,1.0488,1.0164,0.9742,0.9268,0.9225,0.9155,0.9078,0.9175,0.933,0.9528,0.941,0.9624,0.9975,0.0,0.0,0.0,0.0,0.0,0.0,0.0,0.0,1.4294,1.5365,0.0,0.0,0.0,0.0,0.0,1.776,1.7299,1.6842,1.6461,1.6316,1.6036,1.5562,1.5986,1.6222,1.6208,1.6222,1.6487,1.7003,1.6481,1.651,1.6993,1.6479,1.6166,1.6022,1.6022,1.5935,1.5814,0.0,1.5792,1.5792,0.0,1.5468,1.5025,0.0,0.0,0.0,1.5025,1.536,0.0,1.4991,0.0,0.0,0.0,0.0,0.0,0.0,0.0,0.0,0.0,0.0,0.0,0.0,0.0,0.0,0.0,0.0,0.0,0.0,0.0,0.0,0.0,0.0,0.0,1.4028,1.3789,1.3401,1.3212,1.2806,1.251,1.2445,1.2429,1.2438,1.2438,1.2414,1.2252,1.185,1.1825,1.1685,1.1343,1.1099,1.082,1.0565,1.0539,1.0539,1.0539,1.0539,1.0547,1.0547,1.0547,1.0547,1.0547,1.0522,1.0522,1.0522,1.0522,1.0249,0.9818,0.9688,0.9477,0.9265,0.9533,0.9625,0.9611,0.928,0.9542,1.0009,0.0,0.0,0.0,0.0,0.0,0.0,1.4573,1.4452,1.4663,0.0,0.0,0.0,1.7049,1.7151,1.7151,1.7151,1.7014,1.7063,1.739,1.7384,1.7135,1.6602,1.672,1.6605,1.6222,1.6577,1.6859,1.7003,1.7242,1.7241,1.6993,1.7193,1.6871,1.6166,1.6402,1.6293,1.5935,1.5836,0.0,1.5768,1.5372,1.536,0.0,0.0,0.0,0.0,0.0,1.5835,1.6123,0.0,1.5793,1.5605,0.0,0.0,0.0,0.0,0.0,0.0,1.3204,0.0,0.0,0.0,0.0,0.0,0.0,0.0,0.0,0.0,0.0,0.0,0.0,0.0,0.0,0.0,1.3162,1.3054,1.3,1.3213,1.3361,1.3342,1.339,1.3409,1.3409,1.2957,1.2643,0.0,1.235,1.2203,1.2104,1.203,1.1956,1.1882,1.1783,1.1733,1.1733,1.1626,1.1585,1.1585,1.1585,1.1585,1.156,1.1242,1.1074,1.1074,1.0675,1.0437,1.0308,1.028,1.0213,1.0162,1.0228,1.0394,1.0609,1.05,1.0889,1.142,0.0,0.0,0.0,0.0,0.0,1.4133,1.4815,1.5006,1.5266,0.0,0.0,0.0,1.7353,1.7195,1.7251,1.7772,1.742,1.7435,1.8046,1.8088,1.7956,1.7636,1.7795,1.7721,1.7426,1.7707,1.7871,1.7871,1.8021,1.7928,1.7632,1.7707,1.7413,1.6829,1.7026,0.0,0.0,0.0,0.0,0.0,1.5456,0.0,0.0,1.5311,1.5447,0.0,0.0,0.0,1.6212,1.6346,1.6253,0.0,0.0,0.0,0.0,0.0,0.0,0.0,0.0,0.0,0.0,0.0,0.0,0.0,1.217,1.1815,1.1263,0.0,0.0,0.0,0.0,0.0,0.0,0.0,1.2111,1.2674,1.2981,1.3208,1.3461,1.3784,1.3869,1.3925,1.4035,1.3695,1.3399,1.3242,1.3064,1.2861,1.2584,1.257,1.2511,1.2389,1.2316,1.2183,1.1981,1.2119,1.2079,1.1888,1.2079,1.2163,1.2163,1.1875,1.1751,1.1751,1.1426,1.1301,1.1301,1.1301,1.0981,1.0496,1.0496,1.0753,1.114,1.114,1.1557,1.2135,0.0,0.0,1.3247,1.3813,1.3939,1.4118,1.4564,1.5382,1.5943,0.0,1.6711,1.7519,1.8042,1.7621,1.778,1.8898,1.8114,1.7852,1.853,1.8572,1.8572,1.8572,1.8898,1.9101,1.9101,1.9101,1.9101,1.9101,1.8745,1.8553,1.8481,1.8108,1.7848,1.772,1.776,0.0,0.0,0.0,0.0,1.585,1.5901,1.5613,0.0,0.0,1.5732,1.5773,1.6092,1.6173,1.6213,1.654,1.6501,0.0,0.0,0.0,0.0,0.0,1.5383,0.0,0.0,0.0,0.0,0.0,0.0,0.0,1.1296,1.1029,1.0556,0.802,0.0,0.0,0.0,0.0,0.0,0.0,0.0,1.2424,1.3004,1.291,1.308,1.3777,1.3979,1.4138,1.4368,1.4433,1.4326,1.3928,1.3892,1.361,1.3006,1.2982,1.2885,1.2633,1.2609,1.2402,1.1972,1.2378,1.2368,1.1958,1.2378,1.2584,1.2584,1.2511,1.2487,1.2487,1.2438,1.2389,1.2389,1.2389,1.1733,1.0718,1.0718,1.0989,1.1418,1.1418,1.1809,1.2367,0.0,0.0,1.4152,1.4548,1.4833,1.5269,1.6062,1.5888,1.599,1.688,1.7574,1.7853,1.7446,1.7766,1.81,1.8361,1.8187,1.8339,1.8945,1.8988,1.8988,1.8988,1.9064,1.9101,1.9101,1.9101,1.9101,1.9101,1.9026,1.8822,1.85,1.8745,1.8461,1.7787,1.8048,0.0,0.0,0.0,0.0,1.6237,1.6557,0.0,1.6099,1.6486,1.6646,1.6646,1.6709,1.6918,1.7173,1.7511,1.7584,1.7563,0.0,0.0,0.0,0.0,0.0,0.0,0.0,0.0,0.0,0.0,0.0,0.0,1.3641,1.3583,1.3287,0.0,0.0,0.0,0.0,0.0,0.0,0.0,0.0,1.2822,1.2378,1.2583,1.2857,1.3012,1.3752,1.4266,1.4313,1.471,1.4834,1.4535,1.4373,1.4233,1.4082,1.4082,1.4059,1.4001,1.3907,1.3807,1.3712,1.3711,1.364,1.3557,1.365,1.3692,1.3668,1.3242,1.304,1.3016,1.2594,1.2389,1.2389,1.2389,1.2242,1.2021,1.2021,1.2095,1.2178,1.2178,1.2393,1.2757,0.0,1.4842,1.5092,1.5262,1.5445,1.5669,1.6039,1.6381,1.6778,1.7244,1.783,1.8071,1.7737,1.7708,1.7969,1.8593,1.8651,1.8782,1.9087,1.9406,1.9449,1.9116,1.9101,1.9101,1.9101,1.9101,1.9101,1.9101,1.9101,1.9007,1.8803,1.9007,1.8702,1.8016,1.8503,1.8422,0.0,0.0,1.7671,1.7116,1.6957,0.0,1.6216,1.6894,1.7157,1.7178,1.7337,1.7502,1.7632,1.7503,1.7658,0.0,0.0,1.7698,1.7439,0.0,1.7089,1.6807,0.0,0.0,0.0,1.5965,0.0,0.0,0.0,1.3439,1.2913,1.187,1.1626,0.0,0.0,0.0,0.0,0.0,0.0,0.0,1.2443,1.2704,1.3007,1.3132,1.3481,1.3737,1.3897,1.4399,1.4755,1.4892,1.4811,1.4697,1.4558,1.4535,1.4489,1.4396,1.4326,1.4194,1.3955,1.4125,1.4079,1.384,1.4089,1.4197,1.4197,1.3918,1.38,1.3766,1.3518,1.3389,1.3389,1.3389,1.3389,1.3317,1.2657,1.256,1.2788,1.2788,1.2987,1.3292,1.606,0.0,1.6363,1.6291,1.617,1.6022,1.5847,1.6723,1.7474,1.7639,1.8077,1.8433,1.855,1.7969,1.8027,1.9188,1.9174,1.9203,1.9449,1.974,1.9725,1.9304,1.9174,1.9101,1.9101,1.9101,1.9101,1.9101,1.9101,1.9101,1.9101,1.9101,1.884,1.839,1.8767,1.8724,0.0,0.0,0.0,1.7936,0.0,1.6834,1.6349,1.718,1.7509,1.7529,1.7788,1.7922,1.7894,1.7345,1.7548,1.8003,1.7963,1.7963,0.0,0.0,0.0,0.0,0.0,0.0,0.0,0.0,0.0,1.5534,0.0,0.0,0.0,1.1703,0.0,0.0,0.0,0.0,0.0,0.0,0.0,0.0,0.0,1.3028,0.0,1.3643,1.3366,1.3331,1.3778,1.4283,1.4796,1.532,1.5311,1.521,1.4983,1.496,1.4892,1.4731,1.4731,1.4541,1.4171,1.4541,1.4541,1.4171,1.4541,1.4731,1.472,1.4617,1.4581,1.4581,1.4581,1.4581,1.4581,1.4686,1.4731,1.4605,1.3283,1.3054,1.3433,1.3433,1.3585,1.3811,1.7464,1.8013,0.0,1.8068,1.7529,1.6996,1.6623,1.665,1.7266,1.8775,1.8993,1.9217,1.9827,1.929,0.0,0.0,0.0,0.0,2.0712,0.0,1.9449,1.9957,1.942,1.9101,1.9101,1.9101,1.9101,1.9101,1.9101,1.9101,1.9101,1.9101,1.9058,1.8985,1.8521,0.0,0.0,0.0,1.7919,0.0,1.8201,1.7888,0.0,1.77,1.7842,1.7862,1.7882,1.8003,1.8129,0.0,1.8088,1.84,0.0,1.8163,1.8234,1.854,0.0,0.0,0.0,0.0,0.0,0.0,1.704,0.0,0.0,0.0,1.6104,1.5859,0.0,0.0,0.0,0.0,0.0,0.0,0.0,0.0,1.3663,1.3494,1.3595,1.422,1.375,1.3798,1.4904,1.5282,1.5695,1.6305,1.6114,1.5962,1.594,1.594,1.594,1.5918,1.5918,1.5881,1.5833,1.5881,1.5881,1.5833,1.5881,1.5918,1.5896,1.5411,1.5198,1.5198,1.5198,1.5198,1.5243,1.5698,1.5918,1.5786,1.4617,1.421,1.4257,1.4257,1.4208,1.4198,1.8486,1.824,0.0,0.0,1.739,1.6884,1.7532,1.8451,1.9432,2.0362,2.0653,2.0886,0.0,0.0,0.0,0.0,0.0,2.0698,0.0,0.0,0.0,2.0877,2.0469,2.0128,1.9977,1.9783,1.9493,1.9101,1.9101,1.9101,1.9101,1.9101,1.8912,1.8579,1.868,0.0,1.8575,0.0,1.851,0.0,0.0,0.0,0.0,1.8189,1.8262,1.8262,1.8262,1.8301,1.8361,0.0,1.8361,0.0,0.0,0.0,0.0,0.0,0.0,0.0,0.0,0.0,0.0,0.0,0.0,0.0,1.7981,0.0,1.755,0.0,0.0,0.0,0.0,0.0,0.0,0.0,1.4892,0.0,0.0,0.0,1.3566,0.0,0.0,0.0,1.4613,1.5108,1.5596,1.6181,1.6427,1.6497,1.6346,1.6321,1.6265,1.6114,1.6114,1.6114,1.6114,1.6114,1.6114,1.6114,1.6114,1.6114,1.6092,1.5874,1.5764,1.5764,1.5764,1.5764,1.5776,1.6005,1.6114,1.6049,1.5565,1.5366,1.53,1.5017,1.5017,1.5131,1.9758,0.0,0.0,0.0,1.812,1.7671,1.8639,1.9934,2.0981,2.155,2.1702,0.0,2.2222,2.2251,0.0,0.0,2.2077,2.1837,0.0,0.0,2.114,0.0,0.0,0.0,0.0,2.0321,2.0024,1.9343,1.9343,1.9343,1.9343,1.9343,1.9108,1.8696,0.0,1.8823,1.8571,0.0,1.8848,1.8879,1.8879,1.8836,1.8755,1.8576,1.8498,1.8498,1.8498,1.8537,1.8581,1.8586,1.8683,0.0,1.8831,0.0,0.0,0.0,0.0,0.0,1.9269,0.0,0.0,0.0,0.0,0.0,0.0,0.0,0.0,0.0,0.0,0.0,0.0,0.0,0.0,0.0,0.0,1.522,0.0,0.0,0.0,0.0,0.0,0.0,0.0,1.5031,1.5558,1.6264,1.6701,1.6918,1.6892,1.6879,1.679,1.66,1.66,1.66,1.66,1.66,1.66,1.66,1.66,1.66,1.66,1.6416,1.6352,1.6352,1.6352,1.6352,1.6352,1.6536,1.66,1.66,1.66,1.6548,1.6402,1.5744,1.5666,1.582,2.1567,2.1683,0.0,0.0,0.0,2.0141,2.007,2.0309,2.0912,2.2035,0.0,0.0,0.0,0.0,0.0,0.0,0.0,2.2844,2.2801,0.0,2.1089,0.0,0.0,2.1193,0.0,0.0,2.0643,1.997,1.997,1.997,1.997,1.997,1.9955,1.9909,1.9016,1.8921,1.9401,1.8571,1.8546,1.9082,1.9082,1.9236,1.9402,0.0,1.8498,1.8498,1.8498,0.0,0.0,1.8869,1.9151,1.9493,1.9636,0.0,0.0,0.0,0.0,0.0,0.0,0.0,0.0,1.9988,0.0,0.0,0.0,0.0,1.9901,0.0,0.0,0.0,0.0,0.0,0.0,0.0,0.0,0.0,0.0,0.0,0.0,0.0,0.0,0.0,0.0,1.5502,1.5892,1.7073,1.7058,1.7265,1.7835,1.7862,1.7862,1.7828,1.7828,1.7828,1.7828,1.7828,1.7828,1.7828,1.7828,1.7828,1.7808,1.7235,1.6972,1.6972,1.6972,1.6972,1.7013,1.7591,1.7828,1.7828,1.7828,1.776,1.7522,1.6471,1.6092,1.6092,0.0,0.0,0.0,0.0,0.0,1.9797,2.0457,2.1672,2.2822,0.0,0.0,0.0,0.0,2.6086,2.5999,0.0,0.0,2.4553,2.3937,2.3193,0.0,0.0,0.0,2.294,0.0,0.0,0.0,0.0,2.0314,2.0135,2.0135,2.0135,2.0135,2.012,0.0,1.9637,0.0,0.0,0.0,0.0,0.0,1.9759,1.978,0.0,1.9306,1.949,1.949,1.9541,1.9599,1.9636,1.9726,1.9848,1.9884,1.9815,1.9762,1.9937,1.9866,1.9762,1.9937,2.0131,2.0256,2.0256,0.0,0.0,0.0,0.0,0.0,0.0,0.0,0.0,0.0,0.0,0.0,0.0,0.0,0.0,0.0,0.0,0.0,0.0,0.0,0.0,0.0,0.0,1.5879,1.626,1.6881,1.7279,1.7305,1.7804,1.8043,1.7902,1.7902,1.7902,1.7902,1.7902,1.7902,1.7902,1.7902,1.7902,1.7882,1.7693,1.7591,1.7591,1.7591,1.7591,1.7611,1.7821,1.7902,1.7943,1.8337,1.8392,1.8101,1.7063,1.7098,1.7614,2.1812,0.0,0.0,0.0,0.0,2.1326,2.2014,2.3412,0.0,0.0,2.5625,0.0,2.803,0.0,2.8355,0.0,2.7318,2.6485,2.5428,2.4829,0.0,2.4035,2.4451,0.0,0.0,0.0,0.0,0.0,0.0,2.0849,2.0581,2.0547,2.053,2.0513,0.0,2.0148,2.0115,0.0,1.9797,0.0,0.0,2.0061,0.0,0.0,1.9889,2.0005,2.0005,2.0005,2.0023,2.0113,2.0148,2.0166,2.0252,2.0218,2.015,2.027,2.0218,2.015,2.027,2.0409,2.0545,2.0545,2.0663,0.0,2.0579,0.0,2.0761,0.0,0.0,0.0,0.0,0.0,0.0,0.0,0.0,0.0,0.0,1.649,0.0,0.0,0.0,0.0,0.0,0.0,1.5904,1.607,1.6898,1.7418,1.7455,1.8095,1.8436,1.8403,1.8293,1.8274,1.8358,1.8333,1.8327,1.8327,1.8327,1.8327,1.8327,1.8327,1.8327,1.8327,1.8327,1.8327,1.8361,1.857,1.8687,1.8743,1.9377,1.9548,1.9322,1.8514,1.8696,1.9376,0.0,0.0,0.0,0.0,2.3849,0.0,0.0,0.0,2.619,0.0,2.7248,2.8112,2.9113,2.9748,3.0087,3.0087,2.9468,2.8566,2.7313,2.6841,0.0,0.0,2.5019,2.4611,2.159,0.0,0.0,0.0,0.0,2.207,2.1374,2.1199,2.1119,2.1103,2.0629,0.0,2.041,2.0131,2.0023,2.0023,2.0025,2.0185,2.0427,2.0427,2.0272,2.0041,2.0041,2.0041,2.0078,2.0325,2.0427,2.0461,2.0728,2.0644,2.0525,2.0775,2.0691,2.0571,2.0791,2.0842,2.0858,2.081,2.0794,2.0794,0.0,0.0,2.0794,0.0,0.0,0.0,0.0,0.0,0.0,0.0,0.0,0.0,0.0,0.0,0.0,0.0,0.0,0.0,0.0,1.5839,1.595,1.6532,1.7107,1.7659,0.0,1.868,1.9047,1.9292,1.9001,1.894,1.9207,1.9143,1.912,1.912,1.9101,1.9101,1.9101,1.9101,1.9101,1.9101,1.9101,1.9101,1.9163,1.9841,2.0103,2.0176,2.0887,2.1184,2.1172,2.0677,2.074,2.1105,2.2609,2.3503,2.4315,0.0,2.476,2.4775,0.0,0.0,0.0,0.0,2.8658,2.983,3.104,3.1313,3.142,3.142,3.084,0.0,0.0,0.0,0.0,2.5346,2.5721,2.5147,2.3305,2.387,0.0,2.2673,0.0,0.0,2.2344,2.1742,2.1388,2.123,0.0,0.0,2.0695,2.041,2.0306,2.0308,2.051,2.0645,2.0712,0.0,2.0662,2.0595,2.0595,2.0595,2.0611,2.0663,2.0712,2.0712,2.0778,2.114,2.153,2.1599,2.1913,2.2161,2.1725,2.1616,2.1489,2.0936,2.0794,2.0794,2.0794,2.0794,0.0,0.0,0.0,0.0,0.0,0.0,0.0,0.0,0.0,0.0,0.0,0.0,0.0,1.662,0.0,0.0,0.0,1.6217,1.6127,1.6225,1.715,0.0,1.7644,1.8821,1.9427,1.9292,1.9214,1.9196,1.927,1.9266,1.9266,1.9266,1.9207,1.9184,1.9184,1.9124,1.9124,1.9184,1.9184,1.9207,1.931,2.0024,2.0322,2.0426,2.155,2.245,2.2978,2.1959,2.1388,2.1164,2.3388,0.0,0.0,2.564,0.0,0.0,2.5928,2.6557,0.0,2.8497,2.9628,0.0,3.1493,3.2137,3.2508,3.2508,3.1639,0.0,3.0276,0.0,0.0,2.6541,2.6483,2.5535,2.3512,2.4028,0.0,2.2857,0.0,0.0,2.2781,2.1963,2.1543,2.1419,0.0,2.1087,0.0,2.0695,2.0562,2.0579,2.0745,2.0794,0.0,2.1158,2.1079,2.0842,2.1158,2.1063,2.0794,2.0794,2.0794,2.0794,2.0794,2.13,2.19,2.19,2.2376,2.2756,2.2058,2.1884,2.1711,2.0968,2.0794,2.0794,2.0794,2.0794,2.0794,2.0794,2.0909,2.0911,2.0527,0.0,0.0,0.0,0.0,0.0,0.0,0.0,0.0,0.0,1.729,0.0,0.0,1.6617,1.6353,1.6315,1.7482,0.0,0.0,1.9267,1.9997,1.9967,2.0095,2.0092,1.9912,2.0167,2.0149,1.9826,1.9788,1.977,1.9785,1.9732,1.9915,2.0243,2.0243,2.0446,2.0803,2.1519,2.1792,2.1899,2.2915,2.365,2.4053,2.3402,2.29,2.2645,2.4414,0.0,0.0,0.0,0.0,0.0,0.0,2.8128,0.0,2.9566,0.0,3.1218,3.1451,3.2487,3.3166,3.3166,0.0,3.1151,3.1056,2.9919,2.8593,2.7162,2.712,2.586,2.3124,2.4046,0.0,0.0,0.0,0.0,2.3172,2.2305,2.1899,0.0,0.0,0.0,0.0,2.1052,2.0906,2.081,2.0905,2.0921,2.1015,2.1742,2.1616,2.1142,2.1695,2.1426,2.0794,2.0794,2.0794,2.081,2.0905,2.1442,2.2043,2.2137,2.2645,2.3009,2.2278,2.2041,2.1853,2.111,2.0857,2.0794,2.0794,2.0794,2.0794,2.0794,2.1071,2.1293,2.1309,0.0,0.0,0.0,0.0,0.0,0.0,0.0,0.0,0.0,0.0,0.0,0.0,0.0,0.0,0.0,0.0,0.0,0.0,0.0,2.0562,2.0794,2.107,2.1113,2.0851,2.1287,2.1219,2.0685,2.0574,2.0527,2.0527,2.0604,2.0995,2.1626,2.1719,2.2095,2.2689,2.3358,2.3701,2.3842,2.4396,2.463,2.463,2.463,2.4584,2.4559,0.0,0.0,0.0,0.0,0.0,2.9828,3.0528,3.0898,3.1191,3.1433,3.2297,3.2877,3.2929,3.2671,3.2481,3.2481,3.1697,0.0,0.0,0.0,0.0,2.7194,2.7254,2.629,2.401,2.4488,2.4634,0.0,0.0,0.0,2.4713,2.3935,2.349,0.0,0.0,0.0,2.2018,2.1984,0.0,2.0842,2.1393,2.163,2.1709,2.2438,2.2645,2.2487,2.2043,2.1426,2.0794,2.0794,2.0794,2.0905,2.1457,2.2137,2.2835,2.3401,2.4049,2.4464,2.3733,2.3133,2.255,2.1804,2.1204,2.0794,2.0794,2.0794,2.0794,2.0794,2.1071,2.1309,2.1371,2.1048,0.0,0.0,0.0,0.0,0.0,0.0,0.0,0.0,0.0,1.7694,0.0,0.0,0.0,0.0,0.0,0.0,0.0,0.0,2.0761,2.0794,2.0871,2.1153,2.1678,2.1187,2.1187,2.1643,2.0977,2.0644,2.0692,2.1172,2.15,2.171,2.2326,2.2695,2.2891,2.3566,2.4197,2.4753,2.4759,2.4762,2.4762,2.4762,2.4762,2.4742,0.0,0.0,0.0,0.0,0.0,0.0,0.0,3.3277,3.3307,3.1927,3.256,3.2911,3.2291,3.2653,3.28,3.2349,3.1532,3.0839,3.0394,3.0121,2.9221,2.7486,2.7495,2.6543,2.4404,2.4642,2.4801,2.4803,0.0,0.0,2.5094,2.4348,0.0,0.0,0.0,2.3096,0.0,0.0,2.1907,2.2193,2.2009,2.2164,2.2595,2.3185,2.3196,2.2898,2.2927,2.2485,2.1791,2.1047,2.0794,2.0921,2.1632,2.2327,2.304,2.3699,2.4413,2.4843,2.4093,2.3651,2.3243,2.2548,2.2122,2.1938,2.216,2.1905,2.1665,2.1762,2.1831,2.1878,2.1907,2.1762,2.1579,0.0,0.0,0.0,0.0,0.0,0.0,0.0,0.0,0.0,0.0,0.0,0.0,0.0,0.0,0.0,0.0,0.0,2.1055,2.1055,2.1391,2.1665,2.1859,2.1681,2.1759,2.2111,2.1572,2.1501,2.1848,2.2144,2.2472,2.2852,2.3217,2.3716,2.4275,2.4816,2.5134,2.5269,2.5422,2.5246,2.4906,2.5091,2.5048,2.4886,0.0,3.2194,0.0,0.0,3.4121,3.47,3.4121,3.4847,3.4668,3.2498,3.2797,3.2868,3.1913,3.2818,3.3157,3.231,3.1421,3.0755,3.0371,3.0006,2.9243,2.7996,2.7972,2.7068,2.5058,2.5059,2.51,0.0,0.0,0.0,2.5325,2.4746,0.0,0.0,0.0,0.0,0.0,2.2508,2.2606,2.3449,2.2789,2.2879,2.3471,2.3988,2.3834,2.3407,2.3859,2.3634,2.293,2.1715,2.1287,2.1316,2.1758,2.2453,2.323,2.3746,2.4413,2.4859,2.4286,2.4094,2.3915,2.3374,2.3209,2.3256,2.3534,2.3063,2.2572,2.2733,2.2586,2.2436,2.2506,2.2493,2.2399,0.0,0.0,0.0,0.0,0.0,0.0,0.0,0.0,0.0,1.9825,0.0,0.0,0.0,0.0,0.0,1.9857,0.0,2.1077,2.1402,2.1761,2.2034,2.2245,2.228,2.2474,2.2766,2.2311,2.2392,2.2898,2.3056,2.3401,2.3904,2.4141,2.4775,2.5652,2.5962,2.5908,2.567,2.598,2.5742,2.5266,2.5538,2.5462,2.5243,0.0,0.0,0.0,0.0,0.0,3.4883,3.48,3.4875,3.4796,3.4292,3.4079,3.3946,3.3831,3.3412,3.283,3.2086,3.1341,3.0603,2.9895,2.982,2.947,2.8725,2.8885,2.8285,2.6795,2.6308,2.6068,0.0,0.0,2.5375,2.6086,2.602,0.0,0.0,2.5623,2.5056,2.3735,2.426,2.4092,2.353,2.3867,2.4049,2.4177,2.4891,2.5015,2.4775,2.4526,2.4177,2.372,2.3159,2.2851,2.2613,2.2058,2.2785,2.3809,2.3872,2.4413,2.497,2.4906,2.4727,2.4507,2.4384,2.4211,2.4048,2.3966,2.3434,2.2965,2.2965,2.2714,2.2556,2.2807,2.2952,2.3003,2.2927,0.0,0.0,0.0,0.0,0.0,0.0,0.0,0.0,0.0,2.0716,0.0,0.0,2.0238,0.0,0.0,2.0571,2.0378,2.1703,2.1112,2.1706,2.367,2.2769,2.2976,2.4272,2.3269,2.2835,2.293,2.3528,2.3841,2.3939,2.4941,2.5605,2.605,2.607,2.607,2.605,2.6104,2.6068,2.6015,2.6016,2.6016,2.5997,0.0,0.0,0.0,0.0,0.0,3.5562,3.5562,3.5562,3.5348,3.4805,3.5234,3.5382,3.4822,3.4267,3.3413,3.2109,3.1175,3.0484,3.006,3.0135,2.9908,2.9186,2.9235,2.8619,2.722,2.698,2.6634,0.0,0.0,0.0,0.0,2.6202,2.6036,2.5739,2.5624,2.5406,2.5172,2.4562,2.4626,2.5083,2.4707,2.483,2.5253,2.5414,2.5432,2.5346,2.5206,2.5072,2.4829,2.4195,2.3501,2.2851,2.2582,2.3224,2.4079,2.4079,2.4799,2.5572,2.5497,2.5584,2.564,2.5551,2.5527,2.5564,2.5711,2.4862,2.4179,2.4743,2.4019,2.3218,2.3052,2.3033,2.3028,2.307,0.0,0.0,0.0,0.0,0.0,0.0,0.0,0.0,0.0,0.0,0.0,0.0,0.0,0.0,0.0,2.1464,2.1772,2.2854,2.2584,2.3132,2.4607,2.3998,2.4162,2.5079,2.449,2.4432,2.4821,2.5096,2.5226,2.5261,2.5936,2.6315,2.6487,2.6708,2.6674,2.6487,2.6725,2.6522,2.6139,2.6367,2.6298,2.6104,3.7384,3.7003,3.6887,3.7615,3.697,3.6324,3.6324,3.5959,3.5562,3.5263,3.6116,3.6252,3.492,3.4472,3.3652,3.201,3.1221,3.0674,3.0312,3.0422,3.0257,2.9744,2.9711,0.0,2.7945,2.7713,2.7265,2.6518,2.6319,0.0,0.0,2.6202,2.607,2.5854,2.5574,2.559,2.5821,2.5011,2.5259,2.6152,2.5395,2.5457,2.5881,2.5752,2.5659,2.5621,2.5809,2.5828,2.5656,2.5276,2.4611,2.3822,2.3261,2.3847,2.4687,2.4477,2.5206,2.6086,2.5997,2.6264,2.6556,2.6437,2.659,2.6824,2.7035,2.6117,2.5365,2.5811,2.4868,2.3845,2.3503,2.321,2.3028,2.3095,2.33,0.0,0.0,2.2856,0.0,0.0,2.182,2.1726,2.2376,2.2441,0.0,0.0,0.0,0.0,0.0,2.2031,2.247,2.3708,2.3519,2.4071,2.5472,2.5101,2.5245,2.5879,2.5564,2.5641,2.6104,2.6123,2.6193,2.6333,2.6641,2.6841,2.6973,2.7217,2.7153,2.6924,2.7202,2.6957,2.6487,2.6758,2.6708,2.6471,3.802,3.8169,3.8411,3.9149,3.8046,3.7102,3.7102,3.5843,3.5164,3.5893,3.6638,3.6274,3.4054,3.3806,3.3226,3.1725,3.1598,3.1283,3.0539,3.0506,3.0506,0.0,0.0,3.0141,2.938,2.874,2.8028,2.73,0.0,0.0,2.6202,2.6202,2.5805,2.5126,2.5871,2.5788,2.5176,2.5871,2.6169,2.6168,2.597,2.5899,2.5897,2.5897,2.5768,2.5691,2.6346,2.633,2.605,2.6522,2.6539,2.6031,2.4094,2.4634,2.583,2.5105,2.5611,2.6385,2.6385,2.669,2.6969,2.6904,2.7243,2.7572,2.7511,2.6964,2.6268,2.555,2.4805,2.4291,2.4291,2.3628,2.3107,2.3107,2.3769,0.0,0.0,2.3781,0.0,2.3177,2.3089,2.3182,2.3463,2.3486,0.0,0.0,0.0,0.0,0.0,2.1983,2.1755,2.4025,2.3328,2.4042,2.6362,2.5923,2.6061,2.6791,2.6316,2.6087,2.6104,2.6176,2.6419,2.6791,2.6873,2.7115,2.7481,2.7405,2.7409,2.7393,2.7313,2.7282,2.7299,2.7282,2.7329,2.7376,3.8891,3.8941,3.8858,3.8593,3.7748,3.6936,3.6439,3.5528,3.4982,3.5214,3.5893,3.5694,3.3988,3.47,3.4502,0.0,3.1879,3.1283,0.0,3.0506,3.0506,3.0506,3.0506,3.0141,2.9413,2.9201,2.8489,2.7298,2.7066,2.6684,2.6202,2.6202,2.607,2.5854,2.6086,2.6159,2.6133,2.6175,2.631,2.6468,2.6399,2.6381,2.6399,2.6572,2.6624,2.6573,2.6809,2.6792,2.6691,2.6841,2.6858,2.6707,2.6083,2.6152,2.6319,2.5597,2.6179,2.7069,2.6971,2.721,2.7474,2.74,2.7522,2.7657,2.7627,2.7467,2.6953,2.5669,2.5647,2.5542,2.4484,2.408,2.3922,2.3922,2.3664,0.0,2.3887,0.0,2.34,2.3125,2.3107,2.3199,2.3481,2.3504,0.0,0.0,0.0,0.0,0.0,2.3252,2.3726,2.4944,2.5263,2.6002,2.7205,2.707,2.7082,2.7277,2.7133,2.7052,2.7052,2.7068,2.7165,2.7277,2.7291,2.7386,2.7496,2.7483,2.7467,2.7467,2.7434,2.7436,2.7436,2.7436,2.7452,2.7467,3.9299,3.9299,3.9149,3.8692,3.8013,3.7268,3.6539,3.5794,3.5214,3.4932,3.5545,3.5644,3.4717,3.5694,3.5297,3.2531,3.1863,3.1283,3.0555,3.0506,3.0506,3.0506,3.0506,3.0274,2.981,2.9529,2.8969,2.8094,2.7659,2.7268,2.6923,2.662,2.6503,2.6503,2.6503,2.6589,2.6725,2.6555,2.6606,2.6742,2.6742,2.6742,2.6759,2.6924,2.7006,2.7006,2.7119,2.6963,2.6756,2.7142,2.7087,2.6899,2.7173,2.7181,2.6982,2.6422,2.6864,2.7494,2.7415,2.7552,2.7686,2.7644,2.7657,2.7701,2.7701,2.7701,2.742,2.6455,2.6437,2.6209,2.4958,2.4712,2.4625,2.4356,2.4102,2.405,2.4256,0.0,2.3558,0.0,0.0,2.3792,2.4006,2.4147,2.4263,0.0,0.0,0.0,2.3719,2.4329,2.491,2.5384,2.6177,2.6935,2.7644,2.76,2.7587,2.7542,2.7511,2.7496,2.7496,2.7526,2.7542,2.7542,2.7554,2.7569,2.7569,2.7557,2.7542,2.7542,2.7511,2.7496,2.7496,2.7496,2.7511,2.7542,3.9299,3.9299,3.9282,3.9232,3.8609,3.788,3.7152,3.6439,3.5744,3.4998,3.5595,3.6059,3.6009,3.6671,3.5694,3.2144,3.183,3.1466,3.0621,3.0572,3.0555,3.0506,3.051,3.0531,3.0531,2.9888,2.9526,2.9477,2.8297,2.7859,2.8083,2.7348,2.7006,2.7006,2.7006,2.7006,2.7022,2.7006,2.7006,2.7022,2.7022,2.7022,2.7022,2.7038,2.7054,2.7086,2.7341,2.6935,2.6447,2.7382,2.7245,2.6791,2.7473,2.7701,2.7657,2.7496,2.7554,2.7701,2.7701,2.7701,2.7701,2.7701,2.7701,2.7701,2.7701,2.7701,2.7701,2.7701,2.7157,2.6423,2.563,2.5489,2.5243,2.4502,2.4919,2.5094,2.4422,2.4342,2.4355,2.4355,0.0,2.4859,2.4993,2.5296,2.5154,0.0,0.0,0.0,2.4742,2.5327,2.5608,2.5489,2.6248,2.7016,2.7683,2.763,2.7635,2.7687,2.7681,2.7666,2.7613,2.7727,2.7722,2.7617,2.7742,2.7754,2.7701,2.7682,2.7669,2.7602,2.7594,2.7598,2.7596,2.7529,2.7592,2.7672,3.9299,3.9299,3.9133,3.856,3.7864,3.7119,3.6373,3.6108,3.5744,3.4998,3.6025,3.6638,3.6059,3.6671,3.6307,3.4303,3.4121,3.3342,3.1466,3.1333,3.1085,3.0522,3.0753,3.0875,3.0875,3.0968,3.073,3.0151,2.8713,2.8032,2.8083,2.7348,2.7006,2.7006,2.7006,2.7119,2.7294,2.7086,2.7119,2.731,2.731,2.731,2.7326,2.7476,2.7519,2.7552,2.7597,2.7504,2.7382,2.7616,2.7578,2.7473,2.7631,2.7701,2.7701,2.7642,2.7657,2.7701,2.7701,2.7701,2.7701,2.7701,2.7701,2.7701,2.7701,2.7701,2.7701,2.7701,2.7561,2.721,2.6441,2.6318,2.6055,2.5261,2.4938,2.4727,2.4562,2.4718,2.4827,0.0,2.543,2.5934,2.6179,2.6272,2.6229,2.6027,0.0,2.6779,2.5873,2.7455,2.7752,2.6367,2.7052,2.7526,2.7701,2.7686,2.7987,2.8601,2.9199,2.9148,2.8588,2.9217,2.8846,2.7707,2.8335,2.8263,2.7754,2.8353,2.8233,2.7742,2.834,2.857,2.8483,2.787,2.8042,2.8513,3.9299,3.9299,3.9183,3.8758,3.8361,3.7864,3.7119,3.7019,3.6738,3.6009,3.6307,3.6572,3.6506,3.687,3.6655,3.5495,3.5081,3.4174,3.2433,3.2021,3.1717,3.1463,3.1323,3.1232,3.1232,3.1406,3.1372,3.1089,2.9541,2.8851,2.9002,2.8223,2.7859,2.7859,2.7859,2.7955,2.8047,2.754,2.74,2.7539,2.7539,2.7539,2.7554,2.7657,2.7701,2.7701,2.7701,2.7473,2.7245,2.7596,2.7473,2.7262,2.7596,2.7701,2.7701,2.7701,2.7701,2.7701,2.7701,2.7701,2.7701,2.7701,2.7701,2.7701,2.7701,2.7701,2.7701,2.7701,2.7701,2.7473,2.6753,2.6879,2.6736,2.5595,2.526,2.5151,2.514,2.5054,2.5277,2.6021,2.6588,2.6973,2.709,2.7206,2.7138,2.6759,2.745,2.7771,2.7488,2.8893,2.8802,2.6853,2.7739,2.8245,2.8245,2.8614,2.9018,2.9457,2.9879,2.9862,2.9457,2.9913,2.9632,2.8842,2.9614,2.9509,2.8842,2.9263,2.9193,2.8807,2.8877,2.9334,2.986,2.9088,2.907,2.9334,3.9299,3.9352,3.9345,3.9229,3.9239,3.899,3.8326,3.8258,3.805,3.7378,3.6837,3.6753,3.7345,3.7428,3.7186,3.6554,3.5821,3.4814,3.3455,3.2828,3.2554,3.2596,3.2055,3.168,3.156,3.1615,3.1764,3.1984,3.0421,2.9879,3.0246,2.9211,2.8842,2.907,2.8825,2.8789,2.8842,2.8035,2.7701,2.7701,2.7701,2.7701,2.7701,2.7701,2.7701,2.7701,2.7701,2.7297,2.6862,2.749,2.728,2.6879,2.749,2.7701,2.7701,2.7701,2.7701,2.7701,2.7701,2.7701,2.7701,2.7701,2.7701,2.7701,2.7701,2.7701,2.7701,2.7701,2.7701,2.7508,2.6879,2.728,2.7242,2.586,2.5856,2.5993,2.5936,2.5679,2.5998,2.7341,2.7827,2.8021,2.7952,2.8262,2.8189,2.7501,2.8207,2.8886,2.9391,3.0147,2.9673,2.7738,2.8674,2.919,2.913,2.9876,3.0282,3.0282,3.0404,3.0387,3.0282,3.0404,3.0318,3.0141,3.0878,3.0773,3.0124,3.0352,3.0317,3.0071,2.9597,3.0229,3.1282,3.0422,3.0318,3.0457,3.9299,3.959,3.9622,3.8984,3.8866,3.8739,3.835,3.8516,3.8553,3.8187,3.8499,3.8823,3.8942,3.8959,3.8908,3.8789,3.8101,3.6678,3.4285,3.4351,3.3909,3.2647,3.2762,3.2531,3.1857,3.2126,3.2284,3.2319,3.0777,3.0373,3.0984,2.886,2.8614,2.9844,2.8491,2.8263,2.8842,2.8035,2.7701,2.7701,2.7701,2.7701,2.7701,2.7701,2.7701,2.7701,2.7701,2.7631,2.7543,2.7648,2.7613,2.7543,2.7648,2.7701,2.7701,2.7701,2.7701,2.7701,2.7701,2.7701,2.7701,2.7701,2.7701,2.7701,2.7701,2.7701,2.7701,2.7701,2.7701,2.7666,2.7543,2.7613,2.749,2.6868,2.6918,2.6928,2.6542,2.7182,2.7768,2.7968,2.8678,2.9145,2.9151,2.9784,3.0158,3.0047,3.0772,3.127,3.1359,3.1912,3.1763,3.0741,3.0685,3.0542,3.0253,3.0776,3.1019,3.1036,3.1721,3.1686,3.1036,3.1721,3.1335,3.0141,3.0878,3.0773,3.0195,3.151,3.1282,3.0213,3.1405,3.2002,3.2037,3.0633,3.1318,3.2599,3.9885,3.9927,3.9885,3.9696,3.9776,3.9778,3.9484,3.9555,3.9608,3.9443,3.9347,3.932,3.932,3.932,3.8971,3.8168,3.8328,3.7612,3.563,3.5263,3.4893,3.4361,3.3676,3.2965,3.2196,3.2319,3.2406,3.2406,3.1247,3.0861,3.1176,2.9685,2.9597,3.0615,2.9053,2.8789,2.9492,2.8684,2.8105,2.7736,2.8175,2.8087,2.7701,2.7701,2.7701,2.7701,2.7701,2.7701,2.7701,2.7701,2.7701,2.7701,2.7701,2.7701,2.7701,2.7701,2.7701,2.7701,2.7701,2.7701,2.7701,2.7701,2.7701,2.7701,2.7701,2.7815,2.7926,2.7926,2.8034,2.8125,2.8125,2.817,2.7986,2.7367,2.7475,2.7552,2.738,2.8243,2.9061,2.9507,3.0292,3.0806,3.0804,3.1107,3.1309,3.1309,3.202,3.2462,3.2462,3.3141,3.3352,3.2969,3.2101,3.149,3.1151,3.1791,3.2041,3.1844,3.2362,3.241,3.2072,3.264,3.2505,3.1862,3.2456,3.2268,3.1613,3.2175,3.1984,3.1423,3.2125,3.2897,3.3494,3.2353,3.2668,3.3441,4.04,4.0302,4.0302,4.0497,4.0707,4.0802,4.0707,4.0611,4.0587,4.0683,4.0191,3.9835,3.9835,3.9835,3.9388,3.8252,3.8555,3.836,3.7234,3.6244,3.5734,3.581,3.4319,3.3248,3.2669,3.2493,3.2406,3.2406,3.1581,3.13,3.1458,3.0527,3.0598,3.1388,2.9667,2.9351,3.0053,2.9246,2.8544,2.8035,2.8649,2.8526,2.7964,2.7771,2.7701,2.7716,2.7745,2.7745,2.7716,2.7745,2.773,2.7701,2.7701,2.7701,2.7716,2.7745,2.7883,2.8009,2.7997,2.7841,2.7789,2.8157,2.7982,2.7736,2.7929,2.8053,2.8102,2.8102,2.8311,2.857,2.8752,2.8681,2.85,2.8213,2.8316,2.8508,2.8619,2.9478,3.0353,3.0997,3.1653,3.2008,3.1998,3.2123,3.2202,3.2202,3.2903,3.3408,3.3625,3.4255,3.472,3.4906,3.3421,3.2488,3.2241,3.2769,3.2995,3.2938,3.3144,3.3342,3.3537,3.3602,3.3633,3.3655,3.3815,3.3526,3.2954,3.2883,3.2733,3.2609,3.2685,3.3459,3.4481,3.3882,3.3881,3.4103,4.04,4.0683,4.0913,4.0954,4.0977,4.1094,4.1453,4.1186,4.1094,4.1453,4.1445,4.1432,4.1432,4.1432,4.1397,4.1292,4.003,3.921,3.9105,3.7705,3.6547,3.5827,3.4319,3.3477,3.3424,3.2739,3.2406,3.2406,3.1581,3.1581,3.2283,3.0791,3.0896,3.2213,2.993,2.9351,3.0053,2.9246,2.8877,2.8825,2.8877,2.886,2.8737,2.7982,2.7701,2.773,2.7911,2.785,2.773,2.7925,2.785,2.7701,2.7701,2.7701,2.773,2.7925,2.8449,2.8971,2.8853,2.8263,2.8052,2.9562,2.8807,2.7894,2.8649,2.8428,2.8102,2.8102,2.8311,2.8752,2.9557,2.9092,2.8931,2.9933,3.0111,3.0209,3.0468,3.1308,3.1909,3.1904,3.201,3.2058,3.2008,3.266,3.3108,3.3108,3.3844,3.4654,3.5457,3.5562,3.5936,3.6677,3.4847,3.3867,3.3828,3.3579,3.3836,3.4528,3.4543,3.4973,3.5735,3.4951,3.4586,3.4568,3.3854,3.3498,3.3484,3.3957,3.3756,3.3165,3.3555,3.3842,3.4047,3.4108,3.467,3.5211,4.1146,4.1255,4.1363,4.1363,4.1363,4.1431,4.1582,4.1453,4.1431,4.1582,4.1604,4.1604,4.1604,4.1604,4.1477,4.1114,4.0111,3.934,3.9022,3.7957,3.6887,3.5846,3.4793,3.4003,3.3494,3.2774,3.2406,3.2406,3.209,3.214,3.2506,3.1463,3.1335,3.1877,3.0029,2.9355,2.9624,2.9801,2.9621,2.9245,2.971,2.9561,2.9006,2.828,2.7965,2.7911,2.8081,2.8397,2.8763,2.8852,2.9158,2.9506,2.9506,2.9506,2.9506,2.9582,2.981,3.0116,3.0538,2.9927,2.9351,2.9948,2.9325,2.8809,2.9734,2.9642,2.9524,3.0136,3.0483,3.0768,3.1101,3.095,3.0906,3.1354,3.1419,3.1445,3.1546,3.2345,3.2889,3.2879,3.3808,3.4456,3.4416,3.5113,3.5558,3.5558,3.6252,3.6621,3.6452,3.647,3.6667,3.7003,3.6308,3.5777,3.5483,3.5398,3.5409,3.5506,3.5675,3.5924,3.6251,3.6115,3.5792,3.5284,3.4781,3.4278,3.3815,3.3814,3.3644,3.3462,3.4063,3.4339,3.4382,3.4428,3.4733,3.5097,4.1604,4.1604,4.1604,4.1604,4.1604,4.1604,4.1604,4.1604,4.1604,4.1604,4.1604,4.1604,4.1604,4.1604,4.1376,4.0851,4.0055,3.9359,3.8808,3.8041,3.7235,3.6407,3.5647,3.4976,3.4429,3.3423,3.2928,3.2928,3.2681,3.259,3.267,3.2172,3.1987,3.2012,3.0704,3.0097,3.0086,3.0654,3.0582,3.0183,3.0672,3.0362,2.9538,2.8838,2.8524,2.8454,2.859,2.9136,2.9787,2.983,3.0188,3.0591,3.0591,3.062,3.0703,3.0877,3.0978,3.1172,3.188,3.1533,3.0986,3.0986,3.0269,2.9816,3.083,3.0757,3.0699,3.1443,3.1808,3.2072,3.2334,3.2235,3.2266,3.2772,3.2881,3.2987,3.325,3.4038,3.4564,3.4564,3.5578,3.6273,3.6273,3.6738,3.7033,3.7033,3.7491,3.7654,3.7355,3.7647,3.7845,3.788,3.7899,3.7722,3.74,3.6937,3.6697,3.6726,3.6917,3.714,3.7413,3.7356,3.6906,3.6108,3.5622,3.494,3.4173,3.3884,3.3747,3.3788,3.4164,3.4369,3.443,3.4728,3.477,3.4803,4.1604,4.1604,4.1604,4.1604,4.1604,4.1604,4.1604,4.1604,4.1604,4.1604,4.1604,4.1604,4.1604,4.1604,4.1393,4.0866,4.0073,3.9359,3.8752,3.8005,3.7595,3.7595,3.6827,3.6399,3.6399,3.4899,3.4112,3.4112,3.3311,3.2918,3.29,3.29,3.29,3.2846,3.2061,3.1704,3.1689,3.1704,3.1704,3.1704,3.1704,3.1225,3.044,2.9701,2.9397,2.9426,2.9565,3.0026,3.0638,3.0765,3.074,3.0609,3.0609,3.0711,3.0959,3.1535,3.1813,3.2065,3.2733,3.29,3.29,3.29,3.1755,3.0864,3.1802,3.1647,3.1366,3.1572,3.1838,3.2278,3.3082,3.2628,3.266,3.4252,3.4588,3.4921,3.5784,3.6603,3.711,3.711,3.711,3.711,3.711,3.7129,3.7129,3.7129,3.7129,3.7467,3.8281,3.9138,3.9589,3.9589,3.9589,3.9589,3.9589,3.7955,3.7512,3.8319,3.8319,3.8751,3.957,3.8694,3.7868,3.7054,3.6273,3.5409,3.4591,3.4393,3.4311,3.4269,3.3878,3.3845,3.4103,3.4969,3.4866,3.4458,4.1604,4.1604,4.1604,4.1604,4.1604,4.1604,4.1604,4.1604,4.1604,4.1604,4.1604,4.1604,4.1604,4.1736,4.1825,4.1843,4.1256,4.0393,3.9247,3.8471,3.8021,3.8021,3.6986,3.6399,3.6399,3.5435,3.4934,3.4934,3.4702,3.4339,3.3878,3.3878,3.335,3.2411,3.2159,3.1744,3.1257,3.1816,3.2051,3.2051,3.2051,3.1848,3.1472,3.0796,3.0462,3.0406,3.0527,3.1064,3.1722,3.1765,3.213,3.257,3.257,3.2979,3.3391,3.3003,3.3426,3.3935,3.3564,3.3858,3.4078,3.3136,3.2192,3.1812,3.2939,3.2761,3.2613,3.3515,3.4252,3.4802,3.5045,3.5375,3.5773,3.625,3.6348,3.6453,3.6716,3.696,3.711,3.711,3.7606,3.7943,3.7943,3.85,3.8857,3.8857,3.8857,3.8969,3.9195,3.9458,3.9589,3.9589,3.9589,3.9589,3.9589,3.9101,3.8969,3.9214,3.9214,3.9345,3.9589,3.9326,3.8751,3.7925,3.7699,3.7117,3.6321,3.5672,3.5424,3.5338,3.461,3.4374,3.4446,3.4712,3.469,3.4555,4.1604,4.1653,4.1719,4.1719,4.1823,4.1888,4.1888,4.1888,4.1888,4.1888,4.1888,4.1888,4.1888,4.1977,4.2021,4.1942,4.1135,4.0257,3.946,3.8662,3.8209,3.8209,3.75,3.711,3.711,3.6355,3.5976,3.5976,3.5654,3.5128,3.4413,3.4413,3.3792,3.2669,3.2669,3.2397,3.1981,3.2469,3.2669,3.2669,3.2669,3.2444,3.2029,3.1627,3.1414,3.1412,3.1808,3.2469,3.3194,3.352,3.3954,3.4353,3.4353,3.4679,3.4984,3.4582,3.4896,3.53,3.4904,3.517,3.5339,3.4527,3.393,3.3782,3.4573,3.4578,3.4605,3.5421,3.601,3.6366,3.6366,3.6772,3.7204,3.7512,3.7568,3.7699,3.8049,3.8087,3.8087,3.8087,3.8519,3.8807,3.8807,3.9289,3.9589,3.9589,3.9589,3.9589,3.9589,3.9589,3.9589,3.9589,3.9589,3.9589,3.9589,3.9589,3.9589,3.9589,3.9589,3.9589,3.9589,3.9589,3.912,3.83,3.83,3.7831,3.7035,3.6235,3.5897,3.5803,3.494,3.4612,3.4612,3.4612,3.4808,3.5108,4.167,4.1805,4.1934,4.1934,4.2145,4.2308,4.2308,4.2308,4.2308,4.2308,4.2308,4.2308,4.2308,4.2308,4.2123,4.1565,4.0348,3.9604,3.9604,3.879,3.8354,3.8408,3.8281,3.8227,3.8317,3.752,3.7104,3.7104,3.6363,3.5569,3.4715,3.4715,3.428,3.3502,3.3502,3.3556,3.361,3.361,3.3574,3.3502,3.3502,3.3067,3.2415,3.2415,3.2451,3.2614,3.3357,3.4099,3.4824,3.555,3.5804,3.5804,3.5804,3.5856,3.5971,3.6069,3.6172,3.6313,3.6481,3.6591,3.6628,3.6628,3.65,3.6387,3.6436,3.6617,3.6858,3.7057,3.7167,3.7223,3.7223,3.7279,3.7561,3.83,3.8432,3.8694,3.9495,3.9589,3.9589,3.9589,3.9589,3.9589,3.9589,3.9589,3.9589,3.9589,3.9589,3.9589,3.9589,3.9589,3.9589,3.9589,3.9589,3.9589,3.9589,3.9589,3.9589,3.9589,3.9589,3.9589,3.9589,3.9589,3.9176,3.8432,3.8432,3.8,3.726,3.6366,3.6047,3.6028,3.5071,3.4752,3.4819,3.4733,3.5259,3.601,4.2142,4.2166,4.2207,4.2207,4.2267,4.2308,4.2308,4.2308,4.2308,4.2308,4.2308,4.2308,4.2308,4.245,4.2478,4.2338,4.1629,4.1198,4.1198,3.9912,3.9405,3.9985,3.8844,3.8499,3.9115,3.8354,3.7937,3.7937,3.7774,3.6942,3.5532,3.5532,3.5098,3.4353,3.4353,3.4682,3.5279,3.5279,3.4932,3.4353,3.4353,3.4244,3.4081,3.4081,3.4464,3.5025,3.5206,3.5388,3.5569,3.5731,3.5804,3.5804,3.5804,3.6342,3.6857,3.6274,3.6809,3.7453,3.6887,3.7184,3.7673,3.7673,3.8111,3.8214,3.6998,3.677,3.6858,3.7057,3.7606,3.8037,3.8037,3.8613,3.912,3.9289,3.9326,3.9383,3.957,3.9589,3.9589,3.9589,3.9589,3.9589,3.9589,3.9589,3.9589,3.9589,3.9589,3.9589,3.9589,3.9589,3.9589,3.9589,3.9589,3.9589,3.9589,3.9589,3.9589,3.9589,3.9589,3.9589,3.9589,3.9589,3.9495,3.9326,3.9326,3.9214,3.8932,3.7448,3.7211,3.7643,3.6179,3.5991,3.649,3.5841,3.6141,3.6847,4.2379,4.2389,4.245,4.245,4.2512,4.2591,4.2591,4.2591,4.2591,4.2591,4.2591,4.2591,4.2591,4.267,4.2747,4.2747,4.2101,4.1705,4.1705,4.06,4.0111,4.0474,3.9387,3.9134,3.9912,3.879,3.8209,3.8209,3.8209,3.7558,3.6363,3.6363,3.5946,3.517,3.517,3.5406,3.5804,3.5804,3.555,3.517,3.517,3.517,3.517,3.517,3.5424,3.584,3.6236,3.6616,3.6942,3.6942,3.6942,3.6942,3.6942,3.7374,3.7809,3.7507,3.7984,3.8497,3.8215,3.8446,3.877,3.877,3.9088,3.9137,3.8169,3.8034,3.8165,3.8269,3.8631,3.892,3.892,3.9289,3.9589,3.9589,3.9589,3.9589,3.9589,3.9589,3.9589,3.9589,3.9589,3.9589,3.9589,3.9589,3.9589,3.9589,3.9589,3.9589,3.9589,3.9589,3.9589,3.9589,3.9589,3.9589,3.9589,3.9589,3.9589,3.9589,3.9589,3.9589,3.9589,3.9589,3.9589,3.9589,3.9589,3.9589,3.9495,3.8218,3.7925,3.8188,3.6948,3.6735,3.7054,3.6641,3.6967,3.7674,4.2928,4.2837,4.2866,4.2866,4.2876,4.2901,4.2901,4.2901,4.2901,4.2901,4.2901,4.2901,4.2901,4.2901,4.2901,4.2901,4.2303,4.1904,4.1904,4.1144,4.0764,4.0908,4.0057,3.9948,4.0691,3.9315,3.8535,3.8408,3.8281,3.7792,3.6995,3.6995,3.6651,3.6019,3.6019,3.6091,3.6218,3.6218,3.6146,3.6019,3.6019,3.6019,3.6019,3.6019,3.6091,3.6327,3.7122,3.7919,3.8554,3.8462,3.8425,3.8457,3.8457,3.8526,3.8698,3.9039,3.931,3.9565,3.9915,3.9908,3.9815,3.9815,3.9815,3.9708,3.936,3.9445,3.9589,3.9589,3.9589,3.9589,3.9589,3.9589,3.9589,3.9589,3.9589,3.9589,3.9589,3.9721,3.9758,3.9627,3.9721,3.9815,3.9815,3.9815,3.9758,3.9608,3.9721,3.9758,3.9608,3.9721,3.9739,3.9589,3.9589,3.9602,3.9626,3.9626,3.9638,3.965,3.965,3.9626,3.9589,3.9589,3.9589,3.9589,3.9589,3.9589,3.9533,3.8681,3.843,3.8467,3.7694,3.745,3.7581,3.7581,3.792,3.8402,4.4921,4.4362,4.3894,4.3894,4.3334,4.2901,4.2901,4.2901,4.2901,4.2901,4.2901,4.2901,4.2901,4.2901,4.2901,4.2901,4.2792,4.2737,4.2737,4.1976,4.185,4.2538,4.1144,4.0709,4.1524,4.0637,3.9876,3.9224,3.8553,3.7792,3.6995,3.6995,3.6941,3.685,3.685,3.723,3.7883,3.7883,3.7484,3.685,3.685,3.685,3.685,3.685,3.7285,3.7991,3.879,3.955,4.0093,3.9441,3.9341,3.9506,3.9506,3.9307,3.9245,3.9988,4.0395,4.074,4.1479,4.1173,4.0647,4.0647,4.0647,4.0459,3.9702,3.9564,3.9589,3.9589,3.9589,3.9589,3.9589,3.9589,3.9589,3.9589,3.9589,3.9589,3.9589,4.0209,4.0384,3.9683,4.0209,4.0647,4.0647,4.0647,4.0347,3.9646,4.0247,4.034,3.9646,4.0265,4.0309,3.9627,3.9589,3.9619,3.9701,3.9701,3.9747,3.9856,3.9856,3.9773,3.9589,3.9589,3.9589,3.9589,3.9589,3.9589,3.9545,3.8787,3.8878,3.9448,3.8756,3.8902,3.9515,3.9515,3.9148,3.8761,4.5399,4.5001,4.4621,4.4168,4.3806,4.3407,4.2973,4.2901,4.2901,4.2901,4.2901,4.2901,4.2901,4.2901,4.2901,4.2901,4.2901,4.2901,4.2901,4.2574,4.252,4.2883,4.1796,4.1542,4.2357,4.1126,4.0546,4.0691,3.946,3.8698,3.8336,3.7883,3.7919,3.8354,3.8354,3.8753,3.9478,3.9478,3.9043,3.839,3.879,3.8699,3.8354,3.8354,3.8808,3.9549,4.0048,4.0462,4.0698,4.052,4.0522,4.0583,4.0583,4.0589,4.0663,4.1031,4.1295,4.1554,4.1911,4.1742,4.146,4.146,4.146,4.1366,4.1022,4.0947,4.0816,4.0347,4.0628,4.0797,4.0347,4.0284,4.0284,4.0284,3.989,3.9908,4.0816,4.0459,4.0171,4.0265,4.0985,4.146,4.146,4.146,4.1323,4.0966,4.0854,4.0835,4.0947,4.0911,4.096,4.1054,4.1127,4.0972,4.0545,4.0545,4.0321,3.99,3.99,3.9845,3.9773,3.9773,3.9738,3.9661,3.975,3.9738,3.9635,3.9381,3.9493,3.9777,3.9491,3.9578,3.99,3.99,3.9673,3.9429]}]]